GFSSW_925_rhum_000.txt.gz
RH
93 88 94 84 74 83 60 43 38 33 32 30 29 29 27 22 19 20 15 17 21 16 14 17 13 10 8 8 7 7 7 9 10 9 9 8 9 18 22 22 28 30 34 44 62
76 73 74 64 52 49 41 38 34 34 29 29 30 29 28 25 30 16 23 20 19 17 17 12 10 9 9 9 8 7 8 12 13 11 9 8 10 14 17 21 30 36 38 44 50
51 51 50 45 43 40 38 36 33 30 30 31 31 32 28 30 16 17 20 19 17 16 18 15 13 9 10 10 12 12 13 12 15 16 14 10 11 16 14 15 20 27 34 34 36
51 48 46 44 42 39 37 34 32 33 30 28 29 28 23 24 20 17 20 18 15 14 17 13 12 13 14 14 14 16 18 18 19 17 14 14 15 14 15 18 22 26 28 29 27
47 45 45 43 40 38 39 35 32 29 31 29 23 22 25 18 20 22 18 18 16 15 14 14 13 14 16 16 17 18 20 22 20 18 18 18 18 18 17 21 23 23 25 22 21
50 49 44 42 38 37 36 34 34 32 29 26 22 21 20 24 24 23 19 19 18 15 15 14 15 15 20 20 18 23 24 24 22 21 21 22 19 19 18 21 23 23 21 20 21
49 44 39 36 33 32 32 37 41 32 26 23 21 23 18 21 22 21 21 20 20 18 15 15 16 17 18 26 25 22 22 24 22 21 22 20 20 19 16 21 22 22 21 20 20
45 40 34 28 28 30 34 34 34 30 25 23 22 25 20 21 20 20 21 20 20 19 18 20 20 20 25 26 23 23 20 17 18 19 21 20 12 15 16 19 19 19 20 20 20
40 37 33 30 29 31 34 34 31 26 22 21 24 21 21 19 19 19 22 21 20 21 21 20 18 21 20 21 19 17 16 19 16 18 18 18 16 10 15 18 17 15 17 19 20
37 35 30 29 31 31 28 25 21 21 21 21 20 20 18 21 21 20 21 23 20 20 18 18 17 15 15 14 19 22 20 20 22 14 18 17 15 11 10 12 15 15 15 16 19
32 33 30 27 28 31 29 28 23 20 22 24 24 23 19 20 19 18 23 22 17 20 23 23 18 24 22 23 22 24 23 19 15 17 23 18 17 14 12 12 14 17 17 17 18
28 32 32 28 27 28 28 32 47 34 25 28 23 20 22 23 18 17 21 21 20 21 23 22 26 23 23 22 23 22 23 20 18 18 23 21 19 13 12 14 17 18 17 18 19
28 29 32 30 30 30 49 58 48 44 21 25 24 21 20 18 22 20 19 23 22 21 22 25 25 22 23 22 24 22 25 23 25 22 18 21 13 13 13 16 18 18 20 20 21
30 25 30 32 35 42 50 52 55 40 24 27 23 20 18 18 22 21 21 24 22 24 24 23 24 25 23 24 25 26 24 25 27 28 22 24 19 15 15 15 15 18 18 18 19
32 28 25 31 38 38 51 46 59 57 48 33 24 20 19 21 24 22 23 21 26 26 26 27 26 25 24 27 26 26 26 27 30 30 29 26 27 17 18 16 16 16 18 19 20
37 36 22 25 34 44 40 52 55 54 46 33 23 26 24 24 26 22 22 21 22 23 21 24 24 25 24 24 26 25 27 27 31 32 41 28 27 19 18 19 18 16 19 21 20
40 38 38 39 51 47 51 57 50 46 37 32 30 28 30 31 28 29 29 31 29 27 29 22 25 25 27 27 27 28 31 44 43 41 35 29 32 23 19 18 20 21 22 22 22
39 37 42 49 46 56 59 54 41 46 37 30 31 31 34 33 32 29 28 29 32 32 32 36 31 24 29 31 36 31 33 47 78 46 39 27 36 19 18 18 19 22 22 23 23
42 40 52 52 53 54 45 51 52 38 33 32 32 34 36 35 34 31 34 34 32 34 42 44 36 31 30 33 33 37 41 34 46 58 56 34 26 22 18 20 22 21 22 24 25
56 51 51 49 53 48 58 44 37 34 32 35 36 38 37 37 34 34 36 33 34 32 34 42 54 38 33 33 32 36 31 50 48 84 71 32 31 27 23 23 22 24 24 27 28
61 38 46 45 39 37 60 45 35 32 33 36 39 40 40 41 40 39 41 35 32 34 34 39 51 45 39 36 43 43 46 38 40 48 67 66 40 23 26 25 26 25 26 28 29
56 41 44 43 43 52 50 37 41 35 34 38 38 39 42 43 44 41 42 39 33 32 44 44 54 66 49 36 36 40 45 42 59 56 56 72 61 27 26 25 28 28 27 27 28
42 41 43 53 76 70 49 47 45 39 41 38 44 43 43 46 54 46 45 43 37 36 48 48 64 72 46 39 40 42 40 42 48 72 80 92 57 24 24 25 26 28 27 28 30
42 82 53 51 54 47 50 55 55 50 48 47 47 48 49 52 48 54 49 45 48 42 52 50 58 68 63 46 41 54 47 44 54 92 76 65 52 38 33 31 27 28 29 31 32
49 68 60 72 65 56 54 53 57 58 50 45 52 52 54 71 60 58 50 46 44 54 57 55 76 56 54 50 52 55 55 52 58 59 83 63 49 39 35 32 31 30 32 35 35
52 59 63 66 57 47 57 55 53 51 49 50 53 55 53 60 54 60 52 55 57 50 55 53 80 77 83 59 58 67 57 55 53 52 50 51 52 37 33 29 30 33 35 37 44
70 61 63 84 65 55 51 50 48 49 51 48 50 56 73 54 46 46 48 50 50 57 64 72 87 99 95 60 78 98 78 56 46 43 49 61 47 34 33 33 37 39 40 53 49

GFSSW_925_rhum_006.txt.gz
RH
99 97 88 68 57 45 44 41 36 29 28 27 24 22 22 23 23 28 16 19 17 14 14 13 13 6 6 4 4 4 6 6 6 7 6 5 6 8 8 8 9 10 16 34 46
58 62 66 65 62 48 47 46 35 30 28 25 21 22 23 22 25 12 18 16 15 13 18 8 6 5 5 5 5 7 8 8 6 6 7 6 6 7 7 8 10 14 16 27 37
58 60 56 51 47 48 41 38 34 29 27 25 21 22 20 25 26 14 16 14 13 12 17 12 8 6 8 7 8 8 9 7 8 10 7 8 7 8 8 9 11 12 17 20 24
50 47 43 39 37 38 37 34 30 28 28 26 23 20 21 27 22 16 16 14 12 11 15 10 8 9 10 10 9 11 10 10 11 11 11 12 12 11 10 10 11 11 13 17 21
50 44 40 38 39 35 33 30 30 28 26 25 20 19 22 21 17 16 17 16 14 12 10 9 10 11 11 10 11 12 12 12 12 13 12 12 12 12 11 9 12 11 16 18 20
51 45 41 37 34 32 31 30 29 27 22 21 22 22 41 19 16 16 16 15 14 12 11 11 12 12 13 14 14 13 13 13 12 11 11 14 11 10 9 9 12 13 16 17 19
45 42 37 33 32 32 33 32 29 26 23 23 21 25 18 17 15 15 15 15 14 13 11 11 12 13 15 18 13 13 16 15 14 10 9 11 10 10 10 11 12 12 15 15 15
40 36 32 31 34 35 35 32 29 25 21 21 20 37 19 16 16 14 14 14 14 13 12 12 13 13 16 14 16 15 14 11 9 10 10 10 12 8 8 9 12 12 13 15 15
36 34 30 31 30 31 31 28 24 21 19 19 30 35 18 16 15 14 15 14 14 14 14 13 12 13 16 20 16 12 14 13 13 9 9 10 13 9 8 8 9 11 11 12 14
33 30 31 31 30 28 27 24 20 19 18 21 23 17 15 16 15 15 15 15 14 13 14 13 14 16 12 15 22 19 18 16 16 12 13 15 16 12 10 9 9 10 10 11 11
30 29 29 31 30 31 26 26 23 25 16 18 15 15 13 13 14 12 12 14 13 14 15 11 18 18 16 16 15 14 16 16 15 12 15 17 16 13 9 9 11 11 13 14 13
27 28 27 27 27 25 26 30 36 39 20 14 13 13 13 14 14 12 12 14 14 15 12 13 21 16 14 13 14 13 15 19 17 15 18 18 16 12 10 12 12 12 14 16 16
24 27 27 26 25 36 36 38 42 45 32 16 15 14 14 14 14 14 13 14 14 13 13 14 20 14 14 15 18 15 22 23 24 20 15 16 13 13 12 12 12 14 15 15 17
28 23 27 25 29 34 36 44 53 56 36 20 17 16 13 12 17 14 12 15 16 17 14 16 15 15 16 16 19 22 19 23 25 26 29 19 22 12 12 14 14 15 18 18 18
35 25 31 39 42 30 45 46 52 57 65 22 16 14 13 15 14 15 14 15 18 16 16 24 18 15 17 19 19 24 22 26 24 26 26 20 20 14 12 12 14 16 17 20 20
37 22 33 37 43 49 46 50 55 65 56 25 17 18 18 17 16 14 15 14 14 16 13 13 14 16 18 18 19 21 24 23 21 26 46 24 23 21 14 14 13 13 16 20 22
40 40 45 54 51 53 45 52 56 53 24 23 23 19 19 21 19 18 19 24 26 31 25 18 17 17 20 24 20 24 31 52 59 54 50 22 26 24 17 13 14 16 19 22 22
37 60 54 62 62 52 56 42 58 33 25 22 21 20 23 23 22 20 21 23 25 28 28 31 34 21 22 26 32 30 33 61 68 54 50 30 31 18 12 12 14 15 17 21 23
41 52 48 54 59 61 46 53 45 28 24 24 21 23 26 23 23 22 26 27 29 30 39 42 32 22 24 24 27 31 38 31 49 54 64 43 28 20 15 15 17 18 19 25 25
55 39 49 43 50 63 53 45 29 24 23 22 28 25 28 26 25 26 28 27 30 30 30 36 52 30 26 26 26 31 29 49 60 89 64 38 39 33 24 26 26 25 25 27 28
62 41 51 32 48 43 51 35 27 23 24 30 28 28 28 31 31 30 30 31 29 30 30 34 47 45 36 32 34 32 38 39 36 51 71 76 47 29 31 29 29 27 27 28 29
44 48 49 34 46 41 38 28 44 27 25 29 29 32 35 35 38 35 35 36 32 32 39 42 50 70 49 31 25 27 34 35 73 68 61 68 62 30 28 25 28 27 26 27 29
34 36 46 52 76 57 33 33 30 29 32 32 36 35 34 38 48 40 39 37 34 34 47 44 57 67 44 34 31 37 33 33 38 63 67 94 66 28 29 29 26 27 30 30 31
35 80 44 38 32 36 37 37 41 36 35 33 35 34 37 40 36 44 39 36 38 39 58 45 51 58 72 55 43 51 41 38 43 66 59 58 48 35 30 29 27 31 35 33 33
32 48 43 67 45 39 37 34 39 42 36 33 37 37 39 65 54 42 37 40 36 59 40 48 72 55 50 46 47 51 49 44 45 43 56 48 40 32 28 27 34 35 37 38 37
52 46 38 39 35 35 44 36 36 36 33 37 40 35 38 46 46 54 46 47 48 38 45 51 85 77 83 59 51 56 51 48 44 40 39 39 39 27 26 32 37 40 41 45 53
40 38 60 58 45 48 44 34 33 34 40 34 38 42 60 47 45 44 45 45 46 52 60 61 88 100 84 65 75 89 62 49 42 35 36 48 37 29 31 43 48 49 46 61 62

GFSSW_925_rhum_009.txt.gz
RH
99 98 100 100 93 54 43 32 29 27 26 25 24 22 20 20 20 25 19 16 14 11 11 15 17 13 13 9 5 6 14 15 11 10 8 6 9 9 9 10 10 18 52 46 34
83 97 98 87 50 42 38 32 28 27 26 26 22 19 20 20 24 17 15 14 11 12 12 18 16 12 9 7 10 13 15 10 12 11 11 10 9 8 8 10 14 25 46 48 50
58 66 51 43 39 37 36 31 28 27 26 23 20 17 20 22 43 16 14 10 9 10 12 15 14 14 8 9 11 12 15 14 14 15 12 13 15 11 10 12 17 20 35 49 51
49 45 41 39 39 36 33 28 27 27 26 21 19 18 19 24 26 16 16 14 10 12 14 14 15 13 12 12 10 15 14 15 13 13 13 16 14 15 12 13 14 14 26 26 30
52 47 41 39 37 32 30 28 28 27 25 23 20 19 20 35 18 16 16 16 15 15 15 15 16 17 16 15 15 15 14 13 14 14 15 13 15 16 14 12 14 14 19 25 28
50 45 39 34 32 31 31 28 25 25 24 21 20 20 32 26 15 16 15 15 14 13 11 12 16 15 18 16 17 15 16 15 15 15 13 16 17 14 12 13 15 16 21 20 24
44 40 37 34 32 32 29 26 26 27 23 22 23 30 49 18 16 14 15 14 14 13 13 12 13 17 19 19 14 16 18 20 16 14 11 11 14 14 12 16 16 17 20 22 23
39 37 34 34 35 32 29 27 25 25 25 25 25 39 22 16 15 14 14 14 14 14 12 12 12 18 17 16 18 20 20 22 18 14 13 12 18 12 11 17 18 16 19 20 20
37 34 32 32 30 30 28 25 23 21 21 21 31 36 22 15 15 14 15 15 15 14 14 15 14 18 18 26 31 22 26 21 20 13 12 13 19 17 15 14 17 18 17 20 21
33 32 31 30 28 28 27 26 23 20 19 20 28 34 16 17 14 15 12 13 17 18 20 20 22 24 24 28 32 25 24 21 22 17 19 21 23 19 16 15 15 17 17 16 18
29 29 30 30 29 26 24 32 30 39 34 19 18 17 15 13 14 12 12 12 16 19 22 15 28 27 19 19 17 19 20 23 23 20 25 24 26 21 16 17 18 20 22 23 21
26 27 27 27 26 27 35 44 42 47 39 14 14 14 13 14 17 15 12 18 18 22 14 23 28 17 16 18 20 21 25 32 24 23 25 28 26 22 16 16 19 23 23 23 23
22 25 25 24 23 36 35 43 46 38 56 17 15 15 15 14 16 17 14 18 19 19 18 22 20 15 17 21 24 24 30 32 33 30 28 26 28 19 17 17 20 20 20 21 21
23 24 24 24 26 35 41 42 49 51 67 24 23 17 14 13 19 14 14 16 23 20 16 20 16 16 19 22 23 28 28 30 33 39 43 27 43 20 20 20 20 20 25 26 24
29 31 28 38 43 42 45 36 46 60 81 23 19 13 13 18 17 16 14 16 20 19 18 25 18 17 24 23 21 28 27 32 35 41 35 32 33 22 20 21 22 26 28 28 29
37 27 34 45 41 47 36 33 53 86 69 27 18 20 20 18 17 17 17 17 15 22 17 18 15 19 20 22 24 26 34 38 41 39 61 38 38 36 23 18 21 26 28 29 28
47 45 38 48 60 38 36 63 83 80 27 27 25 21 20 25 22 19 24 35 42 49 45 30 23 21 22 29 30 35 48 75 68 72 69 34 39 36 26 20 24 27 26 25 25
48 56 53 44 44 40 59 72 64 40 32 22 22 22 29 25 24 24 29 37 37 39 45 48 53 31 26 31 36 41 38 83 74 83 72 42 47 32 23 21 21 19 20 29 27
46 52 50 40 39 55 81 84 70 36 28 32 25 28 30 29 24 27 35 38 37 39 53 62 48 34 27 26 31 40 60 38 54 60 84 63 42 25 25 28 28 29 28 27 26
49 56 45 44 37 60 83 47 36 28 27 29 36 31 40 34 38 34 37 36 37 37 38 44 63 43 39 32 33 34 35 64 82 93 84 58 53 47 41 35 33 37 34 32 33
57 71 39 31 45 79 82 44 30 24 29 38 40 38 38 42 41 40 42 43 38 41 42 50 62 62 49 44 49 42 49 48 50 70 93 98 75 37 38 37 42 32 33 38 39
58 73 34 42 75 76 63 34 36 29 27 31 38 43 44 45 46 48 50 47 37 39 56 51 59 82 57 40 37 31 45 46 84 90 85 89 72 37 40 39 32 34 38 41 38
79 71 41 45 92 86 36 39 44 40 38 39 40 40 36 43 54 50 44 42 36 44 53 50 72 87 66 48 50 51 46 50 58 72 72 94 72 35 35 35 37 44 45 44 42
74 82 81 71 63 49 46 45 47 39 38 35 38 37 44 52 50 48 45 47 44 42 58 53 63 71 86 67 58 65 57 53 60 88 74 71 58 42 36 40 46 51 51 50 53
69 65 57 83 71 54 52 41 50 53 38 34 41 40 46 63 58 53 52 53 51 68 50 57 77 70 66 60 57 53 55 55 61 60 72 60 56 43 40 50 54 53 53 52 60
74 78 74 64 50 52 52 47 43 39 40 47 43 50 48 58 59 70 65 65 61 51 64 61 82 76 86 69 65 70 65 60 57 58 56 54 49 39 40 60 64 62 60 69 68
44 45 88 85 60 70 66 41 45 42 43 36 43 50 59 57 53 53 56 60 63 67 72 72 83 98 85 78 82 86 65 59 56 46 51 67 59 67 67 65 68 69 73 73 69

GFSSW_925_rhum_012.txt.gz
RH
67 76 76 47 53 59 38 33 31 28 32 26 24 22 20 19 20 13 16 13 11 12 12 12 13 14 15 13 9 10 15 18 13 12 11 10 11 10 10 11 16 37 45 44 54
51 57 49 46 47 35 34 29 30 32 28 27 23 20 18 19 21 17 12 9 10 12 12 17 20 17 12 9 12 14 18 14 12 11 12 13 13 10 9 16 31 53 58 47 58
50 46 44 41 39 36 34 29 29 28 29 28 20 18 18 20 27 17 15 14 14 16 16 18 20 16 11 11 12 13 19 15 15 14 14 16 16 14 12 17 31 59 68 66 62
49 45 42 39 37 34 30 28 26 28 28 22 18 17 16 27 25 15 16 16 15 15 16 15 17 18 15 16 15 16 15 14 14 13 14 16 15 17 14 14 16 53 60 63 63
53 46 40 37 34 29 27 27 28 29 25 20 17 16 19 27 19 15 15 15 14 12 13 15 20 20 23 18 16 16 15 15 14 15 15 14 14 15 15 14 17 32 39 53 55
45 41 36 32 29 29 30 30 28 25 20 19 17 21 29 23 16 16 16 14 14 13 13 14 16 18 19 17 18 17 17 17 17 17 17 17 17 16 16 16 17 27 30 32 34
42 39 35 33 32 32 33 32 28 23 20 19 22 27 44 19 16 15 15 15 14 14 14 12 13 18 19 23 18 16 19 20 20 15 14 13 13 14 12 18 19 24 26 26 28
38 35 35 36 36 35 32 29 26 22 22 24 24 33 23 16 15 15 15 14 14 15 15 14 13 16 18 19 25 22 22 25 20 19 13 12 18 13 14 20 20 21 24 27 26
36 34 33 33 32 31 29 25 22 23 22 22 30 36 26 16 14 14 13 14 14 15 15 15 15 19 21 27 28 27 26 23 22 16 17 14 20 18 18 19 21 21 22 24 24
33 33 32 30 29 27 23 22 22 22 26 32 35 32 20 17 14 14 12 12 14 20 21 19 26 27 27 28 31 26 24 22 23 20 27 25 26 24 21 19 20 20 20 18 18
31 31 29 29 25 23 23 30 45 34 32 19 18 20 15 13 14 13 12 13 16 20 25 20 27 26 20 20 20 21 25 28 26 23 30 30 33 28 19 20 24 27 28 28 28
28 28 27 26 24 33 37 46 48 48 40 17 16 15 13 14 18 16 12 18 21 21 17 30 27 18 18 21 22 24 30 33 32 26 30 33 34 26 20 19 25 28 28 28 28
25 26 25 24 23 36 36 48 48 41 52 18 16 16 15 14 16 18 15 18 20 22 22 29 20 16 20 25 26 25 30 32 36 36 32 31 32 21 18 22 23 22 24 24 27
21 24 25 24 25 43 43 40 44 59 57 24 23 18 16 14 20 15 14 17 21 21 18 21 17 17 25 24 25 31 25 31 37 41 46 32 51 28 20 21 21 23 25 26 27
24 26 25 27 44 43 45 34 46 58 70 25 19 14 15 18 17 17 14 17 19 19 21 26 18 18 24 23 24 29 30 37 38 46 42 41 42 28 19 21 22 32 32 30 29
31 33 33 40 39 46 40 34 54 78 64 26 19 20 21 20 18 19 28 24 24 29 25 20 16 20 20 24 27 30 38 43 46 48 65 41 40 38 35 29 34 30 29 32 31
44 36 37 47 52 38 37 57 76 72 31 29 26 22 26 25 25 25 36 41 45 41 49 39 27 23 24 33 34 41 55 77 64 76 68 43 47 36 29 27 25 26 28 28 31
47 48 42 42 45 38 54 66 56 48 34 23 23 23 30 25 24 32 34 43 40 44 55 62 60 39 28 32 36 40 51 81 76 84 74 50 51 38 32 34 33 25 28 29 30
48 52 42 46 39 52 73 76 66 42 32 32 30 32 32 30 25 34 42 44 42 45 54 65 54 40 34 31 33 40 58 42 59 70 86 67 50 32 30 36 36 34 38 40 40
48 61 43 42 41 57 73 55 36 30 33 37 39 36 41 43 41 38 43 46 41 44 42 49 68 47 45 38 35 35 38 63 81 82 88 72 62 54 42 44 40 42 49 50 47
57 64 39 35 53 70 67 50 31 25 30 38 45 49 46 48 48 46 53 46 41 43 50 52 64 61 49 50 51 50 60 56 58 80 97 97 84 49 44 46 51 45 48 45 46
65 54 39 54 67 85 56 33 32 30 35 39 43 46 48 48 53 53 54 48 38 41 56 52 68 82 59 48 42 42 54 61 88 80 89 87 71 39 44 40 44 47 46 48 48
77 69 50 50 80 83 41 42 46 40 43 43 43 41 40 49 56 51 50 42 36 44 48 48 70 82 56 46 56 57 51 55 66 81 84 95 77 38 37 41 50 58 57 56 56
71 79 77 79 73 52 46 46 47 41 42 39 39 43 48 56 51 47 54 47 43 43 54 55 67 66 76 57 65 72 60 53 63 93 80 75 67 52 48 62 64 66 65 61 64
76 67 64 79 70 54 53 48 52 51 39 37 44 46 48 59 59 67 64 62 55 64 51 60 76 71 70 65 66 65 66 66 69 68 87 68 65 55 71 69 68 66 64 65 68
71 75 80 70 57 48 65 44 46 40 45 46 58 57 57 63 60 68 65 65 68 58 62 68 84 78 84 74 77 83 71 70 70 68 66 66 62 69 68 69 70 69 66 68 73
64 67 81 83 66 68 67 44 46 47 44 43 47 53 59 57 58 57 60 61 63 68 76 74 86 97 73 92 91 91 74 67 58 56 58 75 66 73 77 79 78 73 72 72 78

GFSSW_925_rhum_015.txt.gz
RH
64 80 67 92 50 37 34 31 34 29 28 25 23 21 20 19 17 15 14 14 14 13 14 16 16 16 17 14 9 11 19 20 13 12 12 13 12 12 12 31 26 50 46 42 60
54 66 79 69 42 36 32 29 31 35 26 20 21 21 18 20 24 16 15 16 17 17 17 20 21 19 12 11 14 15 21 15 13 11 13 14 13 12 18 37 48 49 59 56 65
54 55 51 39 36 34 32 30 30 27 21 22 22 18 17 24 19 15 16 16 14 14 16 17 21 17 14 14 15 16 20 14 16 14 15 17 16 15 18 29 49 41 61 73 71
52 46 40 37 35 32 29 28 27 26 24 23 19 19 20 26 15 14 16 15 14 12 12 15 19 19 21 19 18 17 16 16 14 16 17 17 16 16 15 15 35 44 61 75 76
50 43 37 34 31 29 28 27 27 26 25 21 20 21 21 22 19 16 16 16 14 13 13 17 21 21 23 19 17 17 16 16 16 15 16 16 15 15 15 14 20 55 68 73 72
45 40 36 32 31 29 28 29 28 26 22 21 22 24 28 24 16 16 15 15 15 15 14 14 17 18 22 22 19 18 19 19 18 17 18 17 18 16 16 16 22 58 68 70 63
41 39 35 33 32 31 29 28 28 26 24 23 22 25 30 19 16 15 15 16 15 16 15 14 15 17 20 22 21 18 21 23 20 18 17 16 15 15 13 17 22 46 57 57 55
36 35 35 36 34 33 32 31 29 27 24 22 21 29 22 16 15 15 13 14 13 14 16 15 15 17 19 20 27 23 23 26 20 20 15 13 21 15 14 18 22 29 34 36 39
36 35 34 34 33 32 30 28 25 23 21 20 26 34 25 15 14 13 12 13 12 14 14 17 17 23 22 22 26 29 27 23 22 22 24 17 21 18 19 20 21 24 27 31 31
34 35 34 31 29 26 25 23 23 20 21 28 32 27 19 19 15 13 12 13 14 18 22 24 29 27 29 29 32 27 25 25 26 24 32 32 30 28 26 24 24 24 24 23 25
34 33 32 28 29 26 32 37 42 31 31 22 19 20 16 14 14 14 13 14 18 21 26 25 29 24 21 21 21 21 28 34 28 25 33 36 40 34 29 24 26 29 26 31 30
30 29 28 26 35 30 32 52 49 44 31 25 16 16 15 15 18 17 13 19 21 23 19 31 26 19 21 24 23 27 29 32 34 29 36 38 37 24 22 22 28 33 34 32 34
27 26 25 24 29 34 40 55 53 49 38 23 17 16 16 14 17 19 16 18 22 22 27 31 21 18 22 27 27 26 30 31 36 37 33 38 34 25 22 25 24 26 28 29 34
24 25 24 23 33 43 44 44 48 56 47 29 23 18 16 15 21 16 16 19 21 21 20 23 18 19 27 25 26 33 25 31 37 42 47 38 46 29 23 22 29 31 30 26 27
25 25 26 25 41 45 47 37 47 53 65 27 20 15 16 18 17 21 22 18 22 26 23 26 18 24 26 24 26 34 35 39 39 46 44 41 43 36 33 25 32 31 30 31 30
35 30 31 36 40 45 40 37 56 71 60 26 20 21 22 24 22 25 32 29 29 33 32 31 19 22 23 25 30 34 41 47 50 52 62 42 45 48 38 32 32 29 33 31 31
40 36 36 42 42 37 37 53 70 70 35 30 26 23 27 27 29 33 40 46 51 34 52 46 37 32 27 35 36 43 58 71 58 75 67 48 47 46 32 28 26 28 27 30 34
46 38 38 46 44 39 48 64 54 50 37 28 27 25 30 27 31 40 39 50 45 48 62 63 56 43 34 33 38 41 52 80 62 85 78 53 54 43 31 36 35 32 34 42 42
48 44 39 48 42 56 64 74 63 53 33 32 32 35 41 38 32 38 48 49 49 48 54 70 55 42 38 40 36 43 60 48 68 75 89 72 54 41 36 44 44 43 47 54 55
51 49 49 44 48 48 71 57 37 31 33 38 39 42 42 48 43 43 47 45 46 52 45 56 73 49 48 39 39 40 41 66 84 83 83 76 71 61 44 52 44 50 54 55 55
58 50 47 48 54 65 65 54 31 27 31 40 44 48 48 48 49 51 52 45 42 42 50 51 66 60 46 49 51 57 64 63 64 82 96 98 83 56 50 53 53 55 56 58 53
58 50 51 54 64 84 56 35 36 40 41 41 46 46 49 49 56 55 54 46 39 44 52 54 70 81 56 50 50 48 63 65 89 82 90 90 76 44 44 51 60 66 64 62 54
76 70 49 46 76 81 46 48 48 40 46 43 44 43 49 53 57 50 52 43 39 44 48 50 72 79 52 46 47 57 57 62 72 83 82 91 76 47 44 61 62 68 68 64 60
64 73 74 79 73 52 49 48 48 42 43 41 43 46 51 56 56 54 57 56 57 47 63 56 68 64 76 51 64 72 66 63 66 93 82 78 64 53 56 71 72 73 70 68 66
74 63 67 78 67 56 53 49 51 49 40 46 54 54 50 60 58 70 64 63 55 61 56 62 74 71 72 68 70 71 74 71 81 79 87 73 73 62 70 76 75 71 72 66 62
74 76 80 77 62 46 63 45 56 46 45 50 61 54 55 61 55 64 64 65 65 59 63 73 82 82 86 78 81 86 77 80 80 79 81 77 71 58 70 75 80 81 71 73 74
69 73 76 84 70 67 68 46 46 50 50 48 57 57 56 56 57 56 62 61 59 66 73 75 89 94 82 93 93 81 76 76 66 57 62 77 64 75 84 83 74 71 74 79 76

GFSSW_925_rhum_018.txt.gz
RH
50 59 68 59 42 37 36 39 31 27 27 24 21 23 21 20 18 14 14 16 17 18 19 18 17 18 16 12 10 12 18 18 12 12 13 14 12 13 17 38 31 53 57 49 66
57 68 58 47 49 39 43 35 28 26 26 20 21 22 20 21 20 17 16 18 15 15 18 20 19 15 14 13 16 17 20 14 13 11 14 15 13 12 22 38 43 44 58 64 69
53 48 47 46 41 43 38 31 26 26 22 20 22 20 22 24 18 15 17 16 13 12 15 17 17 15 19 17 17 18 19 16 16 14 14 18 17 15 34 35 42 36 61 82 78
55 50 45 40 40 38 32 26 26 23 20 22 22 24 23 23 24 16 16 16 15 12 13 16 20 21 24 20 19 18 17 16 15 17 18 17 16 16 18 16 25 41 67 82 84
54 49 42 39 36 32 27 27 24 23 24 22 24 25 23 22 20 17 15 15 15 14 14 17 21 21 23 20 19 18 17 17 17 17 17 16 17 15 18 16 19 53 72 83 81
51 45 38 34 31 29 28 26 26 25 23 24 23 28 26 26 17 16 15 15 15 16 15 16 18 19 24 22 21 19 20 20 19 18 18 18 18 16 16 16 19 59 71 81 82
44 38 34 32 31 31 29 27 26 26 25 20 23 27 22 20 17 14 12 15 13 16 17 15 16 18 22 22 24 22 22 21 21 23 18 18 17 16 17 16 20 49 68 74 76
39 37 36 36 35 31 29 29 28 24 20 20 28 32 22 17 15 12 11 11 12 15 16 17 16 20 21 22 23 23 24 25 20 23 18 14 25 17 14 17 20 26 61 68 67
38 38 36 34 33 31 30 28 24 21 24 23 24 27 22 15 15 13 13 13 14 15 18 17 18 25 24 21 26 30 26 24 25 27 30 24 30 22 21 24 25 24 33 50 49
36 35 33 31 29 29 28 28 24 22 24 23 24 23 18 18 15 14 13 14 16 18 21 23 28 24 30 29 29 27 25 28 28 26 33 36 34 34 32 29 28 27 26 32 31
36 34 31 33 35 38 33 35 33 29 26 21 19 20 16 15 15 15 14 15 18 21 25 29 30 27 22 22 22 22 28 33 31 27 36 38 42 32 27 30 34 32 28 25 27
32 30 28 37 31 34 37 57 49 41 26 22 18 17 15 16 20 19 14 20 22 23 21 31 27 21 26 25 23 26 30 30 33 32 37 40 39 27 29 31 34 38 39 36 34
28 27 25 32 33 33 45 60 56 49 31 23 19 18 17 15 19 22 18 21 22 24 29 32 22 23 24 28 32 31 28 30 35 38 35 38 32 30 22 27 30 31 29 30 34
27 27 25 25 32 42 44 48 51 49 46 30 22 18 16 16 20 19 22 19 22 21 22 26 19 25 29 27 30 36 26 31 38 45 47 39 43 34 35 29 33 29 30 32 31
26 27 26 26 36 48 46 40 50 42 50 25 21 16 19 20 19 28 26 20 30 30 27 27 20 27 32 28 28 37 39 42 40 49 46 46 42 35 36 32 33 35 33 30 31
29 28 31 37 39 48 40 44 51 58 50 27 22 24 24 28 28 29 36 33 31 37 39 36 24 26 26 27 34 36 45 45 54 55 63 47 47 50 43 34 33 33 32 32 34
38 33 32 36 44 39 42 52 65 67 37 31 28 25 28 31 35 37 43 52 54 31 57 48 39 39 32 39 39 47 56 62 59 74 67 50 49 50 38 37 39 44 46 53 54
38 37 45 47 42 42 43 61 51 51 38 30 28 31 32 30 38 45 44 55 49 50 66 66 49 44 38 36 41 44 56 76 51 85 81 56 54 49 36 44 39 45 55 58 60
41 38 44 50 48 53 62 73 63 52 34 32 35 39 39 40 39 44 52 52 51 52 55 73 54 46 42 44 39 44 64 52 73 76 89 73 57 42 46 52 51 58 58 62 64
48 40 52 50 56 40 70 59 39 38 35 38 41 42 43 51 45 46 50 46 47 54 47 57 71 50 48 40 42 45 46 64 85 84 80 74 71 59 57 57 56 61 67 64 59
55 51 50 58 48 63 64 54 34 34 35 41 46 49 50 50 50 53 52 45 43 47 51 51 67 54 45 51 55 59 64 67 70 84 94 97 81 56 57 55 57 67 66 67 61
49 52 55 51 61 82 57 37 38 42 43 45 47 47 50 53 57 55 55 48 43 47 55 57 71 79 53 46 52 54 58 66 84 74 91 92 80 48 53 54 65 68 70 68 65
73 69 48 42 73 81 50 50 48 42 48 44 46 48 52 57 59 54 52 49 51 48 52 52 73 77 44 52 49 62 59 66 75 84 83 89 74 47 50 58 68 72 73 72 69
65 75 73 82 71 55 52 50 51 44 46 49 50 49 53 59 63 59 60 56 59 56 68 60 71 61 69 51 56 71 67 67 71 90 80 77 63 52 52 65 77 78 77 76 76
73 70 69 76 68 59 55 48 52 48 43 52 53 52 53 63 62 70 64 61 54 63 63 63 75 75 72 71 73 76 79 78 85 79 88 68 76 65 66 73 78 76 76 74 70
72 78 82 82 65 50 63 50 56 50 46 53 58 56 54 58 51 65 64 65 61 60 65 75 80 84 91 83 86 94 82 82 83 84 83 80 86 65 70 77 74 78 80 78 85
78 75 78 87 71 64 66 49 50 51 52 50 59 58 55 54 56 54 61 60 60 61 72 76 87 92 85 89 90 74 58 77 70 68 62 70 56 71 77 78 77 80 81 90 80

GFSSW_925_rhum_021.txt.gz
RH
67 61 55 56 62 43 37 30 27 26 26 25 23 21 20 21 19 16 18 18 19 17 20 18 17 18 12 11 11 12 13 14 12 13 14 13 12 13 22 37 31 40 47 49 69
59 60 61 56 59 46 34 29 26 26 25 23 22 21 22 23 23 18 18 17 14 15 16 15 18 14 14 14 16 14 16 15 12 12 14 15 12 12 20 32 39 44 53 68 79
57 52 48 59 45 39 33 28 26 25 24 22 22 24 25 24 20 18 17 16 13 14 15 15 15 16 18 18 18 17 17 16 16 12 15 17 16 15 23 22 25 23 48 70 76
56 53 50 47 38 36 31 27 26 24 22 22 24 26 23 21 27 17 16 16 15 13 14 16 19 20 21 17 18 18 18 16 16 18 17 15 16 16 20 12 17 29 51 68 70
54 51 46 40 37 32 28 27 24 24 20 24 27 25 22 24 20 16 16 15 15 14 15 18 20 22 22 20 20 19 18 17 17 17 16 17 16 15 16 14 18 38 64 65 64
50 46 41 36 32 28 27 25 25 21 24 25 25 25 21 28 18 12 15 13 15 15 16 17 19 22 26 22 22 21 20 20 19 19 18 18 18 17 14 14 23 45 56 63 64
45 40 35 32 30 29 28 28 23 25 24 26 25 26 24 21 15 13 11 12 14 16 18 16 17 19 23 24 25 21 18 19 21 20 18 19 17 15 14 14 17 35 49 62 66
39 37 36 34 32 31 30 26 25 23 22 26 26 22 22 17 14 13 11 13 16 16 17 18 16 23 22 23 20 20 21 20 19 22 22 18 22 16 18 18 16 20 29 52 58
40 39 38 37 35 32 28 26 24 25 26 22 25 22 22 15 15 15 13 14 15 18 18 16 19 25 21 20 19 22 19 23 23 26 26 25 23 21 22 26 24 23 22 34 51
37 37 36 35 31 28 26 26 24 25 24 19 20 21 18 18 16 16 13 16 18 18 20 23 23 23 24 18 21 25 24 27 28 24 29 31 29 25 23 24 26 24 23 24 35
36 36 36 39 35 31 32 34 26 28 24 21 20 20 17 16 16 17 16 16 18 24 27 28 24 26 24 24 24 23 28 30 28 28 31 35 32 23 26 27 30 30 28 24 25
34 31 39 37 40 39 38 52 40 35 24 22 18 18 16 17 21 20 16 20 24 26 25 26 28 23 26 25 24 27 29 26 29 30 35 33 27 24 26 28 30 29 30 30 29
29 28 35 40 36 41 42 58 54 47 29 22 21 19 18 17 24 25 21 24 24 29 30 32 23 24 24 30 33 32 28 31 32 34 35 32 28 28 23 25 25 27 28 29 30
27 27 26 32 32 38 44 48 53 43 44 32 24 18 19 18 23 25 27 21 27 24 27 27 22 28 33 30 32 37 29 36 40 40 36 37 31 31 31 28 30 31 30 28 27
27 27 26 26 35 44 40 40 54 36 47 25 24 16 23 23 22 27 29 28 33 31 29 27 25 32 35 30 31 37 40 43 42 44 42 40 32 32 31 34 35 33 35 37 37
27 33 37 36 38 46 37 47 50 46 43 28 24 26 26 31 34 33 38 34 32 38 38 36 30 30 31 29 35 39 43 42 48 47 49 46 40 43 39 41 39 38 45 49 46
33 33 32 35 44 41 42 49 57 57 37 32 28 29 32 35 38 39 45 50 49 32 55 43 38 38 35 37 38 42 44 46 50 55 51 47 43 48 45 41 42 48 51 52 52
42 38 42 43 43 46 42 57 50 52 40 32 30 36 35 35 41 47 45 51 50 49 59 55 40 42 42 40 42 47 49 60 50 60 58 53 51 48 44 44 47 48 50 51 52
40 38 44 53 53 47 61 68 59 50 35 35 36 38 40 42 40 47 55 52 52 55 53 64 47 44 45 45 40 46 58 51 66 73 74 55 50 44 49 48 48 50 51 52 52
37 44 53 54 58 37 68 57 41 42 37 36 41 41 45 53 47 50 51 47 48 56 49 59 63 49 45 42 42 43 46 56 66 73 67 52 59 45 51 48 51 56 58 56 51
44 62 53 60 38 61 63 55 40 40 40 40 47 52 51 53 52 55 54 48 45 50 51 52 61 46 44 53 55 52 56 62 61 72 82 89 54 49 49 49 49 59 61 59 56
44 67 54 58 57 77 58 41 38 43 44 47 48 50 52 55 60 59 59 50 48 48 56 58 65 64 46 51 51 52 56 56 63 64 77 79 62 43 49 52 55 63 63 59 58
70 69 48 43 71 79 53 52 48 44 50 45 50 52 54 60 63 58 56 55 55 51 55 54 66 57 34 48 45 58 58 61 67 74 75 83 55 41 49 53 61 61 58 56 60
64 79 72 77 69 60 56 52 54 46 50 56 53 52 56 61 65 63 62 58 58 59 72 61 67 52 48 38 49 63 65 64 65 86 66 68 51 44 43 50 60 58 54 59 61
74 73 70 76 65 61 55 49 55 50 47 52 54 52 55 65 65 70 65 58 57 62 65 62 74 71 66 62 68 70 70 68 73 68 79 59 57 50 48 57 59 54 61 62 60
69 79 83 80 62 55 66 52 56 54 48 54 60 56 52 57 48 64 62 64 59 62 67 72 75 84 90 77 76 81 67 70 73 72 74 70 72 52 56 65 64 60 60 65 76
84 69 78 88 68 65 63 55 53 54 56 54 59 59 60 57 55 58 62 68 60 62 71 76 84 87 78 80 79 73 55 67 66 68 63 63 46 62 71 64 59 59 67 79 71

GFSSW_925_rhum_027.txt.gz
RH
64 57 58 50 59 63 47 37 27 26 27 26 24 22 21 21 18 21 14 16 18 16 18 17 15 11 7 6 6 5 7 9 8 8 8 6 7 7 9 11 13 14 19 22 37
59 52 52 56 57 40 32 30 28 27 27 24 23 22 23 23 28 12 16 17 15 16 19 11 9 7 7 7 5 6 6 7 6 6 6 6 6 8 11 10 12 16 17 27 35
50 52 54 51 42 35 31 28 27 27 25 23 23 23 26 24 27 11 15 16 14 16 15 9 6 6 7 6 6 6 8 7 6 6 5 5 6 6 7 9 10 12 16 24 29
50 52 53 48 42 35 31 30 27 26 24 24 24 26 23 40 17 13 14 15 14 18 12 8 7 7 8 8 6 7 6 5 6 7 7 7 6 7 6 8 8 9 14 20 24
50 52 52 48 40 35 30 28 26 25 24 25 28 27 27 24 12 13 14 13 14 12 9 8 7 7 7 6 6 7 7 6 7 8 9 9 8 7 8 7 8 10 15 20 23
51 52 50 45 38 34 29 26 26 24 25 28 28 23 36 16 13 12 12 11 11 9 8 7 7 7 6 7 9 9 10 11 10 11 11 12 10 10 9 8 8 11 14 16 18
50 49 45 40 35 31 27 26 24 24 27 28 27 38 20 14 12 11 11 11 12 12 8 10 8 8 9 13 10 10 12 12 12 12 13 11 10 10 9 9 10 12 12 14 16
45 41 37 35 30 27 26 26 25 27 27 30 26 40 17 14 13 11 10 11 12 13 12 11 11 11 11 11 10 11 11 13 12 12 12 12 14 10 10 11 11 10 12 14 16
40 36 33 30 28 28 27 26 28 27 26 27 29 32 14 12 11 10 11 10 13 14 13 12 11 10 13 13 12 10 12 10 14 12 12 12 12 12 12 12 11 10 10 12 15
40 37 34 31 30 29 29 28 28 28 22 32 20 15 11 11 11 12 12 14 13 13 12 12 10 12 11 10 12 10 9 11 11 13 11 12 12 12 13 13 13 13 12 13 13
39 37 35 34 32 31 28 39 25 27 16 15 12 13 11 11 13 12 13 12 12 13 14 12 13 13 12 12 11 10 10 11 12 13 14 15 14 14 14 13 14 14 15 16 19
38 38 36 33 32 31 42 25 30 22 17 13 14 14 14 13 12 12 12 13 14 13 13 11 15 15 12 12 12 13 15 15 15 15 17 16 15 15 16 17 16 16 17 19 20
37 42 43 45 38 42 35 37 42 32 15 16 14 13 14 12 16 15 12 12 11 12 10 13 16 14 15 15 16 17 18 21 20 17 16 17 17 17 16 16 17 17 18 18 19
32 32 40 39 42 39 34 45 48 46 20 16 15 13 13 13 18 15 16 14 13 12 11 15 15 16 17 19 20 20 20 23 23 21 20 17 19 19 18 20 22 24 25 24 21
29 30 33 35 36 25 41 49 53 45 29 19 16 14 12 16 16 17 15 13 13 16 17 19 18 19 21 23 22 24 25 25 24 24 19 19 17 21 18 23 25 27 28 28 28
36 37 36 39 50 49 50 55 49 39 33 21 16 17 19 18 19 17 16 15 17 15 14 17 17 20 22 22 22 22 26 23 25 23 32 18 21 24 20 22 27 29 30 30 30
35 42 45 46 34 56 59 40 26 35 21 22 20 18 19 22 23 20 22 24 23 25 25 20 22 21 24 23 23 22 25 34 37 36 36 25 25 29 27 26 27 30 32 31 30
35 39 45 62 57 50 45 26 34 30 20 18 18 19 22 21 25 24 22 25 24 22 21 24 35 25 23 26 28 27 28 42 45 37 29 25 23 30 26 27 28 28 29 30 30
39 56 50 68 61 56 28 34 25 20 20 20 19 22 25 24 24 27 28 29 30 29 29 28 29 25 26 25 26 30 35 29 38 50 46 21 28 30 28 30 30 29 29 31 30
36 33 40 48 42 46 31 35 27 23 20 18 23 25 26 26 26 26 28 31 31 28 28 30 36 28 24 25 28 27 28 40 38 69 43 19 21 21 36 33 31 30 31 32 31
34 28 60 56 46 24 35 30 28 25 23 23 25 26 26 30 26 30 32 33 29 30 25 23 29 29 22 27 25 27 32 34 31 37 50 43 26 23 24 24 26 28 29 30 32
37 33 58 59 29 25 34 27 34 28 28 28 26 26 28 30 32 34 35 35 33 30 30 32 30 34 22 25 27 28 30 30 44 40 41 51 42 22 21 25 28 28 30 33 32
30 37 53 54 46 38 35 34 28 30 28 29 34 30 31 32 41 35 37 40 33 34 38 33 36 35 27 32 32 33 28 30 33 46 48 64 42 22 24 28 29 30 29 30 30
32 60 38 37 33 28 34 33 37 34 34 30 33 31 34 36 33 41 42 42 42 38 57 46 33 32 36 27 23 28 26 23 28 51 50 42 31 23 22 25 25 24 27 30 31
32 44 41 48 40 31 30 30 34 36 32 29 33 30 33 42 37 40 37 44 42 61 42 39 47 32 32 26 24 25 28 28 31 30 47 38 33 28 26 28 28 28 32 32 32
33 43 42 44 35 34 43 33 31 33 30 32 32 30 29 41 29 37 32 31 33 39 39 38 52 56 52 31 25 29 28 28 28 30 32 33 34 28 27 25 28 32 32 35 40
47 48 39 63 40 39 38 33 30 34 39 27 30 30 42 33 32 34 35 33 32 36 44 49 60 59 76 52 55 75 43 28 29 29 32 44 34 26 29 34 40 45 47 52 64

GFSSW_925_rhum_030.txt.gz
RH
64 59 56 56 60 52 33 28 27 26 26 26 26 24 23 23 20 25 22 16 16 17 15 16 15 13 10 8 6 6 10 12 11 12 10 7 8 7 8 10 11 17 18 29 37
57 54 51 55 55 42 34 29 27 27 26 26 24 23 24 30 35 23 16 15 14 14 17 15 12 10 9 7 6 7 9 8 6 6 6 6 6 8 11 11 14 18 26 33 34
52 55 48 50 50 43 36 31 29 28 27 25 23 23 26 33 36 14 14 15 14 14 18 13 7 7 8 6 6 6 9 6 6 6 5 6 6 7 8 10 13 15 25 29 31
46 49 49 49 48 44 38 31 28 27 26 24 23 26 31 43 21 13 12 13 14 13 19 8 6 8 7 7 6 7 5 4 6 6 5 6 5 6 6 9 8 12 15 26 28
46 48 51 51 49 41 35 30 27 26 24 23 25 30 35 30 14 11 11 11 12 14 13 8 8 7 7 6 6 6 5 6 6 7 8 7 7 6 7 8 8 11 15 21 23
47 50 50 51 47 38 33 28 26 24 23 24 28 35 50 24 11 10 10 10 9 9 7 7 7 6 5 6 7 7 7 8 8 9 9 9 9 9 8 8 8 11 15 19 22
49 51 50 47 42 36 30 27 25 23 24 27 30 46 29 17 10 10 9 10 10 10 9 8 7 6 7 11 8 8 11 10 10 11 12 10 11 10 9 8 9 10 11 15 17
49 47 45 42 36 33 27 26 24 25 27 30 33 50 27 13 12 10 8 8 9 10 10 9 9 10 10 9 8 9 10 14 11 10 11 12 15 8 9 10 10 10 12 12 16
45 42 39 36 32 28 26 25 26 27 26 30 34 39 20 11 11 9 9 9 10 11 12 10 10 9 11 12 12 11 14 14 14 10 11 12 13 11 11 12 11 10 11 13 14
42 38 36 31 28 27 27 28 28 28 26 41 30 21 11 10 10 10 10 12 10 11 10 11 12 13 12 13 18 13 9 9 11 12 10 11 11 12 12 11 12 11 10 12 13
42 40 36 33 31 29 30 33 30 31 23 15 12 13 9 8 10 9 11 11 12 13 16 12 14 15 12 11 9 9 9 9 9 12 12 11 12 13 13 12 14 14 15 21 28
41 39 37 35 33 32 37 33 28 23 19 12 12 12 11 11 11 10 11 13 14 16 13 11 14 14 11 11 10 10 12 13 13 13 14 14 14 14 15 16 16 18 22 24 27
38 40 38 34 33 34 40 35 35 35 16 14 12 11 13 12 13 12 12 11 12 14 10 17 16 12 12 13 14 13 15 21 19 15 14 15 16 17 16 16 17 19 20 21 25
39 37 44 38 43 36 32 35 40 41 20 15 14 11 12 12 15 12 12 13 11 10 9 16 13 13 14 16 18 18 20 21 19 20 21 15 22 19 18 20 21 24 25 23 24
32 31 42 38 55 28 37 40 43 38 40 15 13 11 10 15 14 14 11 11 13 13 14 17 16 17 18 23 19 22 21 21 22 24 22 17 24 18 18 23 27 28 28 29 29
38 32 34 36 53 43 45 47 42 45 45 18 14 16 15 15 16 14 13 13 14 12 14 16 15 19 21 19 20 19 23 22 23 24 40 23 19 24 21 22 28 29 29 30 31
41 40 46 48 42 49 54 42 30 41 16 19 17 16 18 19 18 17 18 20 22 23 24 19 20 20 19 22 21 21 24 45 52 49 49 24 24 30 26 23 26 31 32 32 32
36 39 51 56 53 44 48 33 42 26 17 13 16 17 21 19 21 20 20 23 21 24 20 24 36 23 20 24 26 25 25 53 55 64 50 24 25 35 26 26 26 27 29 30 32
37 57 52 63 58 56 39 40 27 18 17 17 17 20 23 22 22 22 25 26 26 28 30 25 30 22 22 21 22 26 37 25 33 45 61 28 31 28 27 29 28 28 28 30 30
41 38 38 36 48 56 44 39 26 20 15 15 21 19 23 21 24 24 25 26 27 25 22 25 34 23 19 20 26 24 21 39 46 69 51 25 25 41 33 32 29 28 30 30 28
48 32 61 37 42 34 40 32 25 19 19 18 19 21 21 23 22 25 28 29 25 25 21 22 29 28 20 26 23 25 27 28 27 36 56 57 33 22 24 25 28 27 25 28 32
41 40 57 40 33 30 36 25 37 24 25 24 22 20 23 24 26 29 31 35 28 25 29 27 28 41 22 20 22 24 28 28 62 47 57 60 48 20 21 25 26 28 29 30 30
33 46 54 50 47 40 31 27 23 24 22 25 28 25 26 28 37 30 40 34 28 35 43 34 37 50 34 32 29 24 22 23 29 52 58 72 46 19 22 37 32 31 32 34 34
41 63 36 40 38 31 33 33 34 29 28 25 27 26 29 33 29 36 43 40 37 39 51 46 31 31 42 27 22 24 21 20 25 61 54 52 38 28 26 34 30 28 31 30 30
40 41 30 49 41 30 26 26 32 36 28 26 29 27 30 36 34 36 37 43 38 55 38 37 46 32 30 24 23 22 21 21 24 29 44 38 31 28 31 29 28 39 39 37 41
44 40 36 37 31 32 40 29 28 26 30 30 29 27 28 38 30 35 32 32 34 36 35 36 56 60 57 27 27 30 25 28 25 27 26 30 33 27 25 35 41 42 47 45 57
39 42 39 52 38 38 39 30 27 29 35 26 25 29 47 36 38 34 33 29 27 36 40 47 67 71 78 60 63 80 52 29 27 27 31 44 32 27 39 46 47 48 52 57 58

GFSSW_925_rhum_033.txt.gz
RH
47 46 51 50 47 44 38 31 29 27 27 24 25 25 25 26 23 35 36 21 20 18 17 15 17 18 18 18 15 10 15 15 14 15 13 9 10 10 12 16 28 27 40 44 38
51 54 52 50 48 46 41 35 30 28 27 25 25 25 26 26 32 40 20 20 15 15 15 18 19 17 17 13 13 12 15 10 8 10 9 8 10 10 14 18 36 46 41 39 35
53 67 51 48 47 47 43 37 30 29 26 26 25 26 25 34 59 24 14 14 14 12 13 19 16 13 14 11 8 8 10 8 9 8 7 10 10 11 14 20 30 49 45 40 37
51 51 47 49 49 48 43 36 30 27 26 26 25 26 29 40 36 13 12 12 12 12 17 20 17 10 11 12 7 7 7 8 9 8 6 7 6 7 13 15 18 38 38 39 41
45 45 47 49 50 47 41 34 29 26 26 25 25 28 41 56 32 11 11 11 12 13 21 22 14 11 13 8 8 7 8 8 8 11 10 8 7 8 12 12 16 31 33 37 37
47 48 49 50 49 46 38 32 28 26 24 24 28 34 50 38 13 10 10 10 12 14 16 17 12 9 7 10 9 8 8 9 8 11 9 10 10 10 11 10 18 20 33 33 34
47 48 48 48 46 41 36 30 27 25 24 26 32 40 53 39 14 10 9 9 10 10 13 10 10 14 12 13 9 11 13 12 12 12 12 11 14 12 11 10 14 17 25 28 28
47 47 46 44 41 36 33 28 25 24 25 30 37 49 48 15 13 10 9 9 9 10 12 11 10 15 14 10 10 11 15 19 14 14 14 14 21 12 12 11 12 15 14 21 28
46 44 40 39 36 33 29 26 24 25 29 30 38 51 35 12 11 9 8 11 10 10 11 10 10 13 12 15 19 15 20 20 16 13 15 15 19 15 14 14 13 14 16 17 28
43 38 36 33 31 29 27 26 28 29 30 34 41 40 29 13 10 10 10 12 12 12 12 13 17 19 20 22 28 17 18 18 20 12 11 13 17 16 13 14 16 23 31 41 44
42 37 34 31 29 30 30 32 42 44 44 35 23 26 11 9 8 10 10 12 13 14 21 17 23 24 15 13 11 11 14 17 17 14 13 15 18 18 20 22 33 37 39 42 45
42 40 36 35 34 33 39 56 36 34 34 26 14 13 11 11 13 13 12 15 15 23 20 19 24 16 12 12 13 13 17 25 18 16 15 16 18 22 22 25 31 34 39 42 46
40 40 37 36 35 34 33 42 36 35 28 16 14 13 13 14 16 14 13 17 18 21 22 26 17 11 14 22 23 25 28 26 23 20 18 19 22 25 23 25 25 30 35 39 47
43 42 36 34 36 26 42 36 38 43 33 20 16 13 13 14 17 12 11 15 15 20 21 20 15 16 17 25 24 31 27 26 25 28 34 21 35 28 27 28 31 36 38 42 44
35 40 42 40 42 50 40 40 34 42 61 19 17 11 12 16 17 14 11 16 20 16 21 20 19 25 29 25 22 28 23 26 27 32 32 33 32 30 27 40 41 42 42 45 45
39 34 41 41 48 46 40 37 41 67 49 22 17 19 16 17 17 14 14 14 16 16 21 20 21 23 25 21 21 22 27 32 34 38 55 42 37 35 31 38 41 41 42 42 43
39 35 43 55 61 47 40 55 58 74 23 21 21 20 22 20 20 20 20 26 33 29 29 22 25 24 20 28 24 28 39 65 58 73 62 48 52 59 42 34 37 43 45 44 44
41 40 56 56 51 42 48 59 56 30 22 17 20 21 27 21 23 22 26 33 31 37 34 40 40 28 24 27 29 32 32 77 60 81 65 36 52 48 37 37 40 41 46 42 42
38 44 57 39 35 38 70 73 51 26 19 21 20 27 26 24 25 28 34 34 31 33 41 44 38 26 25 23 27 30 48 27 42 63 75 51 43 38 37 41 34 36 36 43 42
48 46 52 38 32 53 72 66 32 23 17 19 26 25 32 28 29 31 33 32 31 30 30 28 42 24 23 21 28 30 25 49 66 67 62 49 48 61 43 40 37 37 39 38 36
51 56 59 49 31 68 70 55 28 21 31 32 26 22 28 29 29 33 38 33 34 26 29 36 44 32 21 29 33 36 39 38 42 62 76 82 53 35 40 42 39 38 38 40 39
61 61 58 47 56 64 54 36 31 26 26 27 28 23 28 26 35 36 47 42 30 33 36 31 39 48 33 25 25 26 33 38 77 58 69 83 60 33 48 46 44 40 38 39 40
68 79 58 62 69 64 43 30 25 29 27 26 33 33 31 37 43 51 52 43 44 48 52 43 43 68 46 40 34 27 24 24 41 70 64 81 65 29 38 41 45 42 33 43 45
80 78 72 71 64 51 43 37 35 35 32 28 31 28 32 38 37 52 54 45 46 42 50 50 40 48 63 36 29 28 27 24 31 82 69 68 53 39 57 57 52 55 52 56 59
76 68 56 70 54 55 42 40 41 41 31 29 31 33 36 40 44 54 55 51 46 48 43 50 56 53 50 37 32 30 33 31 32 34 49 48 41 42 47 56 56 54 51 63 66
75 68 52 57 39 43 52 36 43 37 38 36 34 34 41 44 49 53 51 48 50 44 42 47 72 58 52 52 50 43 43 44 35 32 37 42 44 51 52 50 58 60 62 65 65
44 45 73 68 47 55 52 34 34 42 36 36 34 57 65 52 49 51 48 45 47 47 54 68 76 86 85 77 76 74 50 37 35 37 38 48 49 54 63 67 71 73 71 72 69

GFSSW_925_rhum_036.txt.gz
RH
49 47 48 45 45 44 43 41 35 32 27 26 25 28 26 25 23 31 40 16 18 19 18 16 18 20 21 21 15 12 19 20 16 18 15 11 14 13 22 38 40 37 49 44 42
49 49 51 47 46 45 44 46 36 32 28 27 28 27 25 25 34 47 14 16 22 17 18 18 17 19 21 17 17 17 20 16 12 13 11 9 13 14 36 53 58 56 48 43 38
52 49 51 47 45 47 47 47 39 32 30 29 29 26 25 30 60 31 17 15 18 17 17 18 16 18 20 14 12 12 11 9 10 8 10 11 13 12 37 54 54 56 52 43 37
48 46 45 44 46 48 49 46 36 32 30 30 28 25 27 39 36 14 12 13 15 16 18 23 27 24 14 12 10 9 8 9 10 8 9 10 10 11 18 34 46 44 44 45 43
46 45 45 45 47 48 47 43 36 31 29 30 26 27 40 55 38 13 11 12 14 16 21 24 22 14 12 9 8 10 8 9 12 11 8 8 9 12 14 32 43 43 42 43 39
47 47 47 46 47 47 46 41 33 29 30 29 27 33 49 41 15 13 12 11 14 16 17 22 19 14 14 11 8 8 9 8 10 11 11 12 12 10 12 34 45 43 44 42 39
48 49 47 47 47 45 43 37 32 29 30 27 31 42 63 40 15 13 11 10 10 12 13 13 13 14 14 11 10 11 11 11 12 11 11 13 14 13 12 34 43 42 42 41 39
48 48 45 46 44 43 40 33 29 28 28 29 36 54 44 11 14 14 10 9 9 10 11 10 9 13 12 10 12 15 17 19 14 14 13 14 19 13 12 21 34 39 38 38 38
47 44 44 42 41 38 33 29 27 28 30 34 43 58 28 17 12 10 9 11 11 10 11 10 12 15 15 18 21 19 20 20 16 16 16 15 20 16 14 15 18 29 48 48 54
44 41 38 39 36 33 29 28 30 33 38 45 47 42 30 25 10 10 10 11 14 14 16 15 24 24 24 24 26 23 18 22 20 15 14 17 19 17 18 39 48 54 54 54 55
43 38 37 34 31 29 30 34 44 46 48 28 29 32 18 13 10 10 10 12 14 16 21 21 24 24 16 18 16 13 19 23 17 14 14 19 21 22 40 46 52 54 57 59 60
43 40 37 32 31 32 40 56 36 36 31 28 32 28 22 10 14 13 12 16 16 22 21 24 23 17 14 20 22 20 26 25 20 18 15 22 23 27 34 44 49 54 58 60 60
42 40 38 34 34 35 38 43 36 43 47 18 22 17 13 14 16 15 14 17 19 20 22 28 19 12 22 27 29 34 31 27 24 22 21 24 26 34 33 39 43 49 54 55 57
43 40 38 38 38 40 33 34 39 44 36 21 16 14 13 15 17 13 12 15 19 22 22 19 16 22 28 27 26 37 27 26 26 30 29 24 38 30 34 42 44 50 58 60 58
38 42 39 40 45 59 46 41 40 44 45 19 17 12 12 17 18 15 12 16 18 16 22 22 28 30 30 25 22 30 23 26 27 34 36 38 38 35 43 49 49 53 56 58 61
39 43 46 43 50 52 44 36 44 65 42 23 20 19 16 18 18 15 14 16 18 22 22 23 22 24 25 24 22 24 29 42 40 45 55 41 45 42 48 48 50 50 52 55 58
42 39 44 57 59 45 31 45 48 70 24 24 22 19 22 23 21 19 26 34 40 31 29 28 29 26 24 32 29 32 48 64 60 74 67 46 60 56 48 40 46 53 52 50 50
45 48 64 60 52 37 43 48 56 42 29 20 24 27 27 24 24 26 30 38 33 40 36 42 45 30 26 28 30 31 46 74 58 74 58 47 64 56 46 46 47 47 50 45 44
44 53 54 41 35 31 62 71 58 35 23 24 24 31 29 25 26 33 34 36 33 34 39 46 38 28 24 23 28 30 48 34 56 64 70 57 49 40 44 42 42 48 48 54 46
49 56 56 40 33 43 72 72 45 27 25 23 28 29 33 31 30 36 37 36 32 29 34 32 44 29 24 24 29 30 28 48 65 63 61 55 57 66 53 49 43 46 49 46 40
58 55 56 47 37 63 68 63 32 28 31 28 30 27 31 32 34 41 43 40 36 32 32 35 47 36 31 31 34 38 41 43 49 64 76 82 58 45 53 50 49 50 46 49 47
67 60 65 57 41 76 56 38 29 28 28 31 30 37 30 31 42 54 49 41 46 42 34 37 48 47 34 26 27 28 36 48 75 49 75 83 62 45 51 45 44 43 48 52 53
73 84 69 64 46 60 45 35 30 28 28 28 32 35 35 40 57 55 52 50 45 47 47 40 47 65 53 46 38 30 29 38 60 70 63 76 62 37 45 58 55 61 62 64 61
83 79 74 83 69 50 43 38 40 37 32 32 32 33 38 43 52 57 54 50 43 39 54 49 50 50 64 45 37 28 28 29 47 79 68 70 53 47 62 67 64 68 72 72 70
86 66 55 59 55 57 47 41 42 40 33 32 34 34 40 46 51 63 58 51 46 46 41 52 58 53 48 45 36 33 34 35 34 38 54 48 59 67 66 68 66 65 68 66 65
81 77 68 57 41 47 60 48 47 40 36 36 36 44 42 51 50 63 57 55 53 42 46 60 71 52 44 63 60 41 42 47 44 34 41 60 73 59 61 66 71 71 70 73 70
61 62 71 77 48 59 59 43 48 44 38 49 53 62 63 53 58 60 56 53 52 49 65 70 78 74 54 83 65 68 49 38 39 46 44 53 65 67 73 75 79 80 76 76 74

GFSSW_925_rhum_039.txt.gz
RH
52 49 47 46 51 42 46 46 46 39 32 30 26 24 26 26 24 31 44 15 18 19 19 18 20 22 23 22 17 14 20 21 54 37 28 24 17 20 38 52 46 43 47 50 72
52 50 48 51 46 44 45 48 47 43 34 31 26 26 27 27 36 51 11 14 15 19 20 19 18 20 23 20 19 20 23 20 30 37 34 14 30 31 49 58 64 61 51 61 66
51 50 48 43 47 44 46 47 50 45 35 30 26 27 28 34 60 27 16 16 15 20 20 19 18 19 21 17 16 15 13 12 12 24 18 13 18 26 58 63 58 60 53 54 57
51 50 47 42 45 44 46 47 49 42 35 30 27 28 31 49 28 16 13 13 16 20 19 20 26 24 23 18 14 10 9 10 10 11 12 14 14 35 33 54 51 47 44 47 49
51 49 46 44 46 47 48 50 48 40 34 29 28 30 46 58 40 16 16 14 16 18 20 26 27 22 14 12 9 9 9 12 12 10 9 10 12 15 20 53 50 46 41 43 44
49 48 47 46 47 49 49 50 43 37 32 29 29 40 58 39 14 18 16 15 16 20 21 23 20 19 14 10 9 9 10 11 12 12 11 12 12 14 24 53 52 48 45 41 39
50 48 47 47 47 50 49 45 40 34 30 28 34 51 65 36 14 13 14 12 12 16 18 16 17 17 15 11 10 11 12 12 12 11 11 14 14 18 30 52 52 49 47 45 39
49 47 47 47 48 49 46 42 36 32 30 31 44 65 50 14 16 15 14 10 11 11 13 11 12 14 12 12 15 15 18 19 14 13 15 14 18 13 38 54 57 53 48 47 58
46 47 46 46 47 45 41 36 32 31 31 41 56 67 29 14 16 12 10 11 12 12 12 11 14 18 18 19 20 22 22 19 17 16 16 16 19 16 22 46 36 56 57 61 65
45 46 44 44 43 40 36 31 31 35 42 52 55 46 27 20 13 10 10 11 14 15 16 19 25 24 25 21 22 19 19 20 20 18 16 18 20 27 26 44 64 68 68 68 68
46 45 42 40 37 36 32 36 49 51 57 29 28 31 27 16 10 10 10 13 16 21 24 24 24 24 17 17 17 19 18 23 18 16 16 19 28 41 57 62 70 72 71 70 70
46 45 39 36 33 32 40 52 34 39 37 38 38 34 26 21 16 13 13 16 18 24 21 26 24 17 21 25 22 25 24 23 21 23 20 28 38 43 47 56 64 68 71 71 70
47 44 39 34 33 39 41 43 40 40 49 28 24 24 22 16 16 16 15 18 19 20 22 26 20 20 24 30 32 36 30 27 24 25 24 29 36 45 47 53 57 62 64 63 66
44 43 42 38 42 38 33 30 46 45 40 23 18 16 14 16 17 14 13 16 20 20 24 20 26 25 27 27 31 35 28 26 26 27 26 27 47 42 42 51 59 64 69 66 65
46 45 40 39 50 62 44 49 46 39 52 19 18 13 14 18 17 14 13 17 19 20 21 23 29 29 29 26 25 31 26 26 28 37 38 39 41 42 51 54 57 60 65 64 62
42 44 40 43 48 49 46 44 39 58 38 21 20 17 18 19 18 16 18 24 21 26 26 26 24 25 26 25 24 25 34 46 52 50 56 44 49 48 59 54 57 56 61 63 62
46 46 45 52 63 50 43 36 44 71 26 26 25 19 21 23 22 20 33 38 35 31 32 32 32 29 26 29 28 36 48 60 60 70 68 51 60 57 49 49 54 61 63 63 63
46 45 47 59 58 44 38 41 50 45 30 23 24 25 28 26 29 29 34 40 35 36 40 46 45 31 27 28 31 35 46 71 57 73 52 52 66 59 50 51 53 54 56 56 56
50 51 64 52 47 44 51 52 62 48 24 27 29 32 31 27 32 35 37 38 33 34 40 44 38 28 24 26 28 30 48 38 67 68 69 63 51 46 49 55 53 52 51 51 51
51 66 59 47 44 42 61 60 56 34 26 26 33 32 35 31 34 39 39 38 32 34 34 39 44 30 24 25 27 29 32 50 65 60 57 59 60 67 58 60 50 52 54 54 50
57 54 62 52 44 54 57 65 50 28 30 24 30 33 33 35 38 44 44 41 39 35 34 37 44 35 32 32 35 38 41 50 56 67 76 81 62 44 55 52 52 53 55 61 64
62 53 73 62 44 77 62 49 36 28 31 33 36 33 36 35 52 49 50 44 51 41 33 40 50 50 34 33 32 32 38 47 63 48 80 82 61 48 56 53 54 59 63 62 60
75 88 74 56 50 66 48 39 34 29 31 31 33 36 38 52 57 56 53 49 42 45 44 39 50 64 46 46 36 33 32 57 60 69 64 71 59 51 62 67 66 72 71 72 70
79 83 75 85 60 49 37 38 40 37 34 34 34 38 42 53 60 61 56 51 40 39 53 48 58 49 58 47 41 31 30 41 49 78 67 67 49 70 70 74 76 79 79 76 70
84 67 60 67 71 66 44 41 42 39 34 34 34 36 43 52 57 66 59 52 46 46 47 49 57 53 54 54 38 33 33 36 37 42 50 43 60 62 75 76 77 78 76 71 68
89 78 73 54 50 58 58 50 45 41 36 37 41 50 40 50 50 64 59 52 39 44 54 65 69 50 51 66 62 43 38 44 48 41 46 63 75 66 68 72 76 76 73 71 69
68 75 68 79 61 58 66 48 49 44 52 51 52 58 57 55 56 61 56 61 54 53 71 70 76 62 47 81 54 47 47 47 41 45 47 78 64 73 76 78 83 80 72 71 71

GFSSW_925_rhum_042.txt.gz
RH
56 54 52 52 48 46 45 44 45 46 47 37 30 28 27 29 27 37 55 13 18 18 18 20 21 21 23 23 18 16 20 48 53 49 40 25 44 30 44 54 52 51 66 71 86
55 51 52 60 51 46 49 44 45 49 45 36 31 29 30 33 42 58 9 12 14 17 21 20 20 24 26 21 20 21 24 25 40 38 39 31 23 38 52 59 62 62 74 82 90
53 51 54 52 47 44 51 44 48 48 44 39 31 29 32 40 63 27 18 18 15 18 22 19 19 21 22 19 17 18 19 17 26 33 21 28 31 34 60 60 62 62 80 79 82
51 53 55 51 46 46 46 46 50 48 44 34 31 31 34 55 27 17 17 14 18 22 22 20 25 26 24 20 16 13 13 13 21 35 30 19 21 53 43 42 52 55 69 70 70
53 52 53 50 46 49 48 50 50 48 39 34 33 34 47 59 42 18 17 16 18 25 22 28 31 25 18 16 12 10 10 13 12 17 14 15 15 42 24 57 52 53 61 63 58
56 53 52 48 48 51 51 50 50 45 38 35 37 44 61 40 15 19 17 19 17 20 23 25 26 23 18 11 9 9 12 14 12 10 11 14 15 15 32 61 56 50 57 56 52
56 53 52 47 49 52 50 49 47 42 36 35 40 57 71 40 16 15 17 14 16 17 22 21 21 18 16 12 10 12 14 14 14 12 14 14 14 17 46 60 60 51 49 48 45
52 52 50 47 50 50 49 47 43 38 35 36 48 69 61 16 14 16 16 13 12 14 18 14 17 17 13 12 17 16 18 16 14 13 16 12 17 14 63 63 67 60 57 62 66
51 50 49 46 49 48 47 44 39 35 37 47 60 73 42 14 18 12 11 11 14 13 14 14 16 18 16 20 21 22 22 20 17 16 16 15 18 22 57 64 58 57 65 68 71
51 48 48 46 47 45 44 39 38 41 46 63 62 54 28 18 18 11 11 12 15 16 17 20 26 24 26 21 24 20 19 19 19 17 17 19 31 54 53 51 65 74 78 78 80
50 48 47 44 44 42 40 47 57 53 66 40 32 29 28 21 13 10 11 14 17 22 24 24 25 23 18 18 17 18 18 19 20 18 20 35 49 62 68 72 79 82 84 82 79
48 49 46 42 40 41 47 59 35 36 46 45 41 38 29 22 20 14 13 17 20 24 22 28 25 19 26 22 26 24 25 24 23 25 24 44 54 57 60 69 76 82 82 80 78
47 48 45 42 39 50 51 45 47 44 53 32 35 27 19 21 19 16 16 18 20 21 26 28 21 22 28 32 33 35 29 28 27 25 29 34 40 55 58 65 68 71 70 70 77
47 47 47 42 53 40 39 29 50 45 38 25 22 19 16 17 18 14 14 17 21 24 23 24 28 26 28 29 32 32 28 27 29 27 33 30 41 48 55 65 68 69 73 73 74
45 46 48 43 54 57 38 51 55 40 46 21 19 14 16 18 16 15 18 18 20 24 21 26 28 29 31 28 26 31 31 32 34 42 38 42 43 46 57 66 68 68 69 69 70
44 48 51 55 54 43 53 48 41 57 60 23 19 18 20 20 19 17 25 26 21 30 31 30 26 27 27 30 28 30 41 49 55 53 57 48 54 52 66 60 63 62 66 68 68
45 47 50 44 63 59 50 37 48 57 29 27 24 20 23 24 25 27 36 40 31 35 38 37 34 30 28 30 30 41 47 63 62 67 68 52 59 54 47 53 59 66 68 68 68
46 50 51 50 68 62 45 36 37 40 42 23 24 26 27 27 33 34 36 41 36 34 44 47 45 31 28 29 34 40 44 71 58 77 58 53 65 58 55 53 58 60 63 65 66
56 64 70 52 66 61 46 46 43 51 29 30 29 33 33 29 34 38 39 39 35 35 40 45 39 29 26 31 29 38 49 42 72 68 70 64 54 51 60 61 62 62 62 64 62
61 64 70 64 59 48 50 45 43 48 30 27 32 34 37 33 37 41 40 40 33 36 35 41 46 31 26 27 32 28 39 53 64 55 48 60 61 69 66 67 62 60 64 62 60
72 65 70 69 50 52 52 49 51 44 35 25 34 36 35 35 41 45 44 41 39 38 34 40 43 36 32 34 38 40 44 55 62 67 74 79 62 51 62 62 63 60 58 62 71
63 60 81 61 47 77 63 52 41 31 31 35 35 31 36 39 50 48 47 43 52 43 34 42 50 49 34 31 37 35 40 45 60 49 80 81 67 55 57 56 57 65 70 70 68
83 95 76 40 57 67 50 37 37 32 34 34 38 37 43 55 56 55 54 49 42 41 43 42 50 60 46 39 36 36 40 58 59 69 69 72 53 56 64 72 74 78 77 78 72
83 91 81 80 59 49 38 37 40 37 37 37 41 41 49 58 62 63 59 50 40 41 59 51 56 48 54 38 43 35 33 50 50 76 65 65 45 64 69 76 83 84 82 76 72
82 74 67 78 77 48 34 40 44 40 36 37 39 40 48 57 60 65 59 53 43 49 53 47 55 52 58 57 42 33 35 42 42 44 47 42 59 49 71 82 86 84 80 73 68
90 74 67 61 71 57 54 51 46 42 42 39 42 52 44 54 48 66 60 51 34 50 58 63 67 49 55 66 63 48 42 43 42 41 50 49 56 64 73 79 86 84 78 71 66
80 72 63 79 72 66 70 55 49 49 55 52 49 54 49 50 58 66 63 66 54 58 72 66 74 66 64 73 50 50 48 49 50 49 52 64 55 79 80 82 87 85 77 71 69

GFSSW_925_rhum_045.txt.gz
RH
57 54 52 50 52 50 44 48 49 50 46 46 36 32 29 29 27 36 48 16 18 15 16 20 21 21 24 22 18 16 18 40 41 38 44 40 42 38 43 49 52 54 67 76 100
57 55 51 53 52 48 45 45 54 48 49 46 37 32 31 32 45 62 12 14 13 18 21 20 21 25 24 22 21 18 18 28 34 37 56 51 38 40 50 53 53 67 84 94 98
58 55 51 55 52 48 46 46 47 48 46 47 37 31 33 39 62 25 19 18 18 18 21 19 19 21 23 19 19 18 18 18 31 29 37 42 31 43 50 53 48 62 86 87 90
58 56 52 55 52 49 48 47 46 48 48 44 37 34 35 58 26 17 17 16 21 22 22 23 22 25 24 20 17 16 14 18 28 30 24 28 26 47 43 37 45 61 74 82 80
57 54 54 55 53 50 50 49 48 48 48 43 40 37 49 57 42 18 20 17 24 24 23 24 27 26 24 20 14 14 12 12 12 22 17 19 28 38 35 51 52 68 72 73 70
57 53 55 54 51 50 50 51 48 48 47 40 40 42 63 42 16 18 20 24 22 26 25 26 24 24 20 14 11 13 14 13 15 19 15 16 18 25 34 50 57 66 66 64 60
58 54 53 54 50 52 50 49 48 48 41 39 41 60 70 41 18 20 19 20 19 19 24 21 22 19 19 13 12 14 15 15 14 14 14 14 16 17 48 48 54 61 60 56 50
58 56 54 53 49 51 49 47 49 44 38 42 49 69 55 16 17 16 17 16 16 20 18 17 20 22 16 15 18 16 17 17 15 15 16 14 18 20 59 51 52 52 51 50 53
59 57 55 51 49 50 46 46 46 40 39 56 66 74 44 16 18 14 12 11 14 17 18 17 18 20 16 19 19 20 18 19 18 17 16 15 19 35 50 59 59 55 55 55 58
58 57 54 49 50 50 46 46 42 42 51 70 68 60 30 19 19 13 11 12 16 17 20 19 23 21 20 17 22 22 21 21 20 18 20 22 35 45 51 55 60 62 62 62 64
58 58 53 50 51 47 44 52 57 58 74 42 34 37 28 22 17 11 11 14 17 23 24 26 21 20 18 18 16 19 19 19 20 20 32 40 46 54 58 60 65 66 68 69 72
60 57 53 51 49 45 48 61 41 36 50 50 46 41 33 26 22 14 14 16 20 24 24 24 24 20 26 21 22 22 24 26 26 27 29 42 52 57 58 67 66 69 70 70 72
61 58 54 53 46 48 52 44 48 47 60 36 43 35 22 24 21 17 16 19 21 23 26 29 22 24 29 30 30 32 29 28 26 27 30 33 36 50 62 66 68 68 66 66 64
62 58 56 49 45 43 46 27 33 50 41 26 27 23 20 19 18 15 16 18 23 26 24 29 29 26 29 32 30 35 29 29 27 24 28 31 26 41 58 68 69 68 65 63 63
62 57 58 42 56 54 36 40 62 39 48 22 21 15 18 19 17 16 22 18 24 26 24 30 29 30 32 30 28 35 33 34 34 36 32 39 29 33 58 70 69 65 63 62 61
62 56 66 61 60 43 61 58 43 54 58 25 21 20 22 21 20 19 26 25 24 34 32 33 28 29 29 34 32 39 38 42 45 43 45 46 44 40 51 54 63 60 60 60 59
57 55 67 52 62 65 63 43 49 55 30 27 24 22 25 25 28 31 37 39 31 38 41 36 34 30 29 32 33 35 39 46 47 53 45 49 53 41 43 46 52 56 56 57 55
52 56 61 50 53 81 44 39 45 40 44 24 25 27 30 30 36 36 37 40 37 35 40 41 37 31 29 31 35 41 37 58 54 59 52 48 53 42 47 47 47 49 50 53 57
52 68 66 47 48 63 49 46 49 41 37 31 29 34 35 32 35 40 42 39 37 36 37 44 39 30 29 34 31 43 45 40 61 65 59 47 47 42 52 56 52 50 53 55 55
61 71 66 58 70 52 50 50 34 44 32 28 30 36 41 38 39 42 40 41 36 37 37 43 46 32 28 30 35 33 39 49 51 57 42 41 50 41 56 55 57 54 53 54 55
66 81 69 77 71 53 54 49 46 47 37 30 37 38 38 40 43 45 44 42 40 38 37 40 44 38 33 33 39 39 44 53 50 52 44 48 31 47 48 50 54 50 53 57 61
72 67 90 70 53 69 56 44 43 35 37 39 33 34 38 42 49 49 48 44 51 44 38 42 49 49 36 33 36 36 40 45 49 47 68 60 40 50 55 51 53 54 61 61 56
71 91 86 42 66 62 49 40 38 34 35 37 41 38 47 56 53 54 55 50 42 40 47 44 49 53 40 34 36 39 43 46 50 58 61 71 33 52 59 61 58 61 63 61 57
89 89 83 69 60 52 44 38 37 40 39 39 47 47 55 57 61 64 60 50 42 46 64 49 50 46 46 37 43 41 45 46 44 58 50 47 34 44 59 65 67 66 64 60 59
80 80 73 82 65 49 35 45 41 42 37 38 43 45 53 61 60 65 60 52 44 62 58 47 48 50 57 56 45 36 37 50 43 42 47 38 42 34 43 58 65 65 65 64 59
86 74 67 69 68 47 48 52 47 46 44 38 50 51 46 56 49 66 58 52 39 56 60 58 63 53 60 61 56 48 41 40 43 39 41 42 40 34 54 61 71 71 66 63 58
90 64 58 78 74 55 59 55 48 55 56 56 52 53 50 53 61 67 66 64 53 59 68 60 69 63 60 60 44 55 45 43 43 43 37 43 34 65 71 69 71 72 66 62 57

GFSSW_925_rhum_048.txt.gz
RH
56 51 52 50 50 49 46 45 47 41 41 46 43 38 32 29 27 59 31 18 16 16 21 20 18 16 14 11 13 12 13 24 28 28 41 34 34 27 32 39 39 41 45 51 98
54 53 53 51 51 52 48 46 46 42 42 46 45 35 32 34 57 37 21 17 14 17 18 17 14 15 11 11 13 12 14 16 18 28 38 33 33 34 32 42 41 45 59 78 91
52 52 53 51 52 52 49 48 48 43 43 50 47 34 32 39 44 16 19 20 16 19 18 18 14 12 12 11 13 12 14 14 21 26 22 33 38 26 32 29 31 37 69 65 70
54 53 53 51 55 51 49 47 48 46 46 48 40 34 33 73 21 16 17 16 18 24 19 18 15 13 10 13 11 13 11 14 23 24 26 27 23 28 30 28 31 35 54 60 59
55 54 54 52 56 51 48 48 50 48 50 47 40 35 60 41 23 18 20 18 23 24 18 17 17 12 11 10 12 13 11 18 18 24 20 24 25 24 29 32 32 45 54 53 49
56 54 53 55 54 51 50 50 50 50 51 42 38 38 60 32 17 25 26 26 25 22 19 17 15 12 16 14 12 12 11 17 15 24 18 22 25 21 28 34 43 51 46 42 39
56 56 55 55 54 51 50 50 50 53 47 40 40 66 48 27 20 29 26 24 24 21 17 17 16 17 17 12 10 11 12 12 12 19 20 14 19 17 30 35 44 42 41 40 38
56 58 56 56 53 51 51 48 51 51 41 39 43 72 36 21 23 23 20 22 24 22 18 18 18 17 18 12 12 11 12 17 14 18 13 13 15 19 36 34 37 39 42 40 37
57 58 57 56 52 51 51 47 51 44 38 45 69 60 28 19 19 15 17 12 19 23 22 19 19 18 14 12 13 13 14 13 15 13 13 12 14 24 43 33 37 41 42 40 41
59 60 59 56 52 51 48 47 46 39 46 74 61 56 28 16 17 18 12 14 14 18 19 18 17 15 12 11 14 14 12 12 12 15 12 13 22 27 42 41 41 41 41 41 42
60 61 61 54 52 51 47 69 45 44 53 28 22 28 20 19 18 11 11 14 15 15 14 17 16 14 11 11 11 13 12 12 12 15 15 15 24 28 42 43 47 43 43 44 45
61 63 61 54 53 51 59 38 30 45 36 30 28 29 24 23 19 12 13 12 13 14 19 18 16 17 16 14 14 14 15 16 18 17 19 23 29 32 39 43 43 44 47 49 53
62 64 62 57 56 62 60 37 51 45 46 29 27 22 17 22 16 12 13 15 14 17 20 15 19 21 17 18 18 19 18 20 16 20 21 22 27 35 42 46 48 46 44 46 49
62 64 61 58 64 57 48 35 39 46 39 22 21 17 17 17 16 13 14 14 18 19 18 20 20 21 19 21 20 20 21 19 19 18 18 22 17 27 38 44 46 50 48 48 48
62 64 61 52 72 42 45 41 50 52 34 17 19 15 15 16 14 16 19 15 16 19 20 24 21 21 20 23 22 25 22 20 20 20 20 22 19 24 36 42 48 49 48 49 48
62 65 62 89 79 60 68 73 59 51 36 22 17 18 18 17 16 16 18 16 19 22 20 22 22 21 23 26 23 26 26 26 25 24 27 21 26 13 25 29 43 47 48 47 46
63 66 62 73 40 93 66 54 50 43 25 23 21 18 16 20 20 19 21 21 19 27 27 24 25 23 23 26 27 25 24 25 31 30 26 35 32 17 30 31 36 45 46 44 38
65 68 70 68 66 74 63 48 47 24 23 20 19 17 19 20 23 25 25 24 25 22 23 23 30 23 23 24 22 25 22 25 26 29 28 37 32 29 33 32 32 37 40 36 37
70 96 82 71 58 72 48 55 33 27 23 21 21 21 24 24 22 25 27 23 25 25 20 26 27 24 27 25 24 31 28 30 40 49 44 24 28 30 36 37 36 39 36 36 37
79 76 53 72 49 57 56 45 28 30 24 20 22 20 25 25 23 23 27 28 28 28 29 29 32 26 26 24 27 27 27 34 34 46 29 18 23 18 37 38 36 39 36 36 37
67 54 78 76 66 61 56 38 26 31 29 22 19 26 22 29 23 22 25 32 29 30 28 26 27 32 27 26 25 34 32 32 28 34 24 21 14 27 29 33 36 34 35 36 42
58 55 100 84 57 48 48 32 30 30 35 27 23 21 24 26 30 24 27 26 36 27 29 31 31 38 29 26 27 26 26 28 30 33 43 39 20 26 34 35 34 34 35 38 43
54 67 98 74 65 57 36 30 32 30 30 32 29 26 31 31 36 36 36 43 37 32 32 31 33 41 36 30 31 30 29 27 31 38 37 57 18 28 36 39 37 37 42 46 45
46 74 91 66 37 39 37 32 30 38 33 32 35 35 38 39 41 44 44 43 39 36 56 32 34 32 35 26 27 33 32 28 24 35 22 26 14 24 32 36 38 40 43 44 45
52 44 46 75 52 37 32 27 28 38 35 33 36 30 32 45 42 45 42 41 41 62 42 35 36 33 35 34 32 28 28 31 28 23 32 17 16 11 19 28 33 40 44 46 44
56 51 53 50 40 35 41 32 27 39 35 34 32 35 35 36 31 41 39 37 36 44 42 41 43 42 45 43 39 36 28 26 29 26 26 22 23 16 20 23 37 45 46 48 45
71 53 39 66 48 36 35 29 29 35 49 40 33 38 43 44 45 42 40 34 32 41 46 43 50 47 42 42 39 62 36 27 24 26 26 28 22 27 34 35 40 45 46 46 44

GFSSW_925_rhum_051.txt.gz
RH
62 52 50 54 48 53 48 40 42 44 42 40 42 41 33 31 26 50 33 17 19 21 20 17 15 12 9 8 7 8 12 12 31 41 26 31 34 66 30 26 30 28 32 32 71
55 50 52 53 48 53 50 42 43 44 44 43 43 41 34 31 60 28 18 19 17 16 17 13 12 9 8 8 8 9 11 16 18 38 67 35 26 27 27 28 30 35 49 64 72
55 47 52 54 49 52 51 45 44 45 48 46 43 38 33 37 38 14 18 20 18 16 15 13 10 8 9 8 9 8 12 14 13 26 24 22 28 29 30 25 26 29 55 56 52
57 48 54 54 50 53 52 49 46 46 48 48 43 37 32 62 26 17 17 18 18 18 18 14 10 10 10 9 8 12 10 10 18 32 17 23 22 26 27 48 17 37 39 46 42
59 47 53 55 49 53 52 49 46 48 49 50 44 38 54 33 20 21 17 16 23 19 16 13 13 10 10 8 10 11 13 19 37 15 18 20 20 41 23 19 20 33 35 39 38
58 47 54 56 53 53 52 49 47 47 51 46 39 38 54 30 13 20 25 24 19 18 15 13 12 9 11 10 10 11 16 20 16 19 19 22 22 21 22 20 30 36 35 33 32
59 51 57 54 56 52 50 49 47 48 49 40 37 61 36 24 15 19 24 18 18 17 14 13 12 13 14 15 10 11 20 17 14 18 19 17 20 20 22 23 29 30 29 28 24
61 51 58 55 56 51 51 49 46 48 44 37 38 55 33 16 16 16 16 16 17 18 16 15 15 16 18 11 12 16 14 18 13 14 16 15 18 17 22 25 26 26 26 26 24
59 52 58 57 57 51 50 48 44 46 38 40 66 46 26 18 15 13 13 12 14 17 17 16 17 18 16 14 14 12 18 16 14 13 13 15 15 18 20 23 27 27 27 27 26
59 53 60 58 57 51 47 46 50 42 49 56 43 42 28 14 13 14 11 11 13 16 18 18 19 17 15 14 17 13 13 13 14 14 11 11 14 22 23 20 26 28 28 29 31
59 54 60 60 56 51 49 55 42 46 41 24 20 18 16 15 14 12 10 10 11 16 22 17 19 19 15 11 10 9 9 10 9 8 9 10 15 17 22 23 28 30 32 32 33
60 55 62 61 56 52 59 34 27 41 40 21 17 18 18 16 17 11 10 12 13 22 16 17 22 16 11 9 10 11 12 11 10 10 13 12 16 19 29 28 27 29 31 33 36
61 57 63 63 57 63 50 34 39 43 42 21 16 17 16 14 14 10 10 11 13 14 18 20 20 15 12 12 12 12 14 16 14 14 12 14 18 23 24 25 27 27 28 32 38
61 58 65 62 67 45 40 35 35 42 44 22 19 15 13 14 15 9 10 11 13 14 14 30 24 13 13 12 13 17 15 13 14 17 18 14 19 23 26 31 34 35 34 36 37
62 58 65 58 68 38 43 36 40 54 52 15 12 11 10 14 12 11 11 11 14 14 17 17 16 14 14 16 16 23 16 15 13 14 21 16 14 25 26 30 33 36 37 36 37
63 60 68 83 77 50 51 59 56 53 46 17 13 16 16 14 12 12 11 11 14 15 15 26 16 15 18 18 17 18 18 18 16 16 23 14 16 17 23 20 27 31 34 36 38
62 62 72 58 42 46 64 58 50 45 17 16 16 15 16 15 14 13 15 15 15 18 20 18 17 18 17 19 18 17 19 30 30 24 25 20 21 14 21 21 21 32 35 38 38
63 66 73 65 56 74 60 55 47 22 21 14 14 15 17 14 14 14 14 14 12 14 16 20 28 19 17 18 19 19 18 24 28 24 19 23 17 19 24 22 24 29 33 37 36
66 84 80 72 71 77 52 56 40 22 15 17 16 17 16 14 15 16 17 15 13 14 20 20 21 18 19 18 17 21 22 20 24 30 34 15 17 27 25 26 28 31 33 37 31
70 66 59 67 75 69 60 47 28 17 17 16 20 16 18 18 19 18 17 14 16 19 18 17 23 19 21 20 20 21 20 26 24 38 29 14 14 18 26 27 28 30 34 33 30
59 58 39 60 71 58 59 39 24 18 22 20 18 17 16 17 18 17 16 20 18 22 22 15 19 26 22 22 16 25 23 21 22 25 31 19 14 16 17 22 25 27 30 30 30
60 63 68 69 48 52 50 31 24 18 25 26 21 16 17 17 20 18 16 16 20 19 21 19 20 23 24 18 19 20 19 21 32 26 26 33 21 16 18 20 22 23 26 27 29
64 61 86 57 53 62 39 31 23 21 23 26 21 16 16 19 24 20 18 36 25 25 21 24 21 27 28 24 23 24 20 19 20 28 31 46 23 18 21 21 21 21 24 27 30
49 77 99 81 36 45 43 35 30 22 24 23 20 17 22 20 19 25 25 35 33 26 42 33 21 24 31 23 20 29 22 20 22 37 28 18 15 16 19 19 19 22 24 30 37
55 44 56 68 46 52 36 31 29 24 27 26 26 24 25 26 25 28 28 37 36 56 32 30 33 24 22 24 24 22 21 21 24 22 28 20 14 9 11 16 18 19 24 33 37
59 37 39 37 38 50 48 37 26 20 24 31 28 20 21 26 27 27 28 32 32 37 34 30 34 34 39 28 29 29 23 21 19 19 16 14 15 11 12 13 16 20 26 33 36
57 40 41 50 46 44 41 32 23 19 35 30 24 19 26 28 32 31 25 24 25 35 38 37 37 43 39 33 30 54 32 22 18 17 18 24 17 17 19 19 18 21 28 32 35

GFSSW_925_rhum_054.txt.gz
RH
55 46 40 48 47 46 44 44 43 41 46 46 42 36 33 32 30 49 43 22 19 20 21 20 15 13 11 10 8 6 10 14 13 25 44 51 75 74 45 42 33 38 49 61 65
58 52 41 48 50 46 46 49 46 41 46 48 42 34 31 30 60 41 23 18 17 18 18 16 12 11 10 9 8 9 12 12 15 32 47 58 63 76 53 77 53 62 56 64 77
63 57 43 47 50 47 48 48 50 43 46 48 42 35 34 36 46 18 16 18 18 18 17 13 11 9 9 8 8 9 12 11 34 36 40 51 64 69 25 37 21 54 61 62 68
64 60 48 49 52 48 49 49 50 44 45 47 43 37 31 48 34 18 16 16 19 16 19 16 12 11 10 10 8 10 8 15 34 36 35 41 56 30 26 26 31 45 48 47 58
63 62 51 48 53 50 51 49 49 45 45 47 45 36 40 38 27 18 16 16 19 17 16 13 12 10 11 8 8 10 11 27 28 24 25 20 34 36 37 30 32 40 38 40 45
64 64 51 48 54 51 52 49 50 46 44 45 41 35 59 39 14 17 20 25 19 17 15 13 11 10 10 10 9 11 13 25 25 27 29 28 40 36 32 32 28 29 36 36 48
64 62 54 50 54 51 51 48 48 46 43 41 39 59 43 31 16 14 19 17 15 16 15 13 11 12 12 15 10 14 20 19 18 26 21 29 34 31 24 28 28 27 29 26 27
69 61 56 51 55 53 51 47 46 45 40 37 37 61 40 19 15 14 14 15 14 15 15 14 14 14 18 14 11 16 19 21 12 14 19 24 35 23 23 27 28 27 26 26 25
73 62 55 52 55 54 49 45 44 43 36 35 62 52 34 17 15 13 13 12 12 15 15 14 15 19 17 19 21 18 30 21 17 11 17 21 23 22 22 23 26 26 26 25 23
76 63 55 52 56 55 49 41 50 44 44 55 45 38 30 18 11 11 11 11 13 16 18 18 20 21 17 19 26 21 20 17 16 12 14 18 16 18 21 25 27 27 27 27 25
79 65 56 53 58 56 47 56 50 56 43 26 22 21 14 12 13 12 12 10 11 15 20 18 22 24 21 18 14 14 15 16 15 10 12 11 15 18 17 20 30 27 27 29 29
81 67 56 56 60 58 52 43 27 37 46 28 20 17 15 16 16 11 10 12 14 19 23 22 30 18 17 16 15 11 13 10 9 8 10 10 14 13 17 17 23 26 28 31 32
85 68 56 59 63 62 58 39 31 36 44 26 23 13 13 14 16 12 9 11 17 25 18 37 47 30 21 12 12 15 23 24 14 10 10 13 13 18 18 18 21 25 28 31 37
87 69 57 63 69 54 45 40 36 37 52 24 21 13 14 13 16 10 8 10 12 25 26 34 25 28 21 14 13 28 21 22 17 21 17 20 32 34 21 24 25 28 28 31 34
89 70 57 60 79 46 39 28 36 46 68 16 17 10 12 14 12 11 9 10 15 13 14 27 27 25 16 14 17 30 19 23 13 13 25 30 34 35 25 25 28 29 30 32 34
89 71 62 75 79 52 53 60 40 71 50 17 11 14 14 13 12 9 10 10 11 13 14 18 21 23 20 15 14 20 25 19 16 19 42 32 35 29 28 24 27 29 32 34 38
90 72 63 61 50 43 47 63 66 59 16 18 14 15 16 16 14 12 14 14 17 21 20 21 18 14 16 16 15 18 21 33 76 66 35 13 26 30 34 36 32 30 34 37 37
90 76 66 72 63 59 62 78 60 26 24 11 13 15 18 15 14 13 13 15 13 14 14 24 29 17 15 16 43 35 17 53 51 68 34 29 21 24 20 20 23 26 30 36 39
91 86 80 75 61 68 73 85 48 25 16 17 13 16 17 15 14 14 14 14 12 13 20 34 28 30 15 13 26 21 23 21 23 23 40 22 13 27 22 22 24 29 32 39 40
91 70 62 70 60 74 89 68 40 25 15 14 18 15 18 16 16 16 15 13 12 10 24 39 57 35 18 17 16 18 15 29 24 40 41 18 16 28 29 25 25 30 35 38 37
74 60 40 63 74 69 77 58 43 21 17 20 17 16 15 15 15 17 15 12 11 16 17 25 55 26 20 21 15 23 24 19 16 28 45 51 25 23 21 22 26 27 32 36 35
63 57 49 72 72 50 61 44 35 28 16 21 19 16 15 15 17 16 16 13 15 15 21 16 21 28 24 16 14 17 20 19 46 30 33 44 33 15 17 21 22 22 28 31 31
63 61 70 66 61 53 43 41 33 27 20 23 26 18 16 17 19 17 16 27 18 18 21 21 27 38 25 21 20 22 17 16 20 31 38 71 35 17 16 18 19 20 26 27 30
53 77 98 87 42 39 46 43 38 26 20 18 21 17 17 19 17 21 19 31 28 23 38 33 24 25 36 22 22 25 22 17 20 59 42 38 23 16 19 19 17 20 20 26 29
56 49 56 93 74 45 42 37 35 31 22 20 22 20 19 25 20 21 19 38 32 48 30 28 29 21 18 17 19 24 22 19 20 22 36 31 20 13 12 18 17 18 20 23 29
57 44 54 52 54 51 44 46 35 28 24 27 28 21 19 23 21 23 23 34 33 36 32 29 38 34 38 27 24 29 23 21 20 20 17 19 18 13 13 14 15 16 19 21 30
52 42 52 57 55 48 49 46 37 29 23 20 24 25 26 23 25 30 24 25 23 36 38 34 45 54 57 34 34 53 34 25 20 17 19 24 20 15 16 17 18 19 17 23 28

GFSSW_925_rhum_057.txt.gz
RH
56 58 50 38 42 47 47 46 44 45 42 40 44 41 35 32 30 42 61 14 26 21 19 17 19 21 15 16 14 12 17 17 16 38 66 57 62 61 66 61 60 74 68 63 74
57 60 55 42 43 45 44 46 46 46 44 40 42 40 34 34 59 56 17 17 20 21 21 18 20 18 20 16 14 14 20 17 33 44 58 59 60 64 59 58 64 69 77 77 83
62 57 61 49 42 48 47 46 47 45 43 39 42 39 34 34 70 28 15 16 20 18 18 16 16 16 17 13 12 13 17 27 42 44 50 58 57 58 60 60 58 70 67 82 67
67 58 61 52 44 47 48 47 49 46 43 40 42 39 31 50 40 19 16 14 21 20 19 18 19 21 17 14 12 13 26 40 44 43 50 57 53 52 60 48 47 58 66 77 68
71 62 59 55 46 47 48 46 49 45 43 40 42 39 29 60 47 13 20 17 18 19 19 21 21 17 16 13 13 12 33 34 35 34 38 38 40 34 40 64 60 57 71 78 74
76 66 55 55 46 48 48 48 49 44 43 41 43 39 70 60 16 19 21 20 21 17 15 16 18 16 16 16 18 16 29 32 31 30 35 30 34 36 62 64 76 60 66 81 84
77 72 60 54 45 48 48 49 49 43 42 42 42 56 60 46 7 14 17 19 19 16 18 15 16 16 20 20 16 21 24 30 32 32 30 38 45 44 40 62 73 52 61 73 81
80 77 66 54 46 48 48 48 48 42 43 42 41 64 69 13 19 20 15 16 18 17 16 15 15 19 19 22 19 21 21 27 29 27 30 28 39 38 37 38 43 39 53 53 81
84 78 71 56 47 49 49 47 44 40 44 40 58 66 62 28 25 15 14 15 14 15 16 14 16 21 23 26 25 23 32 26 26 30 31 31 32 33 35 36 40 40 37 43 38
87 81 75 57 48 51 50 43 44 47 46 50 58 56 44 26 18 13 13 13 15 22 19 20 24 28 25 23 33 28 29 25 25 40 32 31 30 34 32 33 37 37 34 33 34
94 83 78 61 50 55 52 41 65 73 55 49 38 35 19 16 14 13 12 12 13 23 29 23 29 30 25 24 22 21 22 24 20 17 24 25 30 32 34 47 40 51 36 32 34
99 87 81 64 51 58 60 71 46 43 66 42 36 31 23 17 20 18 12 18 22 30 30 29 34 25 24 21 22 22 23 27 17 15 16 21 22 24 42 42 31 36 51 38 52
99 90 83 65 53 58 57 48 25 36 68 42 33 36 28 15 21 20 14 16 26 28 36 36 34 30 31 34 34 25 28 22 23 22 11 13 23 28 24 46 44 34 44 38 50
100 92 82 61 60 59 65 35 35 38 85 42 28 29 22 14 23 15 13 14 23 31 31 35 30 27 32 35 27 32 24 26 25 30 29 24 50 33 30 26 45 42 43 55 50
97 95 82 60 76 75 54 53 37 46 93 31 27 15 12 20 18 16 12 15 20 25 36 33 32 34 34 30 24 31 24 27 28 30 31 32 49 38 28 32 32 38 41 47 51
96 97 83 70 66 44 44 53 53 90 90 26 20 18 21 20 19 14 13 11 13 17 21 29 22 26 33 22 20 23 25 30 43 40 47 32 41 43 36 31 34 34 42 49 55
100 100 83 62 68 48 53 67 93 99 27 23 20 19 22 21 20 17 16 19 23 25 29 23 26 20 25 30 22 28 32 57 67 74 62 31 39 38 31 41 36 41 45 56 62
100 100 85 66 54 65 67 90 99 43 41 17 18 20 24 20 21 19 17 24 21 21 26 38 38 31 21 24 32 32 40 60 62 78 57 43 47 37 30 32 32 36 45 53 56
100 100 93 70 43 66 95 92 71 45 26 26 17 25 25 21 22 22 22 22 19 19 28 38 38 34 27 24 23 45 62 40 43 45 50 41 37 34 29 34 45 42 48 55 51
100 99 87 72 51 75 98 72 60 35 30 30 28 22 28 24 24 24 23 18 19 17 26 46 49 48 40 29 23 29 37 42 49 38 42 37 31 48 37 35 42 44 54 55 52
98 94 64 68 81 94 88 71 57 39 33 34 26 23 22 25 23 23 23 18 16 26 34 45 48 49 41 40 36 28 29 26 31 51 55 66 42 35 38 36 40 47 49 54 53
96 94 54 74 96 84 82 59 52 43 37 40 24 26 25 23 24 25 25 22 18 24 27 38 56 68 51 37 23 20 25 40 59 38 50 62 50 18 28 33 34 40 43 49 46
96 80 76 63 69 81 60 58 50 45 42 37 30 27 27 26 28 26 25 38 24 22 27 32 39 49 39 31 25 25 24 21 30 56 46 69 53 22 23 28 30 31 43 46 44
94 88 94 86 41 56 61 50 53 41 46 39 31 31 33 30 24 30 44 34 34 37 39 38 35 44 53 35 28 30 26 24 29 71 50 53 39 30 25 24 24 21 35 46 41
98 62 76 95 89 59 49 45 51 52 42 37 34 34 35 32 25 28 43 45 34 43 31 37 40 27 26 27 28 26 27 30 30 35 50 41 36 29 22 29 24 26 22 37 41
94 67 77 81 68 77 56 48 45 43 42 40 37 34 32 33 31 30 40 45 44 41 36 36 49 35 42 38 37 36 30 30 30 28 26 26 28 21 22 21 22 23 24 32 46
76 70 57 80 77 81 71 46 43 40 38 32 32 39 37 32 29 33 35 40 41 52 48 50 53 68 59 44 42 54 36 32 32 28 25 30 29 24 24 26 24 25 26 30 44

GFSSW_925_rhum_060.txt.gz
RH
60 53 55 53 36 40 42 42 42 43 42 41 39 42 37 35 28 39 58 9 16 23 23 21 18 21 24 18 17 14 22 24 18 35 62 60 67 60 65 59 62 70 71 75 100
66 59 54 55 45 38 42 42 44 45 44 41 40 43 35 35 39 69 20 20 12 21 22 22 20 19 26 20 17 17 22 18 28 53 62 59 61 63 66 62 67 68 85 93 96
71 65 56 55 48 39 40 43 45 46 44 40 41 40 35 33 72 38 15 16 18 21 22 18 18 18 20 20 18 15 18 31 44 50 54 58 66 62 61 57 61 64 91 92 87
73 71 62 53 50 43 40 43 45 47 45 41 43 41 30 57 35 20 19 16 18 23 21 19 21 22 24 19 14 14 21 37 50 53 57 60 64 65 62 51 47 53 86 87 87
78 73 70 56 50 44 41 44 46 50 47 43 45 41 35 57 49 11 16 19 19 22 19 21 24 24 21 17 16 19 41 41 44 43 46 47 42 49 58 73 60 69 78 81 80
83 76 74 65 50 43 39 45 47 49 46 44 46 41 68 59 12 21 25 22 18 18 15 20 21 19 21 22 22 27 36 40 36 41 37 36 41 48 59 65 64 69 85 77 77
90 80 73 71 55 45 39 44 47 50 46 45 47 48 73 38 9 20 16 18 24 18 18 16 16 20 19 25 22 27 40 34 38 36 30 36 35 45 54 61 71 66 80 74 73
98 87 77 74 63 48 40 43 45 49 43 47 45 58 70 12 26 28 18 18 16 20 17 17 16 19 20 21 22 22 30 36 33 28 29 33 43 35 60 63 75 79 77 70 73
100 95 82 75 69 51 41 42 43 45 42 49 50 63 67 26 27 13 15 18 15 16 19 15 17 22 25 29 28 26 31 34 38 30 27 31 35 38 66 61 65 83 80 66 65
100 100 88 78 73 55 41 41 40 49 55 62 62 59 48 24 21 17 12 15 16 20 21 21 30 30 28 31 39 28 29 28 34 34 36 36 36 40 51 48 53 70 84 68 70
98 100 94 81 75 56 46 46 58 66 56 50 37 36 25 21 17 16 13 15 20 26 31 26 30 31 26 24 25 27 28 32 28 27 37 37 31 37 42 50 50 62 73 75 70
83 100 100 84 76 55 58 72 52 43 65 50 44 39 31 29 30 21 16 18 24 31 33 36 40 26 27 30 34 35 37 34 24 23 36 29 31 37 46 42 43 44 43 42 49
71 88 100 88 75 52 59 53 41 38 68 54 44 46 40 36 32 23 17 22 29 33 30 41 36 28 30 36 36 37 40 29 28 23 25 24 30 31 34 39 42 38 41 44 48
58 82 100 90 66 60 74 58 57 47 78 54 46 37 33 21 20 17 16 18 26 30 34 36 31 30 33 32 33 43 30 26 24 26 25 24 41 36 32 45 46 48 51 55 55
61 82 100 88 65 74 59 49 58 56 50 32 34 24 28 20 20 19 15 17 27 33 34 34 36 34 31 32 29 38 27 26 27 37 35 34 36 32 32 38 40 44 51 54 54
71 74 100 94 80 40 41 52 60 81 72 42 31 29 22 20 21 17 16 14 19 31 31 26 25 28 30 29 28 25 27 44 49 47 49 37 38 37 35 28 32 40 44 54 56
91 82 100 85 64 58 61 69 87 86 40 33 28 22 26 26 24 21 18 18 22 27 31 26 28 22 26 26 27 29 42 58 57 66 56 38 44 37 31 31 31 38 48 54 63
70 91 99 93 62 65 71 91 92 57 52 30 22 24 28 26 24 22 21 24 21 23 33 38 37 27 22 26 28 40 38 59 49 62 48 40 47 36 33 32 34 42 58 65 74
64 90 99 96 77 60 93 87 76 62 33 29 22 30 30 26 23 25 27 27 22 23 29 41 40 44 30 30 26 36 47 52 56 51 53 43 35 36 31 34 36 49 62 71 72
97 99 94 95 83 69 99 71 65 47 39 38 34 28 35 29 30 29 28 23 20 21 23 36 47 43 39 30 28 29 38 52 63 40 40 39 38 49 37 40 50 52 65 68 63
95 96 73 88 74 83 87 70 56 41 42 48 40 30 29 31 28 30 26 22 21 23 31 43 39 38 40 37 32 34 34 36 42 54 54 63 45 35 40 42 50 54 58 62 58
85 96 71 81 89 91 80 61 54 47 44 51 46 45 30 31 30 31 29 23 25 33 34 39 51 56 42 34 35 32 34 39 61 37 56 63 47 26 37 38 47 48 53 58 50
89 86 90 77 91 77 65 64 54 47 48 47 46 40 28 26 27 33 29 32 28 27 37 43 48 60 52 39 32 37 28 30 47 57 46 68 52 27 27 36 38 49 54 56 57
92 93 98 86 66 58 65 67 72 48 50 49 50 48 42 32 29 29 38 36 40 36 49 39 45 44 61 43 32 32 30 28 37 69 48 58 38 31 28 29 35 35 47 57 55
97 72 71 94 89 58 56 60 64 60 45 45 48 48 52 42 30 33 46 41 39 44 34 37 39 35 34 31 32 31 30 29 33 38 47 39 45 31 28 28 30 31 40 56 53
98 85 75 87 67 71 56 58 58 48 42 38 47 47 44 40 34 36 48 45 41 40 36 42 39 35 37 40 37 35 30 34 33 29 32 32 34 29 23 26 26 28 31 46 54
72 83 79 63 75 82 64 52 47 39 42 33 43 47 48 43 35 31 41 44 42 47 49 51 57 66 56 47 43 61 40 35 31 32 31 34 29 27 32 31 28 29 26 51 60

GFSSW_925_rhum_063.txt.gz
RH
69 66 58 50 52 43 36 39 41 43 42 45 42 40 36 35 31 34 56 12 14 14 23 23 21 22 25 21 19 18 26 27 21 28 37 63 67 70 64 61 66 78 74 94 100
72 71 67 58 51 51 40 39 42 44 45 44 42 40 35 34 41 64 21 20 18 23 22 22 20 19 24 22 21 20 26 20 18 42 54 62 66 66 62 60 70 91 98 100 100
77 71 71 66 54 51 46 40 43 43 48 46 43 40 34 32 56 30 18 17 19 17 23 20 19 18 21 21 21 19 22 18 44 50 54 60 65 66 64 62 63 91 95 93 95
81 75 70 70 62 48 47 41 44 46 49 48 44 40 31 55 29 21 20 20 19 22 23 20 21 24 26 25 17 16 16 31 43 55 56 60 68 65 60 57 53 86 86 85 87
91 82 77 70 69 55 46 42 44 48 50 49 45 42 34 51 38 11 20 23 20 27 24 21 23 25 23 21 21 17 41 46 51 56 53 54 51 50 61 83 72 84 82 86 86
100 92 83 76 72 66 49 42 41 48 53 51 46 44 62 43 13 25 29 23 21 25 18 20 20 21 24 24 26 33 42 38 43 45 47 41 47 47 67 71 86 89 92 92 81
92 99 93 83 76 71 59 43 36 45 52 53 49 48 76 34 12 24 21 20 18 23 17 16 17 21 22 25 26 35 41 42 41 39 33 39 45 51 68 65 88 85 81 88 74
92 89 95 93 82 74 67 46 35 41 49 51 53 60 58 16 20 21 22 20 19 20 22 18 18 22 22 22 24 28 36 46 35 31 31 31 43 49 61 72 84 87 79 77 71
93 91 100 100 88 77 69 44 33 38 47 51 55 64 63 22 28 16 21 19 17 18 22 19 18 23 25 30 31 29 35 39 40 31 30 32 39 54 58 71 80 89 82 76 81
78 93 99 100 95 81 68 36 38 59 63 66 67 51 32 22 23 20 18 17 17 21 22 23 32 32 32 34 41 34 32 31 36 29 35 34 34 63 64 68 77 88 84 76 77
61 81 97 99 99 87 67 38 52 66 62 51 36 31 24 26 26 19 16 17 22 25 31 27 33 34 28 29 28 32 35 35 30 28 38 42 37 44 66 61 80 88 85 74 72
68 64 90 100 100 88 72 74 49 53 62 51 48 42 33 33 40 28 17 19 26 31 33 32 35 29 28 31 32 34 39 40 35 29 34 40 38 33 57 57 66 78 86 75 67
75 60 79 100 100 86 66 51 45 66 64 52 48 48 44 40 46 41 19 24 25 33 36 37 32 29 31 35 34 35 38 41 39 26 28 30 34 39 53 48 54 64 68 70 68
82 61 72 100 93 68 69 63 60 65 64 46 57 48 41 39 28 25 18 22 27 32 36 36 32 32 34 35 34 40 32 37 34 26 36 24 41 39 48 50 50 54 54 56 59
85 62 70 100 66 78 71 58 59 61 46 24 44 31 36 22 18 22 18 19 30 33 34 30 37 36 37 32 31 36 31 30 29 35 35 35 36 33 36 52 48 47 50 48 49
88 69 76 100 99 72 52 42 65 84 68 36 36 38 30 22 19 19 20 16 23 32 32 29 28 32 30 27 30 28 32 40 47 47 46 36 39 40 42 35 40 40 43 49 62
83 78 89 100 82 74 64 70 92 90 35 40 39 30 34 29 21 21 20 24 28 32 33 28 29 24 27 30 28 32 40 52 54 62 50 40 44 42 30 29 33 38 42 51 56
80 92 99 97 88 65 75 93 97 60 54 41 26 29 27 28 26 28 23 26 21 25 36 37 38 27 23 26 29 42 38 57 44 55 46 41 49 38 30 34 34 35 46 56 61
80 88 92 99 97 79 94 94 75 60 44 28 26 30 30 28 27 24 28 27 24 25 30 42 37 40 37 30 28 40 46 43 56 56 61 48 37 31 36 42 44 68 69 73 73
97 93 84 94 100 76 98 79 66 53 47 49 36 31 37 34 31 30 33 25 22 25 24 34 35 39 38 32 30 31 42 54 66 47 43 41 40 40 34 37 50 55 75 84 84
96 95 65 94 99 90 92 73 60 44 42 57 55 43 34 34 33 35 30 24 25 25 27 40 36 34 39 39 37 41 42 40 49 54 54 61 47 37 38 38 44 55 66 77 84
88 94 86 92 98 90 80 63 54 46 41 50 54 55 47 33 35 35 33 26 24 36 32 39 45 47 38 32 33 31 36 42 60 42 61 63 51 27 38 38 43 45 58 72 71
90 81 98 76 91 90 68 62 57 46 48 52 56 50 45 34 30 36 35 28 32 35 41 44 49 54 42 35 39 43 38 41 51 60 58 71 53 29 30 33 38 50 57 69 66
90 92 98 90 64 65 71 72 71 53 55 51 56 50 48 42 31 33 37 37 41 36 50 43 49 43 54 39 34 36 32 33 43 70 50 59 39 30 31 31 33 41 53 67 64
91 73 75 90 88 77 61 63 72 66 56 53 55 58 55 54 36 36 45 42 40 51 39 39 45 40 39 33 31 30 32 36 41 41 48 41 47 36 33 30 30 34 40 59 69
89 88 77 82 68 78 64 63 67 62 56 58 54 52 45 56 44 40 48 46 43 40 39 44 44 34 41 40 39 38 36 34 37 33 43 40 40 34 29 26 29 32 36 49 65
81 80 77 71 74 75 66 60 58 51 54 46 46 50 48 52 47 38 42 42 39 46 49 48 61 62 49 48 46 61 49 39 35 34 34 39 36 29 31 36 44 41 31 44 64

GFSSW_925_rhum_066.txt.gz
RH
77 70 67 66 60 50 51 45 41 43 45 47 48 39 36 33 28 37 51 16 14 11 19 24 22 25 26 22 19 19 27 30 23 21 23 67 66 68 65 63 78 92 79 93 100
83 78 72 68 65 55 46 46 40 40 46 48 48 40 36 32 40 55 23 20 21 24 23 21 20 20 26 23 22 24 30 24 19 18 51 65 65 62 62 63 87 85 92 99 99
97 86 80 74 69 67 54 43 39 39 45 49 48 41 38 31 47 26 21 22 22 21 22 20 19 18 21 22 22 21 25 20 19 50 54 58 67 67 63 58 77 86 94 94 92
99 99 87 81 75 71 67 51 41 39 44 50 50 42 36 48 26 21 18 21 22 19 23 21 21 24 27 26 20 20 19 19 44 54 52 58 66 64 61 76 73 80 86 90 91
99 99 99 89 82 75 70 64 47 40 42 50 52 45 38 41 30 10 22 25 22 26 23 22 24 25 25 23 23 18 30 45 55 55 52 58 52 55 85 94 84 81 83 85 89
97 99 99 99 93 85 76 69 56 41 39 49 54 48 63 36 12 22 28 26 24 24 21 22 21 23 23 25 27 37 43 44 54 54 52 42 49 49 89 88 82 84 90 89 89
84 100 99 87 97 94 84 71 62 46 38 44 55 53 80 36 13 22 27 23 22 21 19 17 18 21 23 25 30 38 42 40 43 48 43 45 47 67 84 86 80 86 81 88 89
77 86 95 88 94 100 92 75 62 50 36 40 56 60 59 16 17 11 15 22 22 25 23 22 20 23 23 22 28 36 37 49 36 34 34 39 46 70 76 85 72 75 89 89 81
77 72 94 92 98 100 95 77 60 45 51 54 60 63 59 23 23 16 18 24 18 20 23 22 20 26 27 32 32 33 37 39 39 33 31 33 43 58 68 83 92 80 86 88 79
89 70 76 92 98 99 95 73 41 61 72 70 73 59 32 22 23 23 22 25 17 22 24 24 35 34 35 35 42 38 35 33 36 26 34 34 36 68 64 80 90 91 90 85 79
73 81 64 82 96 98 93 66 46 65 72 54 46 40 24 29 32 22 19 20 22 26 30 30 34 36 30 32 31 32 35 37 34 29 32 38 37 68 67 74 89 94 95 90 82
83 70 66 71 95 100 96 67 50 62 79 53 50 47 35 35 41 33 19 20 26 30 33 34 35 29 30 31 32 34 36 40 36 28 34 43 43 37 67 72 73 89 94 87 80
85 71 72 67 94 100 92 68 49 64 87 52 50 48 44 40 45 42 23 24 27 34 38 37 31 32 31 33 36 35 37 40 39 31 33 38 36 41 50 61 59 71 77 79 75
81 75 84 69 99 90 73 57 58 72 68 45 54 51 48 47 40 34 21 24 29 31 37 35 32 35 36 36 38 40 35 37 38 32 37 27 40 38 46 58 58 60 77 78 76
81 75 86 81 85 81 73 62 70 66 42 24 51 38 45 28 23 23 19 21 32 33 35 30 40 38 38 35 32 37 30 34 32 36 37 36 38 33 48 57 56 55 66 69 72
84 78 90 85 100 88 67 82 73 88 75 30 42 46 43 24 21 23 22 19 25 34 35 29 30 35 34 28 30 30 34 40 47 48 48 37 41 41 46 45 44 47 50 58 58
76 75 95 88 88 85 81 75 97 93 38 38 44 39 35 32 22 24 28 27 34 37 39 30 31 27 28 28 30 34 39 52 53 60 52 41 47 44 30 29 36 46 47 49 53
77 81 91 87 94 76 77 94 96 62 59 43 32 40 38 28 25 26 27 33 23 28 41 39 33 30 27 27 32 39 38 56 43 53 46 43 50 36 30 34 40 38 44 48 57
75 87 95 92 91 94 92 97 71 64 48 36 27 33 32 29 26 29 31 33 27 28 29 41 36 35 37 32 29 42 45 39 59 58 65 51 39 25 28 38 45 58 56 59 60
96 97 88 92 95 94 98 76 63 52 50 52 47 33 38 36 32 32 35 28 24 28 25 33 33 38 37 34 37 31 44 49 61 50 48 44 41 37 28 33 43 60 70 76 69
95 95 68 76 97 93 93 76 60 51 47 56 62 59 36 37 37 38 35 25 26 28 25 36 34 32 38 41 38 44 43 47 50 58 53 63 44 38 33 34 40 47 58 79 88
89 94 64 78 93 86 88 68 57 52 47 48 52 60 54 36 39 38 35 28 28 35 31 39 42 42 38 34 33 37 42 46 60 47 63 64 57 28 30 35 39 45 48 73 87
93 86 97 75 89 82 69 66 62 57 53 52 58 54 53 40 32 39 38 28 36 33 39 43 43 46 39 36 39 41 41 44 53 61 61 71 57 29 34 34 37 40 48 61 80
89 98 94 90 62 66 74 73 69 57 56 49 58 53 51 48 40 34 38 35 42 34 51 39 51 42 43 39 39 44 41 46 48 74 55 62 41 33 30 32 35 34 43 59 73
98 88 77 93 89 75 62 63 67 63 57 58 63 62 55 55 44 36 44 46 41 58 44 40 41 43 38 35 33 33 31 44 44 43 49 42 49 37 33 32 31 30 33 60 73
100 89 78 86 70 77 72 66 69 63 66 62 65 56 60 62 50 41 46 46 43 45 46 46 44 37 40 42 43 41 41 42 41 39 43 42 45 37 34 30 30 36 36 43 67
87 94 92 72 70 78 75 63 62 59 56 55 52 49 59 48 39 39 43 45 44 47 53 49 60 59 49 51 45 59 50 44 42 41 41 49 42 29 29 42 61 73 62 47 57

GFSSW_925_rhum_069.txt.gz
RH
91 87 83 76 69 67 62 50 46 42 39 42 42 40 34 34 27 38 45 19 14 14 21 24 24 26 25 20 18 18 22 23 21 19 18 57 60 64 60 58 76 81 74 81 100
99 97 94 85 78 72 68 63 50 43 39 40 42 41 35 33 33 54 26 19 15 16 25 22 21 24 24 23 20 19 23 20 17 16 35 56 62 57 58 62 78 79 83 98 100
92 100 99 98 87 81 73 68 63 50 42 39 42 43 34 30 43 24 25 24 22 24 22 20 19 18 20 22 22 20 21 19 15 19 48 52 58 58 56 56 62 73 94 96 99
95 95 91 98 99 90 83 72 68 65 49 41 43 45 34 40 16 24 18 22 24 20 23 22 20 25 26 25 21 22 18 18 23 50 49 46 55 59 55 60 66 65 75 84 91
91 95 97 100 98 99 94 83 70 69 64 47 42 48 37 39 27 14 26 24 22 21 22 23 24 25 25 24 22 21 26 42 42 48 48 50 53 56 80 81 69 74 83 86 88
80 80 90 98 100 93 94 95 81 69 67 56 42 50 51 36 15 27 30 27 24 23 23 23 21 22 24 25 27 32 40 46 50 48 47 40 49 47 73 75 82 84 82 80 87
69 79 82 96 100 88 94 98 88 77 68 61 41 57 68 34 15 21 38 25 25 22 23 18 18 22 24 26 30 37 39 37 43 43 39 39 44 57 73 76 79 83 86 88 88
81 81 77 80 89 90 93 98 90 80 72 45 52 64 48 18 16 15 18 22 22 27 25 21 21 24 25 24 26 34 34 37 33 38 36 35 41 63 74 75 71 76 78 77 78
87 78 84 70 86 90 91 95 85 79 57 62 67 60 41 22 21 19 17 19 23 25 26 22 22 27 27 28 29 29 32 36 30 32 32 34 43 53 71 70 61 69 67 79 78
88 85 79 70 72 91 90 80 74 62 76 76 78 60 37 21 23 26 26 25 20 26 26 27 31 30 31 27 34 33 33 33 32 27 32 31 39 54 68 72 61 68 71 77 76
89 85 77 75 68 88 94 81 41 59 82 59 46 45 30 28 34 28 24 26 24 26 31 31 32 35 30 30 26 29 32 34 31 26 29 32 37 54 63 73 74 70 68 67 79
83 85 84 70 72 88 100 81 49 67 80 59 55 50 41 37 41 33 23 23 26 27 34 32 36 28 27 30 32 34 34 32 30 28 33 34 32 40 56 65 67 65 71 64 62
81 82 84 78 74 98 93 88 60 60 86 67 56 47 43 39 40 35 24 26 27 32 36 37 30 32 33 36 36 35 36 36 32 32 32 35 30 37 45 54 61 62 61 64 64
75 80 81 86 82 97 88 68 73 76 74 44 48 47 48 42 39 32 23 24 29 31 37 34 32 34 37 36 35 39 33 33 37 33 30 28 30 28 35 49 57 60 64 65 68
72 74 80 86 99 85 70 74 77 71 40 24 55 41 46 33 25 38 22 24 34 33 33 30 40 39 38 37 34 34 34 35 34 34 34 35 30 24 39 41 43 49 55 58 58
77 76 84 90 90 88 79 81 78 87 74 34 48 51 52 42 24 26 25 24 28 36 36 30 31 34 32 32 32 34 36 36 40 41 43 37 33 28 26 31 35 36 44 51 56
83 75 86 93 86 80 82 81 93 89 43 34 52 46 46 40 26 29 30 31 34 39 42 32 32 29 30 31 32 33 36 41 45 47 42 40 41 31 30 27 28 30 41 44 51
82 76 81 90 74 93 86 93 98 62 56 42 36 46 40 32 28 28 33 33 28 30 38 35 34 30 30 28 30 36 35 47 39 44 37 42 41 25 29 28 33 38 38 42 47
81 72 89 92 84 92 96 95 67 62 49 42 31 48 46 31 28 30 37 32 27 29 31 42 33 33 35 33 30 41 40 37 53 56 57 43 33 22 27 31 35 37 50 42 45
81 90 84 76 78 99 98 73 69 52 49 52 55 38 51 38 33 33 37 31 28 28 27 35 34 39 39 34 38 35 39 46 50 50 47 36 36 28 24 24 33 37 42 50 54
84 96 65 72 80 96 92 77 58 51 48 53 64 62 39 39 37 39 36 27 25 30 27 35 35 34 38 40 37 44 43 44 41 46 46 47 34 31 27 27 32 34 40 45 55
92 96 68 62 94 87 80 63 53 49 48 54 52 61 59 39 43 41 36 31 31 31 30 37 44 45 37 33 33 34 37 41 54 46 54 51 42 26 29 30 32 35 39 41 54
97 94 73 72 92 82 68 64 55 55 52 56 56 55 54 50 37 42 39 30 34 33 37 42 42 40 33 34 39 40 39 42 48 55 53 61 42 28 28 27 28 32 34 42 57
98 98 98 91 63 64 73 67 68 52 56 51 55 54 51 50 50 36 40 35 42 33 50 37 46 40 36 31 37 48 45 44 44 59 51 47 37 30 26 27 26 29 30 32 50
97 99 85 92 84 71 62 60 62 62 56 59 62 59 57 53 52 43 42 48 45 62 45 40 41 44 37 32 36 38 38 46 42 42 47 37 41 30 27 27 27 28 30 31 35
98 100 78 81 68 73 67 67 65 58 56 60 64 56 51 60 50 46 44 48 46 52 51 47 43 48 42 46 40 40 36 41 43 39 37 38 39 31 29 30 29 36 44 36 36
86 93 86 68 73 74 67 62 66 53 55 48 53 54 62 47 48 47 45 44 45 42 53 51 58 58 49 49 46 58 49 42 40 39 38 42 32 33 30 31 42 52 58 63 62

GFSSW_925_rhum_072.txt.gz
RH
99 100 96 96 88 80 75 67 67 60 47 40 35 34 37 34 26 53 25 21 18 18 24 25 23 20 15 10 12 12 14 12 13 18 14 27 36 50 42 40 47 51 51 58 100
90 93 99 99 99 94 82 77 68 65 61 46 36 33 36 32 45 29 24 18 11 18 23 16 15 19 17 13 14 14 14 12 11 11 13 26 43 41 44 49 49 55 58 76 100
86 87 93 90 94 99 97 88 80 72 67 60 42 34 32 31 34 18 24 22 15 21 21 18 15 16 17 16 16 15 15 14 12 14 15 26 34 38 36 32 34 46 59 91 90
91 90 94 96 96 96 95 94 93 84 74 68 56 37 30 53 12 23 20 25 23 32 21 16 14 17 18 17 15 18 15 16 14 26 30 29 31 34 35 41 44 44 56 87 87
82 75 82 87 92 94 99 85 91 93 86 78 65 49 44 25 16 16 14 27 27 28 17 16 18 19 18 18 18 20 18 26 24 31 32 30 33 36 38 54 49 46 66 80 90
88 83 73 78 86 92 99 87 92 93 91 87 73 52 47 26 16 30 33 34 25 22 17 16 17 17 19 20 21 24 28 31 32 32 30 28 32 32 44 62 72 78 74 79 86
90 86 77 83 76 86 89 91 93 90 89 85 69 63 44 25 19 28 30 27 25 22 16 15 16 19 19 21 24 27 30 30 29 28 26 26 32 33 44 52 55 67 80 83 88
87 87 86 78 79 74 86 90 85 86 81 77 51 72 32 25 24 24 22 28 26 24 21 21 19 20 21 20 24 26 26 24 25 25 26 29 25 35 43 48 45 55 64 85 90
86 89 88 82 78 68 78 79 75 83 80 60 74 56 26 26 25 18 17 18 22 26 26 22 22 21 21 21 24 22 21 21 23 22 24 27 23 32 38 37 36 46 49 59 78
83 86 89 86 72 68 73 62 73 77 80 86 67 49 28 16 20 25 24 16 18 22 23 22 21 23 20 20 25 21 21 22 22 20 22 22 22 30 41 37 36 37 41 51 53
78 81 84 85 75 70 88 70 45 48 76 41 32 28 22 22 32 24 26 24 17 20 23 23 25 26 18 17 17 19 21 22 18 19 21 20 20 23 40 44 40 42 41 49 45
75 78 80 84 78 76 94 60 59 60 55 41 40 36 33 32 31 25 22 19 21 23 22 26 28 20 19 20 22 21 23 23 20 21 25 20 20 18 34 42 39 39 38 37 52
83 74 77 81 81 81 82 66 70 63 61 47 43 34 27 30 26 21 21 17 19 21 23 22 21 21 22 24 24 23 25 25 23 23 23 24 21 22 24 34 38 38 35 36 36
79 78 77 79 74 69 69 71 82 78 54 30 40 36 30 24 28 16 21 17 19 20 19 21 18 24 25 23 24 27 21 23 24 27 23 23 21 17 20 28 36 39 40 38 38
70 76 76 82 86 77 70 91 83 74 24 23 39 31 29 21 17 19 19 19 19 21 23 22 23 26 26 24 24 25 23 25 26 26 25 23 19 16 20 21 20 29 36 38 38
62 68 78 84 86 86 88 93 78 68 31 24 41 44 40 29 23 20 21 18 15 19 22 18 22 24 21 23 24 25 28 28 29 26 30 23 23 16 16 17 17 18 22 32 36
62 56 85 90 67 74 86 77 67 56 23 20 44 44 34 28 26 23 23 26 24 30 28 22 22 20 23 25 26 27 29 34 39 35 31 28 27 19 14 16 19 18 19 22 28
75 61 82 94 80 93 97 92 76 21 28 30 32 42 40 23 22 24 23 25 19 19 20 26 29 22 20 21 21 25 26 31 36 35 28 29 25 18 17 18 17 22 24 24 25
80 80 91 92 87 96 98 88 33 23 28 26 27 46 43 25 22 25 25 22 20 20 22 25 22 19 22 21 20 31 31 25 34 42 36 22 20 14 14 15 19 21 25 29 26
83 84 82 77 77 98 94 62 33 23 25 41 28 34 46 28 27 26 26 21 20 19 15 21 24 22 28 25 28 26 23 34 32 40 37 23 23 19 16 16 19 16 16 27 30
90 93 66 77 66 98 88 56 36 28 32 41 45 34 34 34 21 26 24 23 18 22 19 18 22 34 32 31 24 33 31 28 27 30 35 34 24 15 15 15 18 17 21 22 30
86 99 62 79 96 92 81 46 38 30 38 48 47 51 50 32 30 22 23 19 20 19 26 19 23 28 26 23 23 22 24 27 32 32 34 38 30 15 16 18 19 19 19 22 27
94 95 70 71 94 92 63 53 36 38 33 45 48 44 48 50 35 28 25 25 20 21 22 23 27 32 28 27 30 29 26 26 28 34 31 45 31 19 19 20 18 19 18 21 25
90 98 82 90 54 62 60 53 51 37 38 35 41 42 48 47 41 37 35 33 27 22 40 29 23 27 30 21 17 26 22 23 25 35 28 25 23 17 17 18 16 16 19 21 22
94 95 60 94 91 62 54 43 47 47 41 37 46 44 43 48 46 44 36 42 36 53 28 26 26 24 20 17 16 18 17 20 26 23 26 24 20 16 18 17 16 17 21 21 19
95 78 54 53 69 72 61 61 44 41 41 39 44 41 41 44 39 53 41 38 39 43 33 29 27 27 28 22 23 23 21 20 24 22 23 24 21 15 15 18 20 20 22 23 23
68 50 45 62 61 84 73 60 53 36 36 34 36 29 43 44 48 43 41 40 38 40 42 39 31 36 35 31 33 51 34 24 24 25 25 26 19 16 18 20 21 22 30 33 39

GFSSW_925_rhum_075.txt.gz
RH
90 91 91 97 98 91 94 92 85 81 72 65 54 38 24 25 26 33 26 21 16 18 24 20 17 15 11 9 8 8 12 12 10 11 30 14 24 32 32 29 29 34 39 56 77
88 90 87 90 93 92 95 95 93 92 87 78 62 52 25 24 49 24 20 18 11 16 21 15 13 13 13 10 10 11 13 11 9 9 10 12 21 26 28 28 29 38 43 76 84
84 88 88 87 91 93 98 97 93 88 93 89 78 59 39 27 31 15 21 20 10 15 20 14 11 12 14 12 11 11 12 11 10 12 13 14 19 24 25 23 29 30 39 59 75
86 83 74 77 82 88 89 94 96 87 89 90 86 70 44 46 18 21 22 22 16 23 20 13 11 13 14 14 11 13 10 11 12 13 19 19 19 21 22 28 32 30 35 59 72
88 89 86 70 72 78 84 86 93 87 86 90 88 76 50 21 17 17 19 17 25 26 18 12 12 13 15 13 13 14 11 12 16 17 21 20 20 23 22 35 46 38 54 77 74
85 88 87 85 71 72 74 86 86 86 86 87 85 80 51 29 14 17 24 36 25 22 15 13 14 13 15 14 15 14 15 16 18 19 21 22 20 21 34 40 49 56 60 72 90
80 84 85 86 82 68 65 70 79 64 77 81 80 75 43 30 15 15 23 22 19 17 13 13 13 14 14 16 14 18 20 18 18 17 18 19 32 62 29 31 43 54 64 74 87
78 82 84 86 85 76 65 58 60 65 67 72 67 62 39 17 17 16 16 22 21 19 17 16 17 16 17 15 16 21 19 24 54 24 18 18 58 59 30 29 35 46 60 81 86
75 78 84 86 85 82 64 51 40 57 78 69 66 53 28 22 20 15 14 16 20 19 19 19 18 18 17 18 19 18 24 27 22 14 16 19 21 26 26 27 33 35 41 54 94
77 74 79 83 85 82 64 36 40 82 78 68 53 45 28 15 13 13 12 14 16 18 20 21 19 21 19 18 23 21 27 16 15 23 16 16 16 17 25 25 26 32 39 39 45
71 77 75 77 81 82 72 45 38 47 54 26 25 24 17 15 19 17 12 13 16 19 23 20 22 22 17 16 14 15 16 17 15 15 17 16 16 15 25 28 32 29 39 42 42
76 81 80 74 78 81 79 41 30 52 40 21 21 23 26 23 25 15 16 18 19 21 19 20 24 16 15 14 15 17 18 18 16 14 18 17 17 15 20 24 29 33 30 35 36
76 70 83 79 75 74 58 39 44 54 46 24 18 22 18 20 28 16 15 16 18 20 18 21 17 15 18 17 19 19 20 21 21 17 17 17 18 15 16 22 25 29 27 31 32
72 67 69 79 74 52 43 45 53 66 41 16 30 28 23 18 24 14 14 13 15 18 16 18 14 18 19 19 19 23 17 19 20 21 34 17 26 24 14 20 24 28 28 27 31
66 64 67 76 79 64 56 63 70 65 26 15 23 22 20 22 10 15 11 14 16 16 16 18 16 19 21 20 17 21 19 20 20 22 20 17 15 16 12 15 17 22 27 26 27
77 62 71 68 77 74 78 80 72 46 28 16 26 30 34 27 21 12 12 14 12 14 15 15 12 15 17 16 18 18 22 22 22 23 31 19 18 18 13 11 14 13 20 24 25
81 71 63 62 73 62 66 81 53 31 11 15 24 30 33 29 26 18 16 21 20 24 23 18 17 16 17 22 19 21 25 35 38 32 34 23 20 14 16 11 13 13 14 17 22
81 77 69 61 68 82 96 91 40 16 16 20 23 34 36 27 26 20 19 22 17 16 19 23 24 18 18 20 23 22 22 32 46 39 29 24 21 15 12 12 11 12 13 14 17
85 84 68 64 74 88 99 93 37 17 10 14 22 33 37 35 24 22 21 20 17 15 20 21 19 14 15 16 17 20 25 18 29 25 31 22 16 13 11 11 11 12 15 17 20
90 84 66 62 80 88 99 84 31 15 10 15 22 20 31 38 32 25 21 15 17 14 13 16 21 14 16 16 16 21 20 29 26 37 48 22 19 16 14 12 14 13 13 19 21
95 97 64 62 86 93 96 72 42 18 11 16 23 23 22 35 33 29 22 17 15 15 14 15 19 19 18 23 21 23 25 23 21 29 38 35 21 18 13 12 13 13 13 14 17
95 100 56 67 96 96 93 54 41 26 19 17 19 24 23 25 35 32 28 18 16 15 20 17 20 24 22 17 14 15 21 21 30 28 26 28 27 14 13 13 14 13 13 13 15
98 93 64 65 91 80 58 48 42 34 24 24 30 29 35 35 42 31 27 20 16 17 19 18 22 29 24 19 20 22 20 19 21 23 29 52 35 12 13 14 14 14 13 12 15
98 99 84 88 48 49 50 47 45 34 33 19 27 24 31 43 39 35 34 28 28 18 34 28 21 25 30 22 19 24 19 18 20 38 32 27 20 14 12 15 15 14 13 13 12
97 79 54 93 89 56 42 35 42 39 31 28 25 27 31 37 38 34 36 34 32 40 25 24 27 21 18 15 14 15 17 17 19 21 28 22 18 13 12 12 12 13 13 14 13
97 56 46 41 59 61 53 45 36 31 28 31 35 26 26 28 36 28 31 44 34 33 28 24 31 24 22 18 16 16 14 15 14 14 16 16 16 12 12 11 12 13 14 16 16
83 44 45 46 52 64 59 48 37 27 26 24 27 30 31 27 36 39 37 38 39 40 35 30 33 30 36 21 21 34 20 17 16 14 17 22 17 13 13 13 14 13 13 19 22

GFSSW_925_rhum_081.txt.gz
RH
82 79 80 78 71 70 78 74 73 83 80 78 79 67 38 52 39 49 36 21 26 26 15 19 21 20 19 23 18 15 20 20 18 20 15 21 24 20 46 60 63 71 56 71 95
90 86 93 88 79 70 65 70 78 80 78 74 76 64 36 52 42 53 23 21 20 17 15 19 22 20 22 19 18 16 22 20 15 14 15 16 28 24 39 51 56 58 48 70 94
81 81 92 95 89 81 74 62 63 69 72 76 77 62 34 46 63 25 20 23 18 14 11 17 18 17 17 16 17 17 18 14 12 12 14 15 23 46 44 54 59 54 59 76 95
81 82 81 82 83 85 82 73 61 58 63 67 69 67 46 55 31 24 19 19 16 11 14 17 21 18 19 19 15 18 14 14 13 11 15 16 24 53 67 64 52 82 88 84 94
82 82 79 80 80 80 80 80 72 58 54 52 58 64 70 57 45 19 21 18 18 13 20 22 24 19 19 16 16 19 16 14 18 27 24 20 40 43 45 54 51 76 83 90 96
73 79 80 79 79 80 81 78 73 57 57 47 51 68 90 65 15 21 22 18 20 20 19 20 21 17 17 19 20 17 17 16 22 26 24 26 33 35 40 44 52 77 89 88 96
72 72 76 78 78 79 80 81 76 54 40 56 47 88 85 59 7 7 19 20 20 22 24 19 17 18 18 22 19 19 23 22 23 25 27 26 37 42 39 45 51 62 80 87 89
65 70 72 72 72 76 78 76 68 30 25 39 56 99 86 16 10 17 20 20 17 22 23 19 15 21 19 20 22 24 23 28 33 28 28 28 42 40 40 54 55 62 86 88 89
66 65 69 71 69 73 73 74 46 15 24 46 91 89 68 26 27 19 17 19 17 15 18 17 16 22 25 31 36 30 35 31 35 28 32 39 46 43 44 41 54 70 92 90 95
78 71 66 75 72 72 71 64 9 24 40 81 80 72 53 26 15 14 17 16 16 20 23 23 24 30 34 36 46 36 34 36 38 32 35 35 39 53 49 51 62 92 97 88 88
80 79 68 66 70 69 71 63 43 62 65 66 57 43 24 23 22 14 15 15 16 17 32 29 34 39 34 30 26 26 26 34 34 25 29 27 35 56 52 52 68 81 94 95 86
79 77 76 64 62 59 62 77 56 61 65 42 42 39 35 32 28 20 17 20 22 24 26 32 36 28 25 23 23 22 24 24 20 19 21 24 22 28 38 48 55 60 67 77 95
79 74 75 69 52 52 68 67 65 72 68 45 36 29 24 16 16 16 17 21 20 22 25 35 30 23 24 24 24 23 22 24 24 22 21 24 30 23 26 42 42 45 57 69 87
76 77 78 76 62 67 67 61 64 74 94 40 25 26 21 17 20 11 13 22 20 21 22 27 23 24 24 25 21 25 21 20 25 25 35 26 44 28 30 40 46 43 52 66 70
75 80 79 80 70 66 55 61 58 76 85 17 14 14 15 19 17 17 13 18 27 19 22 25 24 25 25 22 20 25 22 24 26 31 33 31 40 34 27 35 43 49 47 52 62
75 71 82 84 73 56 65 65 75 90 81 20 25 28 26 18 19 17 16 16 19 20 20 21 18 18 19 18 19 18 22 26 28 33 48 34 37 40 32 30 30 39 48 46 56
76 75 86 82 75 59 60 77 98 96 17 13 21 28 31 31 22 24 23 22 26 36 35 26 23 18 15 21 20 22 27 53 66 66 64 51 49 34 25 22 24 38 38 44 44
80 77 77 87 70 69 70 95 100 48 40 15 13 21 34 28 30 30 28 30 22 28 33 36 38 22 16 18 24 25 30 62 64 85 82 66 60 35 23 19 17 18 31 36 41
80 88 96 87 72 70 91 94 70 49 30 25 20 19 20 30 32 31 32 32 23 22 35 34 30 18 16 18 22 29 36 30 55 64 72 63 44 27 21 19 16 14 15 35 38
98 97 88 69 75 74 98 74 56 42 34 32 46 34 34 34 38 37 36 27 27 19 21 29 36 21 17 17 21 23 24 42 46 74 82 45 47 41 27 23 18 17 26 29 31
100 98 78 72 75 94 90 73 57 40 34 40 40 43 40 46 49 62 50 27 24 22 20 23 32 31 24 22 25 29 30 33 34 48 59 60 50 36 29 23 19 18 20 25 29
96 100 83 77 98 94 88 63 52 45 36 37 36 39 43 41 43 45 52 36 24 25 26 28 36 42 33 22 18 21 27 31 63 49 55 62 54 27 24 24 23 20 20 20 20
99 98 86 79 96 95 70 64 61 61 51 44 45 36 35 39 50 47 54 34 23 29 33 30 41 50 38 27 22 24 25 24 32 44 53 79 62 24 25 21 17 16 16 18 21
100 99 98 96 84 80 88 72 71 52 57 49 45 36 39 45 40 56 77 51 32 35 56 40 40 40 49 37 30 31 24 24 31 55 49 54 39 29 26 21 19 19 23 20 23
100 98 86 97 96 81 68 62 70 64 47 43 48 48 48 47 49 59 70 81 43 53 42 40 52 39 34 26 26 27 26 25 27 33 39 38 36 29 24 19 18 23 20 22 22
99 97 76 71 79 94 83 75 74 54 47 44 50 42 42 50 47 59 77 87 85 46 50 51 50 46 44 35 28 27 26 25 23 24 24 25 29 21 20 16 18 18 24 24 22
94 77 72 79 82 92 85 71 68 54 46 35 36 39 42 41 42 57 83 87 82 62 59 60 70 53 60 40 39 49 31 26 27 23 25 29 24 19 17 15 15 16 18 20 22

GFSSW_925_rhum_084.txt.gz
RH
87 92 94 92 92 86 73 66 58 61 68 64 65 65 37 32 20 26 48 20 22 22 21 21 22 20 20 23 21 17 28 31 25 18 18 18 22 46 58 64 63 66 58 61 95
90 90 92 93 84 81 83 75 69 61 59 60 59 61 30 40 52 54 16 20 23 25 18 18 23 24 30 25 21 22 27 24 17 15 17 17 30 38 52 61 56 61 59 64 91
86 87 88 89 85 80 76 74 73 70 67 60 52 51 30 44 76 33 18 22 22 19 16 17 18 22 24 18 20 20 25 18 17 15 16 17 50 56 54 67 65 61 64 79 95
79 82 85 83 80 80 79 76 72 69 72 67 60 48 37 62 11 24 22 20 20 15 13 17 20 23 20 20 17 18 18 18 15 20 20 21 47 52 63 64 79 89 82 94 88
76 76 76 79 82 81 79 76 74 70 71 71 68 50 58 73 59 5 19 14 19 13 16 19 23 25 26 19 19 21 19 18 22 26 24 29 35 41 59 64 82 84 84 94 90
70 72 72 73 76 75 73 75 75 72 69 71 56 62 98 77 12 13 23 25 22 16 18 23 26 24 23 21 23 19 22 23 20 23 22 27 35 40 45 61 82 86 94 96 94
64 64 64 68 70 71 70 71 72 69 57 60 61 98 82 53 3 8 13 25 25 25 24 20 19 22 22 25 21 22 26 25 21 22 27 31 37 37 41 50 81 88 93 94 94
76 71 65 63 67 71 70 68 68 50 33 45 81 99 82 12 7 14 15 20 17 20 24 20 22 23 25 23 26 28 27 29 25 27 28 27 39 36 42 55 78 91 95 97 93
79 77 73 63 60 67 65 61 45 30 36 41 93 95 77 29 38 22 23 23 19 19 22 24 24 28 24 32 41 35 42 35 31 30 31 33 36 39 44 55 74 97 90 84 96
83 78 79 73 60 52 53 47 25 44 53 84 90 84 56 31 20 27 20 20 22 20 22 26 28 32 37 41 49 45 40 34 40 29 36 38 38 35 49 53 77 99 92 82 87
78 77 78 71 65 58 52 56 60 66 67 77 70 63 33 26 30 29 22 22 18 18 33 30 38 40 36 36 32 33 35 36 30 27 34 37 38 44 56 72 94 99 90 80 81
69 76 77 70 63 62 65 76 68 77 94 63 54 46 49 43 52 41 27 21 24 27 28 35 42 31 30 32 33 33 36 34 25 21 29 27 30 36 59 68 80 94 95 85 78
80 73 76 73 66 62 58 69 69 72 98 62 41 37 39 36 46 46 21 24 25 27 27 31 34 27 30 32 34 34 34 32 25 22 22 28 31 34 44 53 63 73 84 90 86
77 79 71 81 62 68 56 56 59 76 97 56 45 34 31 26 27 21 14 16 30 27 24 26 22 30 33 33 30 38 26 24 26 30 36 27 46 33 46 59 60 62 72 88 88
78 79 73 86 86 77 48 65 56 89 37 17 24 21 25 23 19 19 12 14 27 25 24 28 26 30 34 31 27 32 26 25 27 31 36 35 44 37 45 61 59 58 66 79 89
78 77 76 88 84 64 70 58 74 87 76 36 21 28 28 26 20 18 17 17 19 31 27 22 20 24 26 25 25 23 23 30 37 39 51 51 50 47 39 40 53 48 58 70 78
70 76 80 84 82 65 68 77 89 94 32 19 20 30 33 28 24 22 22 24 31 42 40 28 23 20 20 24 23 24 31 48 57 58 62 62 57 45 32 28 41 48 47 64 68
75 75 81 77 77 79 78 92 99 52 44 27 30 28 29 21 32 24 26 35 25 28 39 40 42 26 23 26 26 30 32 60 58 76 69 60 54 43 28 27 25 36 44 48 64
78 86 98 80 69 86 85 97 52 43 37 38 36 33 26 33 47 55 40 30 30 22 42 45 38 23 21 20 22 29 38 33 60 63 74 64 50 34 27 22 17 34 39 52 50
98 96 85 74 70 94 90 67 54 31 29 36 50 41 44 42 47 67 81 39 34 27 23 36 42 26 21 20 21 27 30 46 55 77 74 62 57 47 29 21 22 22 44 46 48
100 98 78 68 79 97 90 75 49 34 30 43 39 43 39 42 42 48 75 60 42 34 28 25 39 38 26 30 27 32 37 39 42 60 74 67 52 38 30 24 22 24 33 40 44
91 98 83 90 98 90 94 62 49 49 44 45 47 42 47 36 46 45 46 51 36 47 47 29 34 42 36 26 22 26 29 37 61 55 59 64 53 28 28 26 26 23 22 30 39
97 95 92 86 95 94 75 76 65 56 58 58 52 46 43 48 54 45 50 40 54 76 40 36 39 57 38 33 29 31 28 30 44 54 56 77 57 32 32 28 26 25 23 24 27
100 99 98 98 84 69 79 87 84 54 63 57 58 51 59 62 47 57 49 45 64 59 74 44 49 35 43 37 34 34 31 27 34 51 48 59 41 33 30 29 27 26 22 25 27
100 99 85 96 96 86 76 64 78 73 57 56 65 66 64 74 59 54 44 72 63 69 70 53 53 45 38 33 33 32 33 31 30 36 41 37 40 36 32 30 26 23 26 25 25
99 98 91 81 73 96 80 80 74 61 62 60 66 53 52 65 56 50 56 78 76 78 87 62 56 43 50 40 34 45 36 30 31 30 32 35 36 28 22 28 21 24 26 27 24
94 84 82 73 79 86 84 86 68 63 58 53 54 54 58 51 43 42 53 75 82 88 95 91 73 57 61 42 40 59 50 39 35 32 28 37 32 23 24 23 21 23 23 27 26

GFSSW_925_rhum_087.txt.gz
RH
96 96 95 96 85 80 76 72 70 67 66 60 49 35 29 27 18 16 42 12 26 19 18 22 21 21 21 24 23 22 32 36 28 22 18 16 26 48 54 55 64 69 58 71 97
89 92 92 94 88 81 80 76 70 71 70 67 58 31 22 33 49 64 9 21 25 25 22 22 24 25 30 26 25 26 33 27 21 18 19 19 28 49 58 60 62 59 64 68 96
83 84 85 86 82 82 83 80 76 71 74 71 62 39 16 40 74 19 21 22 25 29 20 18 19 21 27 26 23 24 29 22 19 19 20 19 46 51 57 67 66 64 69 76 97
73 74 75 75 86 74 74 74 70 71 72 70 65 51 18 67 7 27 23 23 22 21 19 17 21 26 24 22 19 20 20 19 18 17 24 23 45 53 62 56 76 87 75 90 90
65 66 66 67 70 71 70 69 69 66 70 71 61 58 56 79 52 4 15 16 20 17 16 18 24 26 28 23 20 22 20 20 21 23 29 38 39 42 68 87 88 87 93 86 91
74 73 67 61 58 62 65 66 66 64 64 66 73 87 91 69 9 11 20 29 24 17 19 22 22 26 25 26 24 22 23 26 24 24 27 32 40 41 51 83 91 91 94 98 84
78 75 72 69 62 54 53 53 52 54 55 68 80 98 91 40 2 6 13 18 24 25 22 21 21 22 24 28 25 23 27 28 24 22 26 28 35 47 45 88 90 93 94 96 86
84 76 74 70 66 63 56 46 39 40 43 67 85 94 84 11 8 7 11 18 8 11 22 22 24 25 27 26 30 28 30 36 27 25 27 27 38 39 57 90 96 96 97 88 85
69 80 74 72 68 61 52 42 42 50 54 71 92 89 70 25 41 22 31 31 19 16 20 24 28 34 30 34 41 38 43 39 35 26 29 33 36 39 54 71 94 97 94 84 90
65 58 72 73 72 61 46 50 63 72 82 90 91 69 42 27 25 30 26 29 23 24 26 27 32 36 42 42 52 48 44 36 40 32 36 40 42 42 55 68 90 93 87 92 95
80 72 47 68 68 56 58 62 68 64 70 76 73 71 56 37 37 34 36 27 23 24 34 34 41 43 40 39 33 34 38 41 34 28 33 34 41 34 50 61 93 93 90 94 92
80 80 58 50 71 50 61 72 71 79 92 65 63 64 56 50 53 38 30 29 29 32 31 34 46 32 33 34 36 38 42 42 35 28 31 35 36 29 59 62 78 92 97 92 84
76 76 74 54 71 56 67 63 65 69 96 68 58 55 46 42 46 40 40 26 28 33 34 34 32 29 34 37 38 38 42 42 40 31 30 29 35 30 45 60 75 89 89 88 88
79 80 79 67 66 67 56 62 58 74 97 65 57 40 32 32 39 32 28 22 29 32 30 31 23 26 36 36 36 43 34 34 36 39 42 29 49 36 37 64 74 81 95 94 88
80 79 80 76 98 85 51 65 58 91 45 18 31 28 31 25 18 22 26 23 26 32 28 33 28 27 30 36 33 37 32 36 38 38 38 36 46 41 56 66 70 71 82 89 92
77 77 78 78 91 74 73 55 82 88 65 31 23 35 34 30 26 20 17 15 15 21 30 28 22 25 23 24 30 29 32 33 43 44 55 47 50 53 47 48 52 58 61 71 88
76 68 76 84 86 76 70 75 95 87 41 29 36 32 28 29 28 23 23 24 30 30 25 29 32 25 23 30 27 34 38 56 59 57 62 56 69 54 36 33 38 51 55 59 74
73 74 78 82 86 70 82 78 95 55 55 36 36 32 28 40 41 49 28 30 24 29 38 22 33 31 23 26 32 36 37 62 57 73 57 60 66 46 35 30 32 43 44 52 69
76 90 100 81 84 83 88 93 54 50 40 40 33 43 44 40 44 54 65 57 32 26 40 47 41 26 22 22 23 32 40 32 50 67 78 62 52 40 34 32 24 45 50 56 68
98 95 84 72 78 90 88 69 57 36 34 33 42 43 50 42 42 53 67 60 59 45 37 35 43 31 25 24 26 27 32 45 60 73 80 64 57 52 38 25 24 41 53 53 60
98 98 66 72 91 96 91 74 53 38 34 39 46 38 35 40 45 51 64 56 51 50 52 60 43 37 28 33 34 36 32 40 42 63 54 70 59 43 41 35 23 23 45 54 54
90 98 70 83 98 91 87 58 49 52 45 54 50 46 52 52 49 45 49 50 42 54 64 66 50 46 34 27 25 27 29 35 54 58 64 66 53 30 36 31 28 24 25 41 52
93 87 84 87 93 93 67 64 58 53 51 61 63 54 49 54 67 55 47 35 38 60 75 83 85 62 43 35 27 31 32 35 48 59 68 69 59 31 32 34 29 28 28 25 43
97 97 94 97 85 85 76 76 80 66 62 55 57 57 66 64 56 69 60 48 49 62 73 77 95 86 55 42 35 38 32 33 43 62 56 56 46 34 32 35 29 26 28 26 29
98 97 88 97 96 94 69 68 76 74 69 68 76 72 73 76 72 69 56 46 48 75 64 86 98 74 52 31 29 36 37 36 39 42 49 42 46 35 34 32 29 29 27 24 26
99 99 98 86 77 97 97 88 70 67 63 69 71 59 67 80 66 61 48 46 71 84 84 83 99 93 60 46 30 30 30 38 43 41 38 36 37 32 30 32 30 26 25 28 26
95 97 97 91 78 89 86 84 77 62 57 59 59 67 71 66 54 52 50 51 58 68 89 97 99 92 74 46 47 59 47 36 33 36 33 42 39 30 33 31 30 29 27 29 29

GFSSW_925_rhum_093.txt.gz
RH
86 94 95 94 86 75 86 89 69 62 64 73 58 32 12 13 5 16 25 10 27 18 28 26 22 23 21 23 22 22 25 27 24 25 18 16 21 33 44 45 53 54 55 56 95
92 90 89 90 84 73 65 60 56 55 52 58 51 38 25 15 25 51 27 26 26 29 24 23 24 26 26 27 24 22 27 25 21 19 18 17 21 19 44 50 47 52 56 85 94
73 75 81 93 93 84 65 54 50 47 46 42 39 40 28 24 38 8 30 25 30 29 24 23 24 25 26 27 26 26 24 24 20 18 18 19 20 28 42 35 38 37 45 75 93
76 74 72 81 89 80 59 49 45 42 41 41 47 47 29 47 11 22 26 21 24 30 25 21 23 26 28 27 24 26 23 22 17 18 23 22 25 38 44 25 58 48 66 67 73
87 86 88 96 96 85 55 47 38 33 32 55 92 60 46 28 17 3 7 7 15 24 26 21 23 26 27 26 22 24 20 19 18 19 24 25 27 29 40 39 64 74 73 70 76
80 73 61 52 54 48 40 30 27 26 48 73 100 94 93 28 3 6 9 31 31 25 21 20 20 22 25 26 24 23 22 20 23 23 23 24 23 40 24 46 78 83 81 77 79
77 59 47 42 34 28 22 16 16 38 58 70 100 96 84 26 4 6 16 16 11 16 22 21 21 26 26 28 25 26 30 27 26 23 22 24 29 38 29 71 75 82 88 76 75
95 87 72 61 48 36 18 14 26 58 56 57 99 91 66 18 13 12 6 11 10 9 26 26 25 25 25 26 30 31 32 30 25 25 24 28 26 26 34 65 66 76 83 79 74
85 92 86 66 54 42 17 15 50 78 50 83 91 87 52 19 32 22 34 30 32 29 19 24 27 31 33 34 34 38 26 34 26 26 28 31 30 25 52 60 58 73 75 74 75
80 93 84 57 59 40 18 24 66 74 83 88 89 70 28 29 47 36 38 40 30 35 34 28 36 42 44 40 34 33 39 40 32 28 28 27 28 24 27 48 50 67 75 74 73
75 75 78 67 61 36 43 54 66 63 65 56 56 70 52 44 36 42 40 36 29 31 26 39 37 50 37 37 32 33 35 34 33 29 29 25 26 24 22 35 48 65 74 76 76
74 71 75 70 59 47 60 71 75 81 92 63 58 58 52 53 51 33 32 43 35 34 34 41 33 34 32 38 39 35 35 36 32 28 31 29 27 22 25 28 36 49 68 70 76
70 73 75 69 52 56 71 76 77 82 93 67 55 58 55 54 52 37 30 32 36 35 36 30 33 30 35 38 42 39 40 39 36 31 30 31 31 27 24 38 45 55 56 65 74
70 72 73 69 60 75 64 60 62 86 85 57 63 52 51 46 52 35 27 20 28 36 34 34 27 31 37 35 35 38 34 35 37 37 36 32 37 32 25 24 32 53 70 71 73
70 65 71 76 85 83 74 61 57 92 26 24 39 34 34 39 32 25 29 30 26 28 33 39 31 33 33 37 36 36 33 36 36 41 41 36 41 33 35 30 25 26 61 69 69
64 64 78 76 83 76 78 52 90 66 37 38 33 33 31 36 34 35 32 27 28 30 31 28 26 29 28 25 35 34 36 36 44 46 55 44 40 34 32 29 25 30 42 64 70
69 73 81 80 79 79 69 71 86 63 34 46 36 29 37 33 44 40 37 40 28 43 37 28 29 26 26 28 36 36 37 44 56 60 50 40 46 33 31 27 27 25 27 61 66
76 74 79 77 86 79 73 60 94 38 59 35 27 32 43 18 22 35 49 52 50 38 34 24 20 26 25 28 32 38 36 42 47 53 42 58 53 36 33 28 30 32 30 48 65
74 85 92 73 78 83 78 56 34 50 37 37 24 29 37 27 21 21 40 59 55 49 49 58 30 28 20 24 25 37 44 30 39 57 54 44 49 36 31 29 28 25 29 38 57
89 98 89 68 83 87 84 42 34 43 35 33 28 29 34 30 25 30 24 45 54 52 52 63 75 34 28 23 23 27 33 47 48 48 44 44 52 32 31 25 24 24 28 40 53
91 97 66 73 90 90 90 69 55 44 39 40 46 42 43 42 40 30 33 40 47 28 42 63 74 60 41 34 32 33 33 35 40 52 43 42 42 42 32 26 28 26 29 32 47
89 99 93 84 97 88 80 64 51 46 41 49 53 48 41 34 30 30 28 38 31 40 49 74 78 85 58 41 35 29 34 31 42 40 59 48 36 29 35 31 34 31 27 27 42
100 90 99 93 90 88 68 62 56 58 51 52 66 58 60 58 52 52 56 41 48 48 50 42 82 77 57 43 48 52 49 49 41 44 42 54 41 32 32 34 30 29 27 30 34
98 96 93 98 86 74 71 69 70 58 58 53 57 58 61 65 64 67 65 52 50 44 49 52 64 52 54 70 62 69 64 54 72 68 44 42 33 31 30 32 27 28 29 29 30
100 94 75 94 94 95 87 71 75 72 60 63 68 61 57 62 59 62 55 54 48 46 50 65 83 74 59 50 46 55 59 54 65 71 55 36 35 30 26 26 25 25 29 29 27
98 95 96 85 74 82 79 85 74 68 61 65 69 62 68 81 66 65 65 62 69 57 71 83 98 82 77 62 60 58 50 57 63 66 54 36 33 31 29 30 30 28 28 28 26
86 86 98 74 76 85 78 77 71 60 62 56 55 88 100 82 74 73 68 66 72 79 73 75 81 96 78 63 65 75 57 61 56 49 39 45 35 31 31 33 31 29 30 29 28

GFSSW_925_rhum_096.txt.gz
RH
82 88 91 92 84 79 68 62 51 42 36 34 27 27 14 12 9 26 14 11 25 17 33 34 26 18 16 12 14 13 14 13 10 11 10 12 15 14 18 21 25 27 27 29 51
90 93 94 95 95 87 67 51 45 40 33 28 30 28 19 14 42 18 17 32 22 28 28 22 15 15 12 12 13 14 13 11 10 9 11 12 15 15 18 17 22 23 26 39 55
86 96 97 96 92 90 55 50 46 26 19 21 37 43 27 20 22 7 27 23 31 32 22 17 15 14 14 14 15 14 15 9 12 11 12 12 13 13 17 16 13 15 16 28 49
87 87 84 79 75 57 36 34 34 22 21 30 46 70 32 54 5 15 25 19 30 35 23 20 19 19 18 18 14 19 14 12 11 10 14 14 12 15 14 15 13 22 24 37 47
79 75 66 53 37 27 22 18 15 17 24 41 67 99 54 19 8 5 6 10 26 35 25 20 20 19 17 14 14 21 14 12 11 12 12 14 16 15 14 12 12 24 44 43 44
82 77 65 56 42 27 16 15 14 18 29 50 81 97 58 20 6 9 13 32 25 20 18 21 18 14 14 14 16 12 15 12 12 12 13 17 15 12 14 11 23 39 42 48 51
83 88 83 85 53 29 17 14 14 25 45 58 74 87 55 18 11 16 16 17 22 14 10 10 15 17 16 18 15 16 18 14 14 14 14 12 16 13 12 19 27 37 44 47 47
84 81 82 69 50 29 18 13 21 46 61 40 86 71 38 23 21 21 13 12 12 13 10 10 17 17 18 17 20 21 19 21 14 13 14 18 15 15 17 23 20 26 38 48 50
83 75 70 58 49 28 17 16 42 75 74 75 72 60 25 16 22 24 29 24 28 28 14 19 22 20 21 24 21 19 22 18 17 14 13 20 16 15 20 22 22 22 31 38 46
75 70 67 58 52 31 23 24 63 76 70 79 66 55 22 12 25 31 32 38 28 26 18 17 25 27 26 24 28 22 22 21 20 14 20 17 19 14 14 16 18 19 27 35 41
68 69 65 60 51 32 47 44 28 36 33 28 17 28 22 21 31 21 36 32 27 27 24 14 26 31 22 23 21 18 20 20 15 17 22 19 14 13 13 14 16 20 27 33 39
75 67 64 61 49 38 60 48 57 66 64 38 36 38 37 37 40 22 24 33 33 26 26 25 21 14 18 20 23 23 24 20 17 16 20 18 16 14 14 14 15 17 22 29 36
70 65 66 60 48 60 62 64 73 73 69 35 37 41 38 41 41 28 22 19 32 25 29 33 20 17 15 24 28 25 24 22 22 18 19 21 20 13 12 16 18 23 22 25 31
74 69 63 55 60 66 45 64 70 88 55 21 31 34 38 37 41 23 22 15 20 28 26 29 19 20 22 22 21 28 19 22 22 22 26 20 22 13 15 16 15 14 23 28 32
73 70 63 59 70 49 59 72 69 92 16 22 31 30 21 34 27 25 26 22 20 15 31 31 28 27 25 25 22 26 22 20 25 25 24 23 26 18 15 21 17 14 14 28 34
65 63 66 69 75 66 75 73 82 63 19 22 25 23 24 26 26 26 26 24 22 21 18 26 18 24 25 20 23 23 29 29 30 30 39 30 24 18 16 19 16 15 19 27 35
66 68 75 76 53 78 73 46 52 28 14 28 29 24 26 22 28 17 34 33 27 34 27 18 21 17 21 28 24 28 35 41 46 45 41 22 29 20 19 17 16 16 15 26 34
65 80 81 70 79 79 62 35 55 19 23 28 25 22 31 19 16 12 36 32 32 33 24 22 22 18 18 21 24 33 34 37 38 36 31 27 33 23 18 16 15 19 19 23 33
84 83 79 70 82 78 50 34 16 20 23 25 15 13 14 23 16 16 16 45 39 32 41 42 31 23 15 17 18 25 36 26 30 27 39 29 28 25 20 20 18 17 16 21 30
84 81 61 76 85 70 49 30 17 24 28 26 18 15 15 19 20 18 15 31 45 24 26 34 51 29 24 20 18 19 19 37 34 44 39 25 24 25 20 19 15 17 16 18 24
85 71 63 84 86 71 58 27 24 22 27 27 22 24 21 24 20 17 15 14 24 25 21 38 44 38 34 27 21 21 27 27 25 29 36 35 24 19 19 18 17 17 16 19 25
75 84 87 84 86 68 55 40 37 30 30 27 26 31 29 23 21 16 16 13 13 20 24 37 44 50 43 32 33 37 28 23 31 30 32 33 29 18 19 19 18 19 20 19 24
100 66 98 86 76 63 47 47 43 40 35 28 27 26 23 26 25 20 22 23 30 42 43 40 51 51 44 39 41 42 39 42 43 38 39 44 33 18 17 21 23 20 17 19 22
100 90 86 95 79 52 48 46 50 43 46 38 38 35 37 42 36 37 40 41 41 40 49 43 43 40 35 40 36 44 44 39 46 60 41 35 29 21 18 18 17 16 16 17 21
98 72 54 84 82 92 54 51 49 52 46 43 48 44 39 39 35 39 37 37 33 35 40 39 51 38 37 33 28 30 30 30 41 40 52 43 37 24 22 19 18 16 17 19 19
98 82 61 44 44 58 65 64 56 51 50 47 54 42 48 57 41 45 59 50 52 45 53 60 55 59 56 42 40 38 28 26 29 33 34 34 38 28 23 18 18 17 16 16 18
94 65 62 47 49 57 55 62 52 47 48 44 46 50 52 56 72 90 75 66 60 57 59 63 60 63 56 45 52 61 43 32 25 24 36 47 33 24 23 20 18 20 20 18 19

GFSSW_925_rhum_102.txt.gz
RH
94 95 95 96 72 41 22 18 15 14 13 12 11 11 9 10 7 32 20 13 17 23 16 22 25 21 14 12 10 9 14 14 12 10 9 6 7 8 8 9 10 10 10 13 26
87 95 96 96 91 63 28 19 16 14 13 12 12 11 10 17 42 28 16 16 13 12 16 17 18 17 17 12 11 12 15 13 8 8 8 7 8 7 9 10 10 11 10 11 27
80 90 92 96 96 86 37 19 17 16 14 12 12 14 14 31 36 17 17 18 18 20 24 14 14 16 18 13 12 11 14 11 9 8 8 8 8 7 8 9 9 10 10 11 26
76 84 94 95 94 69 24 19 17 16 14 13 16 23 26 68 16 22 21 18 17 29 23 19 16 18 17 16 12 13 10 9 9 8 9 10 8 8 9 9 7 7 8 10 16
76 77 91 93 89 71 28 19 17 16 15 16 27 49 52 26 20 14 8 10 15 22 16 18 17 17 18 15 13 13 11 10 10 9 10 10 10 10 9 8 7 7 8 13 19
70 70 77 85 78 53 35 22 17 15 16 20 42 52 62 32 10 8 10 10 8 12 10 13 15 15 17 17 18 15 13 11 10 10 11 12 11 10 10 8 9 9 11 14 20
65 71 68 69 65 57 42 23 15 14 20 28 51 68 46 25 13 13 12 10 8 9 11 9 10 16 17 20 14 14 17 13 12 11 11 10 13 12 10 9 9 9 9 14 21
65 64 66 67 64 57 41 20 13 13 37 47 54 64 46 18 16 11 9 8 7 8 11 11 10 11 12 12 16 20 19 23 16 13 12 12 17 12 9 9 9 8 13 15 22
74 71 71 70 63 57 37 16 10 31 43 61 75 60 36 14 11 13 18 19 8 8 7 6 6 10 10 14 18 18 26 24 20 14 13 12 15 11 9 9 12 13 13 13 22
71 79 78 72 62 55 28 35 25 51 53 64 52 44 31 14 8 10 12 13 18 20 21 18 12 9 8 13 23 20 23 21 23 17 14 14 14 12 11 10 13 14 14 12 13
66 67 72 69 61 52 39 59 21 44 39 27 21 31 16 9 9 11 11 10 19 23 29 20 16 14 11 12 12 15 18 25 28 23 22 17 15 13 12 11 12 11 12 12 13
66 64 65 63 57 44 51 36 34 40 46 24 18 15 12 13 17 16 13 14 22 27 20 23 26 16 12 11 11 12 20 26 24 22 24 20 17 13 13 13 12 11 10 11 13
75 64 69 63 52 53 41 38 36 42 48 22 14 15 16 16 20 19 13 13 17 20 19 20 16 12 14 17 18 15 16 27 32 27 25 24 22 17 13 13 12 11 10 10 12
69 69 69 60 53 54 39 42 40 50 52 13 19 16 20 23 26 18 14 13 14 15 12 13 12 14 15 19 18 24 16 17 18 24 37 23 30 20 15 14 13 13 12 11 13
78 74 68 56 59 50 38 45 42 56 37 15 20 19 18 25 19 17 14 17 21 14 11 12 12 13 16 16 17 21 16 17 21 26 26 24 26 21 16 16 14 12 11 14 15
79 76 66 59 53 58 47 53 50 64 30 12 18 22 20 20 18 14 20 18 16 18 17 16 10 10 15 16 18 17 20 22 22 24 37 28 26 24 19 16 14 12 10 13 13
68 76 78 58 53 51 55 48 56 40 8 9 14 15 15 13 17 16 16 22 27 28 27 18 16 12 9 17 20 23 28 41 44 45 42 24 26 24 18 15 15 12 13 16 16
74 81 75 61 55 54 51 55 62 18 16 11 16 16 18 12 11 13 16 14 11 18 22 24 21 14 13 12 18 22 30 47 67 54 48 48 62 26 15 14 13 12 12 16 20
76 72 65 56 64 64 60 63 34 20 12 12 11 18 17 11 14 12 13 14 11 35 36 32 22 18 14 11 13 21 31 25 42 40 52 52 34 22 17 16 14 13 14 17 21
96 80 67 55 69 75 88 66 31 17 12 16 22 16 13 9 8 15 14 9 17 27 24 27 41 23 18 12 12 17 16 31 37 61 67 41 37 45 36 28 19 17 16 17 18
96 97 56 59 73 91 85 50 32 21 18 19 22 20 14 12 10 11 12 10 14 16 18 18 29 28 21 26 22 19 24 26 29 39 55 55 38 28 27 26 21 23 18 19 17
98 100 55 65 98 76 65 40 33 22 15 16 19 19 19 17 16 16 15 13 9 11 14 14 22 39 27 29 28 35 25 24 36 38 37 41 36 19 28 28 23 22 20 19 18
100 80 58 77 96 79 48 38 30 27 22 21 22 19 18 18 22 19 18 14 12 13 13 30 35 39 28 18 16 25 27 27 24 28 36 51 44 21 23 27 22 18 20 19 18
99 90 70 96 71 63 80 52 31 24 24 22 23 20 22 23 19 22 20 16 15 16 47 41 41 49 46 26 35 47 39 36 31 80 42 30 24 19 28 28 22 18 20 18 18
100 87 49 76 77 60 52 72 78 43 29 26 28 27 28 31 27 25 21 20 17 27 30 33 43 34 29 24 21 24 29 32 34 33 61 45 35 28 27 32 24 20 20 18 16
100 100 51 59 79 74 53 50 46 40 29 50 31 25 26 29 27 27 23 24 25 22 23 28 39 31 35 26 22 22 20 24 26 24 23 23 24 17 17 16 17 17 16 18 18
99 87 96 60 48 52 48 66 38 28 38 34 37 60 52 38 48 51 52 48 50 56 62 60 46 37 48 33 27 34 22 20 21 19 20 24 20 16 17 17 18 20 20 19 17

GFSSW_925_rhum_105.txt.gz
RH
84 92 96 96 93 76 29 16 14 14 12 12 11 9 8 9 16 24 34 16 18 19 26 19 25 26 26 24 17 14 23 25 21 18 14 10 10 10 10 10 10 11 13 16 46
88 92 96 96 92 69 38 19 17 16 14 14 13 11 9 27 57 53 18 18 15 17 19 17 22 27 31 22 18 20 23 21 16 14 14 11 12 10 10 13 13 14 14 30 50
76 88 94 95 95 90 48 21 19 18 17 16 15 15 14 43 70 24 20 19 19 19 18 18 16 20 28 25 22 19 21 16 14 12 12 12 12 10 10 12 12 12 13 43 50
69 70 81 86 92 89 57 34 22 19 17 16 16 25 28 66 22 21 18 11 9 14 26 20 20 24 26 28 22 23 17 15 13 11 11 12 12 13 12 12 11 10 9 14 42
69 68 69 74 84 79 56 43 28 19 16 16 21 44 50 55 45 7 16 11 11 18 27 25 27 26 27 24 21 21 18 15 14 12 12 13 13 15 14 12 11 10 10 12 32
70 67 66 66 72 67 61 49 27 19 14 16 35 66 94 64 12 14 13 11 9 10 13 16 19 18 22 23 24 21 20 19 18 17 14 14 15 15 14 13 12 12 15 15 24
77 74 69 70 70 67 59 47 26 14 12 17 47 87 68 50 6 12 16 11 12 10 11 12 10 14 18 24 19 20 25 22 20 17 16 14 16 16 13 13 12 12 11 16 25
73 80 78 76 76 67 55 43 16 12 20 34 57 85 73 18 22 21 13 9 8 8 9 9 9 13 14 15 15 16 20 31 22 20 18 17 22 15 13 14 13 12 11 16 25
77 70 64 69 66 60 52 28 26 31 41 46 72 82 68 29 22 14 13 16 14 10 7 8 8 11 14 16 22 20 25 26 23 19 19 19 23 18 22 13 13 14 14 17 20
81 69 68 66 61 53 45 38 34 37 50 68 67 68 56 25 11 8 8 11 15 19 19 12 14 14 15 16 22 25 27 22 24 20 25 28 29 24 23 18 15 18 19 18 19
72 78 65 63 58 53 47 56 41 48 36 49 40 50 38 21 9 9 12 12 14 23 42 31 35 30 19 14 11 13 17 19 17 19 26 29 31 27 22 21 16 17 21 20 19
79 77 72 64 56 48 58 62 38 41 62 38 34 29 22 18 18 14 12 20 19 33 33 37 38 25 15 12 12 13 17 18 16 21 22 28 36 32 29 25 21 18 17 16 17
71 76 70 68 53 58 53 48 40 43 73 40 24 22 22 19 20 17 15 19 20 27 33 37 30 24 22 22 20 19 23 22 19 18 23 32 40 37 28 21 16 16 16 14 25
69 74 75 66 55 54 54 49 45 47 97 45 24 16 15 19 26 15 16 17 19 22 23 24 19 21 21 21 20 26 21 22 22 25 33 30 46 45 33 24 19 15 15 16 22
78 74 80 69 63 63 54 60 47 58 91 18 18 13 19 27 24 24 18 20 24 21 20 23 14 16 16 14 16 21 25 25 26 29 32 29 33 36 24 22 18 16 17 15 16
79 77 81 74 62 58 55 54 56 85 82 18 25 26 27 28 27 18 21 18 20 26 25 25 17 17 16 15 15 20 28 30 27 32 44 31 32 33 27 22 18 16 15 17 16
72 71 75 80 72 56 57 68 88 97 16 11 18 24 23 29 28 22 26 32 38 41 40 28 24 17 16 20 17 23 34 57 58 55 50 29 34 31 27 20 17 16 16 20 24
76 76 72 80 69 65 66 83 91 38 24 14 14 16 22 18 18 18 21 27 23 28 34 35 37 20 16 19 19 32 35 65 66 68 48 39 62 46 26 24 21 14 16 25 46
78 75 80 70 60 67 92 99 57 32 24 22 19 21 21 19 18 17 20 20 15 29 44 47 35 27 25 22 15 20 34 27 47 45 59 53 42 32 43 42 34 18 15 26 39
88 90 84 61 65 66 97 78 50 31 27 31 38 22 27 20 19 18 16 14 20 38 28 34 47 28 22 25 24 19 21 34 46 72 80 50 42 46 48 54 43 28 25 23 34
87 95 68 55 66 97 95 79 48 36 34 37 36 27 28 26 22 22 19 15 16 36 19 20 32 35 27 28 52 63 31 26 32 54 71 73 55 43 65 67 61 40 24 24 27
80 99 61 67 98 99 94 61 44 41 36 36 29 24 30 29 27 27 26 23 17 19 20 18 27 40 30 22 42 58 67 56 36 44 53 52 49 27 40 40 55 42 32 35 32
97 86 57 62 97 94 65 54 47 46 41 37 31 24 27 31 35 28 28 24 21 23 26 24 51 74 48 27 22 44 50 62 71 38 42 58 53 26 28 57 53 44 35 30 22
98 99 88 93 91 94 95 81 82 50 40 32 32 26 31 35 30 35 31 26 28 27 47 40 44 52 69 58 42 42 32 35 80 95 90 68 52 34 35 52 54 46 38 26 22
100 94 71 94 93 89 81 71 72 88 62 38 31 32 35 41 41 39 34 30 26 27 34 41 55 46 40 35 33 32 30 26 29 35 81 65 70 51 40 45 45 46 31 19 18
97 99 87 92 72 76 87 77 64 52 98 83 80 55 54 43 37 57 68 64 60 60 58 47 56 47 48 34 29 35 30 27 25 24 28 28 32 26 17 21 20 28 22 22 21
97 85 97 76 94 82 90 62 62 78 58 35 60 64 62 55 60 58 61 64 64 63 66 70 64 65 66 42 38 48 36 30 24 20 23 29 25 22 16 14 50 61 59 59 58

GFSSW_925_rhum_108.txt.gz
RH
92 95 96 96 96 95 80 35 20 21 18 15 12 11 10 12 11 18 48 7 9 19 20 24 28 26 31 31 24 21 31 37 28 24 20 14 14 11 12 12 11 14 16 16 36
84 89 89 88 92 96 89 37 28 17 16 17 14 12 12 26 42 61 14 19 16 18 25 25 26 30 37 30 27 26 34 29 20 19 18 16 16 14 11 13 14 14 17 47 54
80 84 88 84 84 88 72 50 42 28 16 17 16 14 17 35 71 30 19 18 19 20 19 17 19 26 36 30 28 25 26 21 18 17 17 16 16 13 13 14 15 13 14 61 57
68 74 86 86 84 83 62 57 48 41 24 20 16 20 30 55 10 21 20 17 16 18 26 24 24 24 27 34 29 33 25 21 18 16 17 16 14 14 15 14 12 13 12 59 61
73 72 76 86 85 82 67 58 47 44 34 23 18 33 58 69 57 3 14 15 12 17 32 32 29 29 34 29 27 28 26 22 19 18 18 16 17 16 17 15 15 14 14 48 58
76 75 79 80 78 75 61 53 47 42 30 25 25 72 96 63 11 18 18 18 15 18 17 19 22 22 24 26 30 24 25 25 21 22 20 20 18 16 15 15 15 15 18 17 44
76 70 69 65 63 62 54 49 43 23 28 29 40 95 87 51 6 14 16 19 11 12 12 11 13 14 16 17 18 17 21 21 20 21 21 20 22 20 16 16 17 15 13 16 18
90 82 72 62 60 56 53 44 24 28 38 40 54 95 82 17 21 30 22 21 11 11 9 9 10 11 15 14 17 18 21 30 24 21 21 21 28 22 19 24 25 23 19 14 17
77 71 79 67 59 54 48 41 37 41 43 59 80 86 81 38 37 15 20 15 13 13 14 8 9 11 10 17 22 21 31 33 27 17 19 22 23 21 25 24 24 23 22 17 15
75 76 74 70 59 52 55 40 40 41 61 74 73 83 60 27 20 14 9 10 12 16 22 13 13 15 17 20 30 28 28 24 24 20 22 30 31 27 26 26 28 26 25 20 22
69 72 73 63 52 48 50 50 44 47 44 46 51 58 44 34 25 11 11 12 14 17 30 32 25 28 14 18 18 19 18 19 16 13 20 27 31 26 26 26 25 26 26 24 21
71 84 71 63 50 51 52 59 52 53 69 41 39 39 29 25 31 19 12 19 23 23 30 40 48 29 22 19 17 16 16 16 14 14 19 24 23 17 28 28 26 27 25 21 22
77 87 73 66 50 49 58 60 60 55 80 49 28 26 26 24 22 17 14 21 24 26 34 43 38 30 30 28 20 18 18 17 19 19 19 26 28 27 26 31 29 26 22 19 19
74 70 77 72 50 58 57 56 54 62 93 48 30 29 18 22 27 12 11 18 24 25 28 35 28 32 33 33 29 35 24 24 27 29 34 26 36 26 22 25 28 25 21 18 33
82 73 76 80 76 71 56 54 54 64 41 19 22 16 17 27 25 25 14 22 25 22 24 30 18 28 30 28 25 28 25 28 30 34 32 31 40 25 26 24 22 21 18 16 18
84 69 75 71 72 61 63 59 60 68 62 26 23 23 33 29 26 26 24 22 21 25 26 29 22 21 21 17 18 19 26 31 32 38 47 34 39 31 31 26 22 18 17 16 18
85 74 74 87 78 60 68 72 71 95 30 19 21 19 20 35 34 32 30 31 36 44 44 31 28 23 20 24 21 24 37 56 59 59 48 31 39 32 27 23 25 26 26 28 25
88 75 66 62 56 62 72 80 95 37 36 22 31 20 20 19 32 30 29 36 34 34 40 44 47 26 18 24 26 28 29 47 61 61 47 34 50 50 31 32 44 43 40 34 27
79 74 77 53 57 68 94 86 60 44 22 36 36 27 27 24 24 21 19 20 25 29 42 47 43 29 26 28 25 27 41 28 44 51 60 51 39 30 25 58 55 53 46 38 58
93 95 85 68 70 79 96 71 64 39 36 41 52 39 47 36 28 26 20 22 28 34 34 28 45 28 24 24 36 32 27 34 50 64 56 57 54 52 53 68 63 63 58 46 45
86 90 57 72 75 93 95 78 57 44 43 42 52 53 46 41 30 31 28 25 20 20 20 21 33 37 27 37 42 59 60 64 40 61 55 74 62 67 70 68 73 83 64 53 47
88 86 52 68 98 96 93 66 58 56 48 48 46 44 50 33 32 30 31 26 27 27 25 28 31 35 32 23 25 45 58 65 90 69 74 62 51 26 60 60 73 84 61 45 35
98 90 51 66 96 96 89 74 61 59 54 53 48 45 44 31 36 34 30 28 28 32 35 27 41 66 34 30 44 56 43 38 75 92 86 83 53 36 40 63 70 79 76 48 46
97 99 90 94 87 90 87 80 74 52 70 59 58 48 50 39 34 42 41 30 32 26 43 38 45 46 53 57 44 38 33 33 72 94 89 76 73 45 40 51 66 67 71 52 53
99 93 84 96 92 91 88 87 82 75 46 60 64 59 57 42 40 42 40 58 49 58 42 43 53 49 46 42 38 38 37 32 34 42 77 56 46 30 35 46 55 62 68 49 46
99 100 89 96 79 80 76 78 77 68 74 83 86 74 74 66 45 51 67 68 66 62 62 64 64 49 54 46 43 48 41 37 32 30 29 30 34 23 39 32 44 43 54 61 69
98 82 96 82 86 88 80 78 88 55 59 64 94 98 89 59 63 65 61 66 70 68 67 67 67 70 62 54 57 64 46 40 34 28 28 34 32 64 64 49 67 77 73 75 72

GFSSW_925_rhum_111.txt.gz
RH
92 92 92 90 90 91 93 65 49 47 49 38 30 23 14 17 12 22 46 4 8 9 14 27 30 31 33 34 28 27 41 47 34 28 23 17 18 15 12 14 13 13 32 30 40
90 90 90 91 92 91 92 82 58 54 56 64 35 18 13 22 45 56 3 14 12 22 24 29 32 33 39 37 32 32 45 37 28 22 22 19 18 17 15 17 15 16 20 47 55
88 87 91 92 92 92 91 63 55 61 76 58 52 42 16 25 55 12 23 19 18 20 26 25 22 30 38 35 31 29 34 27 21 20 20 20 19 17 16 19 16 14 14 60 68
79 86 92 95 94 92 64 54 50 54 61 73 68 59 29 46 6 16 24 22 21 22 24 28 27 27 31 37 34 37 27 23 21 20 21 22 19 18 17 16 14 15 15 61 69
72 74 82 89 88 70 52 50 44 41 40 55 63 87 57 64 44 2 10 9 22 27 32 32 29 28 30 30 29 34 30 28 26 25 24 22 22 20 19 16 16 17 17 52 67
86 83 75 71 65 56 52 45 42 31 30 39 71 94 91 56 8 15 24 18 18 27 24 29 27 26 30 29 32 27 27 27 26 25 24 24 24 22 19 17 18 18 20 29 61
79 74 70 74 69 59 52 41 40 36 41 45 72 96 88 58 5 12 18 15 20 16 14 12 14 17 17 18 18 18 21 22 23 23 25 22 26 25 19 19 24 25 25 25 23
83 75 66 64 61 57 46 47 39 37 45 48 60 94 89 29 19 24 25 28 20 20 14 10 11 12 16 16 17 18 21 28 26 25 22 23 29 21 19 25 28 27 26 26 27
67 67 67 69 55 52 47 44 34 51 49 67 80 92 81 35 48 25 32 27 16 14 14 11 10 13 11 20 24 23 26 29 25 21 22 23 22 20 22 25 29 28 30 29 26
72 75 72 62 54 47 52 34 37 41 70 72 82 84 52 30 33 29 15 18 13 14 17 16 15 16 19 22 34 31 29 29 27 19 20 27 25 18 25 29 30 31 30 30 30
82 82 79 64 58 53 55 46 62 56 55 47 54 70 51 38 27 19 14 13 14 17 23 28 22 24 17 18 21 22 24 26 20 16 15 16 18 16 17 27 31 28 23 24 26
81 82 77 66 58 55 55 64 60 68 90 55 49 46 38 27 28 18 18 14 21 22 24 30 47 28 16 16 18 19 22 21 17 13 18 19 19 17 21 20 26 28 27 27 23
76 72 62 66 59 50 64 61 61 67 92 58 39 33 28 31 33 20 16 19 26 25 28 24 29 30 35 32 26 24 23 22 19 17 19 23 26 25 22 26 29 31 28 26 26
82 70 63 68 56 68 60 55 54 70 75 35 33 35 22 24 31 14 11 14 27 20 26 28 24 28 39 40 34 42 24 21 21 32 38 26 38 25 24 24 23 24 22 26 27
78 72 64 66 81 76 62 59 55 72 23 14 28 20 20 27 29 25 10 17 24 27 30 33 24 39 34 33 33 36 30 34 34 36 36 34 46 28 26 24 24 22 21 24 23
80 75 69 66 70 62 58 56 61 35 31 25 21 23 19 17 27 26 20 18 21 24 26 26 21 23 24 20 26 22 24 30 37 42 52 31 41 29 30 26 25 22 21 40 37
84 75 66 67 68 55 59 72 37 58 24 22 31 26 20 23 23 32 33 30 38 43 44 32 32 26 23 27 24 24 35 46 48 62 48 31 43 30 28 25 31 51 51 49 46
80 63 50 51 49 58 72 72 66 25 41 29 35 24 24 31 27 23 40 40 33 36 40 47 44 32 24 27 30 31 37 52 42 50 40 36 53 40 31 39 58 54 58 54 53
77 60 69 66 71 72 89 90 52 47 35 42 38 43 36 35 38 26 28 29 31 37 44 47 44 28 24 25 29 34 37 28 38 40 60 45 41 30 37 58 59 62 70 64 59
85 82 69 70 75 78 84 77 63 47 48 47 52 45 60 47 45 32 30 27 28 24 30 37 49 27 23 28 34 44 39 38 54 60 49 47 54 55 45 65 63 69 79 74 63
78 91 64 78 76 93 97 86 66 46 47 53 64 63 55 55 44 40 29 28 28 26 28 25 36 39 28 35 32 49 69 70 68 61 65 54 47 56 66 69 76 76 75 76 71
78 94 58 57 98 86 99 73 54 58 55 62 58 61 64 56 56 45 32 40 30 30 33 28 33 37 29 28 27 47 75 82 86 88 82 89 72 45 45 74 73 76 63 74 78
99 89 69 60 96 99 85 80 73 59 67 63 63 54 55 63 79 44 34 34 33 34 33 36 40 41 29 45 44 52 42 37 71 88 76 92 73 38 39 38 70 77 72 82 84
97 96 87 93 81 94 97 89 72 61 67 57 63 58 66 69 67 64 40 36 48 42 58 45 44 35 41 50 44 38 34 30 64 90 64 68 57 48 36 33 59 66 71 78 81
98 93 84 98 93 92 88 77 80 86 64 58 68 71 87 87 77 44 45 60 49 60 55 54 49 45 46 44 41 42 47 42 43 48 63 37 46 38 31 37 41 58 62 70 78
98 96 91 93 86 87 79 81 70 63 82 86 84 76 81 97 58 61 64 66 60 58 59 62 67 56 58 49 48 57 52 50 48 43 40 36 34 22 29 40 43 54 59 68 79
95 86 95 83 86 88 83 80 81 100 74 71 95 99 96 80 63 62 64 65 65 68 71 68 72 70 53 54 58 55 43 49 42 36 38 43 30 42 67 62 59 69 70 81 82

GFSSW_925_rhum_114.txt.gz
RH
93 93 93 93 95 96 96 95 64 53 64 68 78 61 19 14 16 22 49 4 6 12 20 31 30 34 35 36 30 32 45 51 31 31 24 17 21 16 14 15 16 14 22 28 31
95 94 94 94 96 96 94 81 65 83 91 84 75 64 17 19 54 69 10 15 10 20 32 32 36 38 40 38 36 34 49 45 31 27 22 20 20 19 17 20 18 20 17 30 53
95 94 94 94 94 93 85 56 55 82 89 91 86 68 18 21 58 9 29 24 21 21 28 27 27 34 37 38 38 36 41 33 26 24 22 22 20 18 18 22 20 18 17 44 66
93 95 95 96 95 88 65 58 52 55 54 73 91 82 20 47 5 13 25 23 26 27 30 25 25 28 36 41 36 35 33 27 24 22 24 26 23 21 22 21 17 17 16 27 64
91 88 88 92 94 69 59 49 38 45 48 73 82 88 37 43 26 2 5 8 11 28 30 32 30 29 32 31 32 38 33 30 30 29 29 27 29 26 23 18 17 18 20 23 49
84 80 71 71 68 56 51 42 42 43 39 51 91 97 82 35 7 10 28 20 24 30 29 36 34 29 33 34 35 30 30 28 28 29 28 27 27 26 23 20 22 20 23 24 38
86 80 72 72 57 52 43 42 45 39 39 44 91 98 91 25 4 8 15 21 16 25 24 18 14 18 18 20 20 21 23 22 23 25 27 24 31 30 24 21 21 26 27 27 30
82 72 61 60 53 51 44 44 37 43 54 45 84 95 76 18 22 23 22 15 11 17 26 16 13 14 15 16 17 19 21 26 23 25 25 26 33 22 16 23 25 24 26 28 29
79 69 60 55 51 52 46 43 36 52 68 64 81 90 58 28 44 30 28 42 28 23 21 15 14 16 15 20 26 25 29 29 24 24 24 26 26 18 21 17 21 28 30 28 28
81 67 62 57 54 54 48 34 43 46 63 76 86 82 41 37 37 31 18 34 16 17 18 14 17 19 21 27 34 33 31 31 28 19 22 25 26 21 15 19 24 26 31 30 26
72 71 79 63 59 55 51 51 67 60 63 57 50 59 54 29 26 22 17 21 14 16 24 25 27 28 21 18 20 24 27 28 23 18 17 18 18 16 15 16 21 24 26 26 24
82 74 58 57 59 49 53 70 68 73 92 63 58 54 42 38 44 24 17 19 20 22 22 25 46 32 17 16 20 22 24 25 18 16 18 18 19 18 18 19 20 20 27 28 29
83 69 56 52 53 54 69 66 65 75 98 69 43 42 40 40 48 37 20 20 22 25 26 23 23 27 29 24 21 23 23 23 21 18 20 23 30 23 23 22 24 27 30 32 28
86 66 60 53 53 68 57 53 52 77 92 38 34 31 24 28 38 24 15 18 23 21 20 25 20 19 38 39 30 37 29 27 30 30 44 26 44 25 25 24 22 23 24 25 26
83 65 68 62 72 72 63 53 55 78 23 14 28 22 21 28 21 24 11 15 20 28 28 27 34 30 23 29 37 46 33 33 32 39 40 38 42 32 21 23 22 24 25 32 52
78 66 70 58 58 61 50 50 60 15 17 25 26 28 21 18 18 20 18 14 15 19 27 23 23 31 34 31 30 28 30 30 40 44 56 38 37 26 26 24 27 30 50 58 60
74 63 61 67 64 54 54 65 23 24 17 31 39 30 22 36 27 24 24 28 34 41 44 32 30 27 24 28 26 26 34 41 34 62 46 35 43 27 25 26 51 63 65 68 64
61 54 53 61 75 56 72 55 39 22 36 38 40 30 35 39 36 32 29 33 28 31 47 49 44 35 28 29 32 35 36 50 40 43 34 39 49 38 29 46 56 61 70 70 71
57 53 57 72 68 68 82 71 38 57 50 56 42 42 54 43 40 39 37 31 29 29 44 56 46 28 25 29 31 37 40 32 39 38 54 42 38 28 40 57 61 62 71 79 71
67 78 69 80 75 68 89 62 64 53 52 55 56 61 70 62 49 40 41 33 35 29 31 42 56 31 24 35 27 39 47 43 55 57 51 44 48 45 68 72 70 71 74 70 58
75 83 77 79 78 91 95 81 71 52 59 71 74 72 63 66 52 54 45 33 33 32 29 33 38 39 29 32 31 44 60 68 65 70 75 80 47 57 57 74 77 76 73 76 67
78 83 62 58 81 89 94 76 63 65 58 66 67 70 71 65 67 64 59 39 29 35 38 36 42 45 31 38 37 63 75 78 81 92 84 86 80 44 40 45 48 78 74 76 74
99 96 68 58 95 95 86 80 71 68 59 71 69 60 56 70 76 75 64 38 38 36 42 48 50 43 41 45 38 50 38 60 77 86 84 91 67 40 34 30 33 72 73 81 78
95 92 84 90 78 88 97 87 83 62 68 66 67 64 69 75 69 78 74 50 49 48 56 52 52 44 43 43 40 34 36 36 71 92 66 69 48 29 32 34 28 33 68 77 79
92 92 85 98 92 94 88 80 79 80 69 72 75 74 75 95 82 82 65 55 49 55 51 56 54 45 46 44 44 42 45 46 47 51 63 34 34 26 26 23 26 24 60 68 70
95 96 91 96 86 88 80 84 69 62 84 88 94 76 87 96 84 96 64 80 57 54 56 58 63 60 59 50 52 56 56 56 54 47 46 42 42 27 25 23 24 41 60 68 70
95 89 90 83 85 92 83 76 80 80 78 90 98 97 98 83 93 78 69 70 67 64 71 67 65 72 57 54 55 54 44 47 47 47 46 52 39 31 32 34 72 71 80 82 81

GFSSW_925_rhum_117.txt.gz
RH
96 95 94 94 96 96 94 86 59 61 93 92 67 35 14 10 6 18 27 5 7 11 14 31 33 35 33 31 28 27 24 24 15 20 14 17 18 16 14 14 15 13 16 15 26
96 95 94 95 96 96 94 83 59 54 58 89 81 42 13 19 43 65 18 29 26 21 30 37 37 36 33 34 30 28 28 24 20 16 17 18 19 17 16 18 16 18 17 17 38
95 96 94 94 94 94 95 62 56 63 71 75 75 50 22 22 50 8 28 25 14 32 30 30 33 30 31 36 34 30 26 30 24 21 21 20 19 16 18 18 19 19 17 20 27
90 94 95 94 95 95 86 58 52 50 54 82 65 68 39 50 6 16 27 13 26 24 29 27 30 33 32 35 33 32 31 25 23 21 22 21 20 20 21 21 18 17 16 17 19
93 94 94 92 90 91 70 46 42 45 45 53 95 92 45 27 13 3 5 14 20 32 30 28 27 28 29 29 30 37 29 27 23 21 23 23 25 25 24 19 18 16 19 21 21
84 84 89 82 49 42 41 37 38 41 42 44 80 99 79 26 5 7 11 24 26 38 34 32 27 24 26 29 30 29 30 27 24 25 25 26 24 24 22 21 21 21 21 22 24
85 81 72 52 40 34 34 31 33 36 44 53 65 93 82 26 6 9 11 10 13 21 30 29 29 19 23 22 21 22 24 21 22 23 25 24 26 27 20 20 22 22 24 20 21
89 84 73 51 38 34 28 28 35 43 59 52 78 91 57 19 21 28 30 30 24 17 20 21 15 17 17 16 16 19 20 24 21 20 21 23 27 21 20 18 14 13 16 20 21
75 84 82 47 39 34 33 28 39 49 67 73 80 86 49 23 37 34 26 38 36 29 26 20 17 17 17 17 18 24 26 26 24 22 24 26 27 20 19 14 12 12 14 17 19
78 87 81 47 46 44 44 32 49 52 47 70 87 64 36 28 33 26 21 27 22 21 23 20 18 19 20 19 20 23 27 26 23 19 21 22 26 19 16 12 13 14 16 19 20
80 76 77 50 51 53 39 40 63 55 65 59 30 43 33 30 26 23 22 20 17 18 24 22 24 26 21 19 14 21 26 25 23 18 18 18 18 15 12 13 15 16 16 18 19
86 77 58 44 46 51 48 69 72 74 92 58 60 57 51 48 51 35 27 19 22 23 21 29 38 28 18 17 18 19 22 24 22 17 20 17 18 17 16 16 16 17 18 20 21
80 67 50 42 47 47 69 72 70 82 93 61 51 45 36 45 48 39 23 20 20 25 22 23 23 25 24 20 20 20 23 23 19 17 19 22 23 22 20 18 20 21 22 21 22
73 62 55 41 44 59 58 52 58 84 56 21 33 30 16 29 31 25 22 19 20 19 23 24 19 20 28 31 24 29 20 18 18 29 33 26 28 22 21 22 21 20 24 34 46
68 67 59 61 58 67 53 47 61 84 8 14 26 20 16 19 17 15 15 16 24 20 24 30 30 24 22 22 26 26 32 25 29 33 34 33 34 26 22 17 20 23 37 48 51
66 63 66 56 58 50 45 52 64 10 9 20 28 27 23 26 23 21 18 15 18 28 27 27 23 29 22 20 26 33 34 34 38 38 41 31 26 21 19 22 24 40 48 56 55
61 57 55 58 64 61 52 52 14 10 18 41 41 29 30 37 30 25 25 26 27 39 42 30 22 22 26 29 30 30 32 36 43 48 28 29 34 24 24 34 50 52 52 56 50
56 51 53 73 72 60 66 26 23 31 46 43 41 31 42 42 33 26 25 30 25 26 35 47 48 30 26 26 29 35 32 30 25 27 23 35 30 30 49 51 50 51 54 50 45
55 54 72 78 71 73 62 28 29 58 51 56 44 46 51 46 44 36 34 31 28 30 37 45 49 28 27 30 27 37 38 26 27 37 41 34 32 38 46 46 39 40 50 54 53
70 67 82 76 76 54 74 48 59 54 59 59 61 60 63 52 53 45 42 31 32 30 33 31 40 33 31 31 33 38 36 42 44 48 45 36 36 42 42 39 32 32 43 53 53
67 85 63 71 74 86 82 72 67 52 57 64 70 64 59 62 56 53 42 34 31 30 28 34 38 34 30 46 42 42 52 62 51 60 38 39 35 45 42 39 27 23 27 47 58
76 85 66 54 87 93 82 77 62 63 54 54 67 72 72 64 63 61 56 45 37 36 31 36 45 47 35 42 44 59 73 68 56 68 70 60 46 40 39 30 25 24 23 39 59
97 91 62 61 90 86 75 74 66 67 60 63 67 61 58 61 68 61 62 49 44 46 38 44 53 54 58 47 38 38 30 59 66 64 70 63 35 39 26 20 19 22 23 26 63
94 84 80 92 76 82 90 79 73 58 57 54 60 61 66 69 61 76 66 50 53 44 51 51 44 48 60 52 38 38 33 32 55 51 48 42 34 21 20 20 19 19 20 24 60
92 91 85 96 83 82 78 72 72 73 60 69 75 74 83 91 74 70 62 64 52 44 54 50 46 39 36 37 40 40 36 35 36 31 35 25 25 20 18 18 19 21 23 24 51
97 92 91 82 82 80 76 73 68 71 83 82 92 74 82 92 93 94 96 66 58 49 64 56 46 51 52 42 37 44 42 45 42 39 39 35 36 25 22 23 24 25 29 49 61
98 92 86 80 81 82 77 70 71 88 70 76 99 98 93 88 77 76 83 79 73 76 61 60 55 48 44 36 42 51 39 38 36 34 36 36 26 21 28 25 27 34 50 70 73

GFSSW_925_rhum_123.txt.gz
RH
95 97 96 96 96 96 92 71 34 24 23 29 30 27 16 12 6 23 12 10 16 20 11 12 19 15 15 13 11 11 18 16 12 10 8 6 8 7 6 6 8 8 8 9 11
85 87 93 91 80 82 78 57 33 23 26 29 32 26 19 17 46 18 15 14 19 23 20 10 14 12 14 15 13 15 18 16 10 9 9 8 9 8 9 10 8 9 8 9 10
83 72 56 46 75 68 48 22 16 16 20 24 27 28 25 23 25 11 20 18 16 23 26 14 13 11 14 12 14 16 20 13 11 9 9 9 8 8 9 10 8 8 7 8 10
69 62 56 52 57 67 46 17 13 14 19 28 31 38 31 50 14 20 22 17 11 32 27 18 14 14 16 15 11 16 15 14 12 11 12 12 10 10 9 10 8 8 7 8 10
59 57 49 45 55 59 46 26 26 18 24 28 36 44 68 21 11 11 6 11 24 23 22 18 17 15 16 13 12 14 15 13 13 13 13 12 13 13 12 10 9 9 10 11 12
66 58 48 48 36 34 26 26 22 25 30 30 47 47 54 22 8 10 11 9 9 15 13 16 15 14 16 14 14 12 13 13 13 14 13 15 15 13 12 11 12 12 13 12 13
71 61 54 43 34 29 30 35 30 26 32 42 46 69 32 19 16 14 12 12 9 6 10 11 11 15 14 17 14 13 16 14 13 14 14 14 17 16 12 11 12 13 14 14 13
65 55 50 33 30 26 23 20 23 38 45 52 53 50 30 19 17 21 20 19 17 19 15 7 9 12 14 14 15 16 15 19 14 12 11 13 19 12 10 11 12 13 13 14 14
60 58 47 28 22 14 14 18 32 39 47 61 66 47 24 19 14 12 12 10 10 14 21 14 9 15 14 16 18 16 20 16 14 10 10 12 15 11 9 12 13 12 13 10 10
66 63 43 27 21 16 20 28 36 54 51 48 37 33 19 17 18 19 14 12 12 11 19 15 12 16 14 13 18 16 14 13 13 10 10 14 13 12 10 12 13 10 10 9 8
68 57 35 27 24 30 42 22 21 31 18 20 18 20 14 17 18 11 14 14 12 14 17 17 15 15 12 12 12 12 12 13 11 8 10 11 12 12 10 10 12 10 10 8 7
56 46 31 26 29 39 38 27 38 46 30 20 22 23 13 21 18 9 12 16 16 15 13 14 20 14 10 10 11 12 14 14 11 8 9 12 13 10 8 9 9 9 8 7 8
49 44 36 29 39 48 35 41 44 49 37 17 20 14 9 9 14 9 8 12 18 19 16 16 12 11 14 14 11 10 13 15 14 10 10 12 14 12 8 6 6 7 7 7 10
48 44 32 26 44 34 33 39 47 62 34 15 23 14 7 7 14 6 6 11 15 21 20 19 12 13 13 16 15 20 14 13 15 18 21 13 17 10 8 7 8 8 9 11 15
54 41 31 36 40 24 38 46 55 60 22 13 15 11 7 9 10 6 6 8 14 13 18 20 19 18 20 17 14 19 15 17 18 22 20 15 15 12 10 12 11 11 12 16 23
47 40 42 49 46 44 50 57 58 42 15 17 13 14 10 6 10 7 7 5 5 11 12 14 13 18 20 16 16 17 22 19 22 27 33 23 18 14 13 13 11 12 19 24 24
50 39 53 49 40 55 60 44 29 11 9 19 20 15 10 14 13 10 12 8 7 19 19 10 12 14 15 23 19 18 26 48 44 50 52 20 18 15 12 9 10 17 28 26 26
43 60 56 53 61 62 44 28 18 15 20 18 18 15 14 18 18 17 16 12 7 9 18 21 18 19 28 24 26 23 26 44 57 50 35 21 26 18 11 21 23 24 26 28 27
50 60 50 60 66 57 35 15 24 25 26 25 19 17 14 16 18 18 18 16 11 14 24 26 21 14 26 33 33 30 46 27 40 35 41 28 22 28 26 28 27 24 24 29 29
49 43 43 61 64 52 26 28 25 25 27 24 27 23 26 22 24 24 22 13 14 13 15 24 32 17 15 34 30 63 35 61 64 84 61 29 25 32 32 27 23 19 17 16 16
46 37 43 54 67 30 30 29 27 26 25 26 24 26 25 28 26 27 24 18 16 20 21 21 22 18 15 27 46 61 67 38 47 59 46 39 26 19 30 22 17 14 14 12 11
42 67 46 60 43 28 29 28 45 25 29 31 32 34 34 31 31 28 27 22 18 21 29 22 41 31 21 20 34 45 57 98 94 50 42 35 34 32 24 18 19 17 14 12 12
51 33 40 57 62 42 36 35 32 32 29 29 30 26 27 32 38 28 24 20 22 27 30 41 37 51 29 15 40 57 56 58 72 89 87 64 58 35 33 23 16 12 11 11 12
57 71 37 35 30 41 47 38 33 29 30 28 30 31 39 46 35 46 34 28 34 34 44 39 42 40 41 28 68 43 67 48 44 62 58 78 75 71 70 25 11 10 10 10 11
85 52 42 68 48 36 35 34 43 42 34 33 36 45 56 61 46 47 52 50 32 36 35 38 47 41 29 20 17 19 24 34 46 47 50 31 34 52 23 13 12 10 11 12 11
95 49 39 36 40 40 48 39 37 36 46 54 56 52 52 55 66 77 49 49 56 48 42 32 74 42 36 24 21 19 18 22 27 30 30 27 24 15 13 10 10 11 12 14 14
46 49 41 47 42 41 41 41 43 56 43 41 58 65 47 39 39 40 42 43 44 49 52 53 51 45 48 28 29 28 18 16 18 18 25 26 20 13 12 11 13 18 19 20 17

GFSSW_925_rhum_129.txt.gz
RH
68 74 87 82 63 24 13 12 10 8 7 6 6 7 6 10 18 21 42 22 23 22 12 13 14 8 17 22 22 20 30 31 27 23 19 14 13 11 6 6 6 10 12 21 19
68 68 64 66 50 22 10 8 8 6 6 6 6 6 6 17 37 49 25 22 18 15 16 16 13 10 17 19 21 26 31 28 21 18 18 14 14 14 9 8 8 11 11 17 20
63 60 60 56 44 41 24 10 7 7 9 9 8 8 8 24 55 23 21 16 11 5 9 23 22 20 14 20 20 20 25 20 19 17 15 15 16 14 13 12 11 12 13 13 16
55 56 55 60 30 23 9 7 7 6 7 8 8 9 13 47 30 21 11 7 8 14 15 16 21 25 22 23 19 22 17 17 17 15 15 16 16 16 15 14 12 10 11 12 12
57 54 57 47 35 15 9 11 10 10 8 10 15 24 29 51 41 16 10 9 8 12 20 17 18 22 27 20 19 20 17 15 15 14 14 16 17 17 15 14 14 13 14 15 16
59 59 61 52 33 15 12 11 13 10 10 15 25 39 78 44 15 15 15 12 11 11 11 10 16 15 19 21 23 20 19 19 17 16 14 15 16 17 15 15 15 14 16 18 18
64 62 56 47 19 10 11 10 12 18 20 33 39 61 59 44 16 16 14 13 13 12 17 14 11 11 13 17 17 17 19 18 18 18 18 17 19 18 15 15 14 14 14 13 17
73 63 52 44 14 8 11 8 14 20 24 34 47 69 63 23 16 18 13 12 11 10 12 10 12 20 18 13 14 19 20 25 18 19 17 17 23 16 15 15 15 13 13 13 13
67 60 52 34 10 10 15 16 15 27 29 39 70 74 50 17 15 13 13 12 12 12 11 10 12 23 24 17 19 23 30 26 21 16 18 19 20 15 15 14 14 14 13 14 13
65 61 48 16 8 11 31 31 22 31 50 65 62 64 33 15 14 16 14 13 14 14 14 15 24 30 22 20 24 26 29 22 23 18 18 19 18 18 16 16 16 14 13 14 14
65 54 36 13 9 21 35 42 41 50 44 33 20 20 15 12 11 13 6 7 12 15 20 18 24 39 27 18 15 17 20 21 17 14 16 15 23 23 20 18 17 14 12 12 17
54 44 32 10 11 37 30 37 38 45 52 21 16 20 17 12 12 10 5 9 10 16 16 23 26 20 16 20 21 20 20 20 16 15 16 16 15 19 16 14 13 12 12 12 11
44 36 25 12 12 38 30 32 36 44 58 31 16 18 11 8 9 10 8 8 10 10 10 18 17 13 17 19 19 19 23 25 23 18 15 14 16 20 17 14 13 12 9 11 11
42 34 22 14 47 33 38 37 42 53 76 27 20 17 10 8 10 5 6 7 10 11 11 12 11 9 12 14 16 21 18 20 22 21 27 17 30 19 18 19 16 13 10 12 12
45 33 21 21 43 44 44 38 40 62 86 22 17 9 8 9 8 8 7 8 14 14 12 13 10 9 10 12 12 16 14 19 24 29 31 27 33 26 19 20 17 14 12 11 14
41 31 31 52 54 50 38 48 55 82 69 15 11 13 12 12 11 10 12 12 12 14 13 12 8 7 11 14 16 14 15 19 26 30 40 31 36 32 26 22 18 14 12 11 21
40 27 43 48 60 52 44 61 81 87 13 19 16 14 15 15 14 14 16 19 21 26 23 15 12 9 15 25 23 27 51 60 53 47 48 31 40 34 24 21 19 18 32 25 30
38 26 50 55 56 50 56 73 71 16 22 16 16 17 19 14 14 18 19 25 18 17 22 27 30 17 15 18 23 32 64 94 89 69 50 37 47 33 22 19 18 17 34 33 36
38 53 68 60 46 56 78 76 41 24 19 20 20 21 18 18 20 22 25 25 19 18 27 31 25 18 17 18 18 28 47 67 93 78 91 54 37 27 23 24 22 19 33 42 47
71 62 54 48 47 66 86 40 29 21 20 18 25 21 29 26 28 31 29 22 21 22 30 36 47 24 21 28 25 37 48 79 84 96 89 60 45 48 34 58 63 51 44 46 50
68 72 50 45 64 85 94 30 24 21 22 24 29 31 32 34 31 32 28 24 37 43 32 32 39 37 28 32 38 38 54 67 85 80 74 91 60 86 92 76 73 64 58 38 33
71 94 45 59 93 80 48 30 30 20 25 27 31 30 31 32 35 39 39 45 40 47 55 42 53 59 55 38 39 39 69 99 97 93 85 86 85 73 87 77 65 71 43 43 16
82 54 42 54 92 82 30 32 26 26 24 25 27 26 28 41 53 44 42 39 38 52 58 55 72 88 50 52 43 59 47 46 91 97 93 98 86 52 71 92 63 66 47 18 15
90 86 58 67 46 55 46 38 35 30 26 23 26 31 43 51 44 50 49 39 42 38 52 67 71 76 84 52 43 82 63 32 55 82 75 69 58 64 74 87 87 61 54 47 14
99 82 58 87 71 48 42 38 39 40 29 29 35 46 52 59 60 55 51 48 42 40 58 67 90 80 66 59 51 47 39 27 32 37 72 48 49 48 55 78 83 68 56 40 24
98 77 53 54 46 46 50 43 33 35 45 51 51 50 56 62 70 71 60 58 63 50 59 74 87 87 75 57 56 42 36 32 30 28 26 34 36 35 48 64 72 62 57 63 62
43 42 73 51 49 64 61 40 55 58 43 34 47 63 63 53 50 49 50 52 57 59 91 98 72 73 72 48 52 56 55 48 46 26 35 47 81 60 63 59 77 78 70 68 64

GFSSW_925_rhum_132.txt.gz
RH
59 60 58 36 19 15 17 10 7 6 6 6 5 4 5 8 5 12 40 14 20 20 18 13 13 13 10 24 24 24 41 50 43 33 27 18 18 15 13 13 10 9 13 16 25
59 60 55 52 28 15 9 9 7 6 6 6 6 5 6 12 19 48 26 22 19 18 13 18 16 13 12 22 24 32 45 39 28 24 24 20 19 18 15 16 13 14 24 27 28
58 54 52 54 45 19 11 7 7 6 6 7 7 6 7 13 46 28 17 16 11 7 11 22 24 25 20 15 22 24 31 27 24 22 22 21 20 17 16 16 15 14 16 26 28
57 48 49 54 52 15 8 7 6 8 9 8 9 9 9 42 18 20 10 8 9 14 15 15 19 27 25 24 20 25 21 21 20 18 19 20 17 18 18 17 14 15 13 13 16
56 48 50 52 40 16 8 7 8 8 10 12 18 24 26 48 45 17 10 11 11 11 19 19 20 20 27 26 24 25 22 20 19 18 18 18 20 19 16 17 15 16 16 16 18
52 49 47 48 31 16 7 7 8 9 19 32 36 38 72 34 13 16 16 16 13 13 13 14 14 13 15 18 22 23 23 23 21 21 21 20 20 18 16 17 17 16 19 21 20
51 54 47 37 18 11 7 8 9 12 28 31 47 60 73 44 11 18 14 13 12 12 13 15 16 18 18 21 14 14 20 19 18 19 21 20 23 22 18 16 19 18 17 16 18
54 58 44 33 15 9 8 8 16 20 29 33 54 79 72 20 22 19 13 12 11 11 12 12 10 17 22 18 16 14 18 28 19 19 18 20 26 20 17 17 17 15 14 16 16
62 58 41 28 14 8 8 17 28 19 31 41 73 78 67 24 15 13 14 14 13 12 12 12 11 22 25 28 22 20 24 24 20 17 19 20 23 19 17 17 18 17 17 14 14
75 55 41 23 9 7 20 33 32 29 41 60 68 71 41 16 12 13 12 10 18 17 14 14 22 32 31 27 30 24 29 28 26 19 17 21 21 17 18 18 20 19 17 16 14
65 54 38 11 7 22 32 37 38 49 46 52 35 40 19 12 10 10 7 6 9 15 20 19 26 35 35 28 20 18 20 22 18 16 19 19 18 16 14 21 18 21 19 16 15
61 48 37 10 9 35 36 42 40 44 46 32 30 21 18 17 12 9 7 8 10 12 12 17 25 22 20 27 28 22 21 22 18 17 21 21 20 15 14 20 16 15 17 15 14
54 41 36 13 14 34 33 38 38 41 54 41 24 19 14 9 10 9 7 8 8 9 12 15 14 11 9 12 14 16 25 27 27 22 22 21 23 19 15 18 16 16 16 15 13
52 38 23 14 43 47 42 37 41 51 73 40 24 19 12 8 11 6 6 7 12 12 14 15 12 10 12 12 12 16 15 17 19 22 28 19 35 23 22 21 19 18 16 17 14
48 36 25 23 51 48 44 36 41 63 37 30 21 11 8 10 10 9 10 13 15 18 16 21 16 14 14 11 12 22 26 25 25 24 32 25 42 28 22 25 23 20 17 17 14
48 33 29 52 56 51 40 43 56 48 41 22 14 14 12 13 13 11 14 13 14 18 16 18 11 9 11 17 19 23 35 38 35 32 44 31 33 38 25 26 23 18 17 18 15
41 30 45 57 63 52 43 63 57 63 21 20 19 17 18 16 15 16 18 21 24 28 26 20 17 15 17 22 21 22 52 82 70 52 41 25 33 30 26 26 24 24 22 21 24
33 32 40 61 56 49 56 62 58 40 24 17 19 17 20 19 19 20 23 30 22 22 28 32 31 24 20 24 28 30 55 83 97 73 83 60 58 34 36 58 61 57 22 29 39
38 35 64 54 44 54 68 66 46 28 21 22 22 22 26 26 23 30 30 29 25 34 40 46 37 27 24 24 26 36 42 42 72 62 77 60 52 35 71 79 74 59 42 43 48
54 74 70 58 45 67 80 47 32 24 21 22 29 30 40 37 36 34 31 39 43 48 36 36 49 29 26 25 24 32 34 67 80 86 80 84 86 94 78 92 88 81 78 64 63
71 75 54 48 65 88 89 33 29 23 24 31 37 36 38 37 35 35 31 46 46 47 46 45 47 44 35 36 51 58 56 62 70 87 80 74 80 82 89 90 95 89 76 76 58
78 88 51 61 90 89 48 37 24 27 28 31 33 32 34 35 39 46 45 46 42 48 57 51 64 72 53 41 49 50 63 93 98 92 96 91 85 67 78 77 81 96 94 76 75
86 58 48 64 86 78 36 34 31 28 29 28 31 29 28 45 50 46 45 41 43 47 54 60 74 92 50 41 42 47 45 48 72 95 85 95 64 55 67 80 91 91 82 72 68
89 82 65 72 61 53 54 47 40 33 29 24 27 39 45 48 48 55 60 47 48 46 46 62 76 74 79 76 66 72 47 44 47 78 61 59 65 58 78 91 95 82 74 74 61
98 84 61 82 68 54 47 41 50 48 32 30 48 52 56 59 63 60 52 55 48 44 59 62 90 73 71 64 58 59 57 45 44 43 61 41 50 67 73 74 81 75 79 69 68
91 73 64 61 50 52 55 50 45 41 48 51 53 48 53 65 69 72 60 60 67 56 62 75 93 89 85 59 50 50 80 79 86 88 64 65 86 68 67 63 74 79 73 72 69
62 53 67 62 58 58 58 49 55 54 44 45 52 56 61 53 50 53 55 56 58 64 83 96 92 83 77 56 61 76 90 86 94 94 94 87 90 76 77 83 86 84 81 80 72

GFSSW_925_rhum_135.txt.gz
RH
59 59 62 61 37 19 13 10 7 6 6 6 6 6 7 6 4 14 33 17 24 23 20 15 14 15 13 25 28 34 50 66 50 42 36 24 23 17 16 17 17 13 15 23 33
59 54 53 47 32 15 12 9 7 6 6 8 6 7 7 7 13 39 22 20 19 20 17 16 16 13 13 20 25 34 55 48 36 31 29 25 25 23 19 22 19 18 16 18 41
56 52 50 45 35 15 10 8 7 7 8 8 9 6 7 8 29 22 16 16 11 8 11 20 26 26 23 15 20 29 39 33 28 25 25 24 22 20 21 23 20 19 15 14 21
52 50 45 34 22 16 10 8 7 8 8 11 14 10 9 25 15 19 12 11 11 14 16 15 19 27 29 27 22 23 22 22 22 20 22 23 21 20 22 20 16 16 15 13 13
55 50 43 42 26 13 8 7 7 8 8 16 27 25 23 37 32 18 14 15 13 16 18 18 19 21 26 26 24 27 25 23 22 22 22 21 22 22 20 19 18 16 18 19 17
57 54 45 48 38 19 9 7 6 8 12 20 29 38 63 20 5 17 16 15 14 15 13 15 15 15 15 17 18 21 18 19 19 21 20 21 21 22 20 18 20 20 22 24 22
64 57 50 55 41 21 9 7 6 9 19 27 36 56 77 32 10 20 17 14 13 13 12 14 15 19 19 24 17 14 18 17 18 18 21 21 22 25 21 20 21 21 20 20 24
68 59 58 59 46 20 8 7 7 17 27 30 46 74 68 12 30 26 17 13 12 12 12 12 12 16 22 22 26 20 18 25 20 18 17 20 24 20 18 20 21 20 20 19 18
69 54 47 50 20 12 8 9 28 31 25 41 71 75 73 27 21 13 15 15 14 14 14 14 12 16 25 29 28 22 28 23 20 17 19 22 26 19 17 17 18 18 20 18 17
68 55 57 48 22 9 13 28 44 33 40 61 71 59 47 18 12 11 11 10 17 19 16 14 30 29 32 31 41 27 26 26 28 20 17 21 20 15 16 17 21 21 21 21 19
65 66 58 52 15 10 29 43 39 51 57 54 52 51 29 16 12 10 8 7 8 13 14 20 26 30 28 32 29 24 24 26 22 17 19 21 20 18 16 18 21 22 21 21 19
64 63 55 38 12 18 39 45 38 39 31 32 38 35 28 19 12 8 6 8 10 10 12 16 15 18 13 12 18 34 35 32 25 20 22 25 24 20 18 19 20 19 19 20 18
68 68 49 26 12 32 35 36 42 42 33 33 32 23 20 11 11 8 7 8 8 10 12 15 14 13 12 15 13 13 24 25 28 18 20 25 26 23 18 17 18 19 19 19 19
75 61 40 19 29 42 40 37 41 48 43 34 29 21 16 10 10 7 7 8 12 13 15 17 13 17 17 15 15 17 25 34 29 31 36 19 27 18 19 24 21 21 21 21 20
78 58 34 29 56 51 42 38 42 58 14 32 25 12 9 10 10 12 11 12 16 16 17 21 18 17 15 20 22 28 28 40 40 44 32 25 41 25 23 24 24 22 21 20 20
68 46 34 35 52 48 40 36 53 43 25 34 14 14 14 13 12 13 14 15 15 18 19 18 14 14 17 19 20 22 26 39 42 44 50 28 39 30 22 41 48 62 61 56 39
61 39 39 62 61 51 47 63 49 50 20 20 21 18 16 15 18 17 19 26 30 31 29 24 20 17 21 28 26 28 42 56 64 68 46 46 50 46 80 76 82 80 68 63 54
47 38 41 57 58 53 54 70 66 32 26 19 19 18 24 24 27 28 24 31 36 33 35 40 39 30 25 27 32 35 46 66 77 58 57 43 56 41 56 58 71 70 67 69 65
40 41 58 59 58 53 68 72 43 30 23 21 23 24 32 32 30 31 35 35 47 48 44 48 44 28 25 25 28 35 43 38 70 58 70 55 49 49 58 64 76 76 75 78 76
46 57 68 55 51 61 78 62 31 23 21 23 31 30 44 35 35 31 37 46 50 46 45 38 49 30 29 27 28 40 39 60 78 87 73 59 74 96 76 76 81 88 91 84 76
74 82 65 58 58 84 91 51 30 25 26 34 36 41 40 38 34 34 45 51 46 48 47 57 55 43 37 38 52 75 76 76 71 86 73 79 82 79 72 77 84 89 85 87 84
79 92 61 61 95 90 59 33 29 30 29 33 34 35 36 46 41 47 46 44 45 49 54 52 68 81 56 41 44 49 71 94 97 88 92 96 71 74 77 88 80 84 80 80 85
85 78 63 72 93 74 39 37 34 29 30 29 34 32 39 47 50 47 54 45 45 45 50 54 72 93 54 48 51 51 48 53 88 97 91 93 64 71 82 81 87 86 87 85 80
84 92 81 82 77 56 56 45 42 33 31 30 46 45 47 50 50 58 56 46 48 46 46 63 75 72 78 64 69 84 69 57 59 85 70 68 60 84 88 90 95 88 84 90 89
97 84 66 89 78 58 47 47 50 46 35 42 50 52 55 61 62 62 52 56 50 47 62 67 90 80 70 66 66 69 75 83 79 72 86 70 93 90 90 85 94 87 86 82 89
98 87 74 74 57 53 56 52 49 46 53 53 56 59 60 65 70 71 57 61 62 56 61 78 96 89 92 73 70 69 74 81 84 80 81 75 78 77 71 79 86 81 80 78 74
71 64 70 69 56 56 60 57 50 51 46 45 56 63 59 60 56 54 56 53 56 60 75 97 98 89 83 65 68 86 84 82 84 94 95 88 94 80 76 85 89 84 74 70 66

GFSSW_925_rhum_138.txt.gz
RH
55 55 55 57 43 27 17 12 9 7 7 7 7 7 6 5 4 15 23 18 24 22 20 16 15 15 17 26 34 41 59 64 44 42 34 26 27 20 17 21 21 16 16 20 46
51 53 49 50 50 40 18 11 9 7 8 7 7 6 6 6 11 34 23 21 20 22 16 16 17 13 15 17 29 38 60 54 44 36 33 29 26 25 22 24 22 22 19 20 47
59 59 51 48 40 38 20 10 8 7 8 8 12 9 8 8 25 16 18 15 11 11 14 19 27 27 25 16 24 33 47 40 32 30 27 26 23 20 23 26 23 23 18 18 28
61 62 55 54 45 49 28 11 8 7 9 9 15 13 10 22 13 18 15 12 12 13 16 16 21 28 31 28 23 23 25 24 22 19 21 23 20 21 24 22 19 19 20 21 18
66 63 60 54 47 46 34 14 9 8 10 16 22 19 17 15 16 20 17 16 16 16 18 17 17 21 26 23 21 28 25 21 21 19 24 24 26 24 23 21 21 21 21 23 24
65 65 63 56 48 49 28 12 8 8 12 25 27 33 47 6 4 16 20 15 15 16 14 16 16 17 17 16 18 18 17 18 18 20 20 21 20 23 23 20 21 21 24 25 25
71 71 57 52 46 46 22 10 7 7 15 31 36 45 58 8 11 15 21 16 14 14 14 12 15 19 20 24 20 18 22 20 18 18 22 22 26 28 22 22 23 23 22 22 25
78 65 58 51 45 46 30 8 7 12 27 33 47 65 55 10 29 20 16 13 13 13 14 12 14 15 20 22 27 26 22 27 21 18 15 18 23 19 17 19 18 16 19 20 22
83 71 59 52 44 40 14 7 19 30 33 43 74 74 45 30 24 12 14 16 16 16 15 14 13 17 26 31 34 26 30 24 22 18 20 23 29 21 14 15 18 19 20 21 21
90 73 64 53 55 27 8 18 42 36 44 61 73 49 34 18 14 12 11 9 15 17 14 18 32 29 34 37 39 35 34 28 29 23 21 23 22 18 16 18 19 20 22 20 22
93 76 66 60 52 38 14 34 35 47 65 50 44 43 34 20 15 11 8 8 8 11 10 16 28 30 25 28 30 34 33 33 29 24 22 24 21 16 16 20 22 22 20 21 19
89 77 68 61 36 14 40 43 37 39 37 35 50 46 35 25 17 8 7 8 9 11 11 14 12 16 12 11 13 16 29 28 26 23 21 24 21 16 16 20 20 20 21 20 20
92 81 70 56 23 26 40 38 42 42 36 26 33 32 24 21 11 8 7 8 9 11 12 15 12 14 14 16 18 15 20 30 36 27 24 25 25 20 18 17 17 19 21 22 22
96 87 75 38 21 45 40 38 38 41 34 22 40 24 18 11 10 9 8 9 13 14 16 17 14 16 16 20 23 23 27 34 43 45 46 24 37 18 17 22 32 48 69 67 60
92 87 73 27 59 52 42 39 42 47 14 27 26 15 11 10 12 12 12 12 16 17 16 18 18 18 26 24 24 29 28 28 37 49 43 28 41 21 26 78 79 73 72 69 65
89 84 70 36 50 50 43 39 48 23 19 34 15 14 14 13 13 15 17 19 18 20 20 18 16 20 19 21 24 25 25 34 45 52 59 49 52 58 86 87 83 73 75 69 72
85 82 64 41 58 47 40 58 30 33 20 21 22 18 19 20 22 20 33 39 35 28 32 27 26 22 23 27 28 30 36 43 47 64 43 36 43 56 69 69 83 80 78 76 73
81 60 38 56 62 49 57 64 32 25 29 20 19 23 28 26 29 29 28 37 43 34 38 39 35 29 25 27 33 35 45 56 63 56 52 35 45 30 60 59 67 67 72 74 78
73 49 43 57 61 54 68 56 36 41 23 22 25 30 33 31 29 33 43 47 52 50 38 45 44 29 25 26 28 35 39 39 68 54 65 45 44 40 48 41 60 67 75 79 78
59 53 68 60 60 56 79 51 39 24 22 23 27 31 42 35 33 31 48 47 51 46 45 44 48 33 30 30 31 46 46 67 78 64 76 64 56 91 60 58 72 72 82 78 81
46 88 62 64 60 83 87 74 29 27 26 31 37 41 40 36 34 35 49 51 46 46 45 54 50 46 40 39 44 66 72 77 78 84 83 74 65 82 72 84 89 82 89 83 87
86 96 73 63 93 93 90 41 30 33 32 35 35 36 38 43 45 47 48 55 44 46 49 53 70 83 57 46 42 53 74 91 99 90 94 97 80 76 86 80 79 95 95 89 85
89 88 75 77 98 95 47 39 33 32 31 31 35 34 41 48 55 52 54 48 45 40 47 54 73 90 49 46 50 55 54 56 83 98 93 96 69 71 77 80 95 97 95 95 95
91 98 86 82 87 58 56 48 43 34 32 41 46 44 49 54 56 61 53 46 51 45 43 61 72 68 71 53 64 75 70 68 78 94 73 76 66 76 86 96 98 94 92 94 91
94 89 78 95 94 64 55 49 46 47 43 46 50 50 53 66 63 62 53 51 48 55 65 67 87 79 72 68 69 71 77 80 95 81 90 82 91 89 83 94 97 86 74 93 84
98 93 77 66 65 57 55 50 49 52 52 55 62 61 57 64 68 71 56 56 55 59 59 82 92 94 87 73 80 81 76 78 84 85 85 87 94 68 63 65 79 77 68 73 82
81 67 72 72 68 57 64 57 49 57 50 49 67 69 62 61 54 46 49 51 54 58 77 92 90 88 76 69 72 87 80 79 81 96 96 92 92 72 74 86 94 83 74 74 71